<?xml version="1.0" encoding="UTF-8" standalone="no" ?>
<gpx xmlns="http://www.topografix.com/GPX/1/1" xmlns:xsi="http://www.w3.org/2001/XMLSchema-instance" xsi:schemaLocation="http://www.topografix.com/GPX/1/1 http://www.topografix.com/GPX/1/1/gpx.xsd" version="1.1" creator="VisuGPX - https://www.visugpx.com">
  <metadata>
    <name>Palaiseau4807_Marche_Nordique_2012-12-16</name>
    <desc><![CDATA[dépat petit parking]]></desc>
  </metadata>
  <trk>
    <name><![CDATA[2012-12-16 JOUY]]></name>
    <trkseg>
      <trkpt lat="48.77148" lon="2.14786">
        <ele>94.9</ele>
        <time>2012-12-16T08:33:30Z</time>
      </trkpt>
      <trkpt lat="48.77148" lon="2.14786">
        <ele>94.9</ele>
        <time>2012-12-16T08:33:31Z</time>
      </trkpt>
      <trkpt lat="48.77143" lon="2.14784">
        <ele>97.5</ele>
        <time>2012-12-16T08:33:40Z</time>
      </trkpt>
      <trkpt lat="48.7714" lon="2.14783">
        <ele>96.4</ele>
        <time>2012-12-16T08:33:45Z</time>
      </trkpt>
      <trkpt lat="48.77142" lon="2.14782">
        <ele>97</ele>
        <time>2012-12-16T08:33:50Z</time>
      </trkpt>
      <trkpt lat="48.77137" lon="2.14782">
        <ele>94.5</ele>
        <time>2012-12-16T08:33:55Z</time>
      </trkpt>
      <trkpt lat="48.77138" lon="2.14781">
        <ele>93.6</ele>
        <time>2012-12-16T08:34:00Z</time>
      </trkpt>
      <trkpt lat="48.77138" lon="2.14781">
        <ele>92.8</ele>
        <time>2012-12-16T08:34:05Z</time>
      </trkpt>
      <trkpt lat="48.77138" lon="2.14781">
        <ele>92.8</ele>
        <time>2012-12-16T08:34:10Z</time>
      </trkpt>
      <trkpt lat="48.77137" lon="2.1478">
        <ele>91.1</ele>
        <time>2012-12-16T08:34:15Z</time>
      </trkpt>
      <trkpt lat="48.77137" lon="2.1478">
        <ele>91.1</ele>
        <time>2012-12-16T08:34:20Z</time>
      </trkpt>
      <trkpt lat="48.77137" lon="2.1478">
        <ele>91.1</ele>
        <time>2012-12-16T08:34:25Z</time>
      </trkpt>
      <trkpt lat="48.77137" lon="2.1478">
        <ele>91.1</ele>
        <time>2012-12-16T08:34:30Z</time>
      </trkpt>
      <trkpt lat="48.77137" lon="2.1478">
        <ele>91.1</ele>
        <time>2012-12-16T08:34:35Z</time>
      </trkpt>
      <trkpt lat="48.77137" lon="2.1478">
        <ele>91.1</ele>
        <time>2012-12-16T08:34:36Z</time>
      </trkpt>
      <trkpt lat="48.77137" lon="2.1478">
        <ele>91.1</ele>
        <time>2012-12-16T08:34:45Z</time>
      </trkpt>
      <trkpt lat="48.77137" lon="2.1478">
        <ele>91.1</ele>
        <time>2012-12-16T08:34:50Z</time>
      </trkpt>
      <trkpt lat="48.77137" lon="2.1478">
        <ele>91.1</ele>
        <time>2012-12-16T08:34:55Z</time>
      </trkpt>
      <trkpt lat="48.77137" lon="2.1478">
        <ele>91.1</ele>
        <time>2012-12-16T08:35:00Z</time>
      </trkpt>
      <trkpt lat="48.77137" lon="2.14781">
        <ele>91.4</ele>
        <time>2012-12-16T08:35:05Z</time>
      </trkpt>
      <trkpt lat="48.77137" lon="2.14781">
        <ele>92.6</ele>
        <time>2012-12-16T08:35:10Z</time>
      </trkpt>
      <trkpt lat="48.77137" lon="2.14781">
        <ele>92.6</ele>
        <time>2012-12-16T08:35:15Z</time>
      </trkpt>
      <trkpt lat="48.77137" lon="2.14781">
        <ele>92.6</ele>
        <time>2012-12-16T08:35:20Z</time>
      </trkpt>
      <trkpt lat="48.77137" lon="2.14781">
        <ele>92.6</ele>
        <time>2012-12-16T08:35:25Z</time>
      </trkpt>
      <trkpt lat="48.77137" lon="2.14781">
        <ele>92.6</ele>
        <time>2012-12-16T08:35:30Z</time>
      </trkpt>
      <trkpt lat="48.77137" lon="2.14781">
        <ele>92.6</ele>
        <time>2012-12-16T08:35:35Z</time>
      </trkpt>
      <trkpt lat="48.77137" lon="2.14781">
        <ele>92.6</ele>
        <time>2012-12-16T08:35:40Z</time>
      </trkpt>
      <trkpt lat="48.77137" lon="2.14781">
        <ele>92.6</ele>
        <time>2012-12-16T08:35:41Z</time>
      </trkpt>
      <trkpt lat="48.77137" lon="2.14781">
        <ele>92.6</ele>
        <time>2012-12-16T08:35:50Z</time>
      </trkpt>
      <trkpt lat="48.77137" lon="2.14781">
        <ele>92.6</ele>
        <time>2012-12-16T08:35:55Z</time>
      </trkpt>
      <trkpt lat="48.77137" lon="2.14781">
        <ele>92.6</ele>
        <time>2012-12-16T08:36:00Z</time>
      </trkpt>
      <trkpt lat="48.77137" lon="2.14781">
        <ele>92.6</ele>
        <time>2012-12-16T08:36:05Z</time>
      </trkpt>
      <trkpt lat="48.77137" lon="2.14781">
        <ele>92.6</ele>
        <time>2012-12-16T08:36:10Z</time>
      </trkpt>
      <trkpt lat="48.77137" lon="2.14781">
        <ele>92.6</ele>
        <time>2012-12-16T08:36:15Z</time>
      </trkpt>
      <trkpt lat="48.77137" lon="2.14781">
        <ele>92.6</ele>
        <time>2012-12-16T08:36:20Z</time>
      </trkpt>
      <trkpt lat="48.77137" lon="2.14781">
        <ele>92.6</ele>
        <time>2012-12-16T08:36:25Z</time>
      </trkpt>
      <trkpt lat="48.77136" lon="2.14781">
        <ele>93.5</ele>
        <time>2012-12-16T08:36:30Z</time>
      </trkpt>
      <trkpt lat="48.77137" lon="2.14781">
        <ele>93.5</ele>
        <time>2012-12-16T08:36:35Z</time>
      </trkpt>
      <trkpt lat="48.77137" lon="2.14781">
        <ele>93.5</ele>
        <time>2012-12-16T08:36:40Z</time>
      </trkpt>
      <trkpt lat="48.77137" lon="2.14781">
        <ele>93.5</ele>
        <time>2012-12-16T08:36:45Z</time>
      </trkpt>
      <trkpt lat="48.77137" lon="2.14781">
        <ele>93.5</ele>
        <time>2012-12-16T08:36:46Z</time>
      </trkpt>
      <trkpt lat="48.77137" lon="2.14781">
        <ele>93.5</ele>
        <time>2012-12-16T08:36:55Z</time>
      </trkpt>
      <trkpt lat="48.77136" lon="2.14781">
        <ele>93.3</ele>
        <time>2012-12-16T08:36:59Z</time>
      </trkpt>
      <trkpt lat="48.77136" lon="2.14781">
        <ele>93.1</ele>
        <time>2012-12-16T08:37:03Z</time>
      </trkpt>
      <trkpt lat="48.77136" lon="2.14781">
        <ele>93.1</ele>
        <time>2012-12-16T08:37:08Z</time>
      </trkpt>
      <trkpt lat="48.77136" lon="2.14781">
        <ele>93.1</ele>
        <time>2012-12-16T08:37:13Z</time>
      </trkpt>
      <trkpt lat="48.77136" lon="2.14781">
        <ele>93.1</ele>
        <time>2012-12-16T08:37:17Z</time>
      </trkpt>
      <trkpt lat="48.77136" lon="2.14781">
        <ele>93.1</ele>
        <time>2012-12-16T08:37:22Z</time>
      </trkpt>
      <trkpt lat="48.77136" lon="2.14781">
        <ele>93.1</ele>
        <time>2012-12-16T08:37:27Z</time>
      </trkpt>
      <trkpt lat="48.77136" lon="2.14781">
        <ele>93.1</ele>
        <time>2012-12-16T08:37:32Z</time>
      </trkpt>
      <trkpt lat="48.77136" lon="2.14781">
        <ele>93.1</ele>
        <time>2012-12-16T08:37:37Z</time>
      </trkpt>
      <trkpt lat="48.77136" lon="2.14781">
        <ele>93.1</ele>
        <time>2012-12-16T08:37:42Z</time>
      </trkpt>
      <trkpt lat="48.77136" lon="2.14781">
        <ele>93.1</ele>
        <time>2012-12-16T08:37:47Z</time>
      </trkpt>
      <trkpt lat="48.77136" lon="2.14781">
        <ele>93.1</ele>
        <time>2012-12-16T08:37:48Z</time>
      </trkpt>
      <trkpt lat="48.77136" lon="2.14781">
        <ele>93.1</ele>
        <time>2012-12-16T08:37:57Z</time>
      </trkpt>
      <trkpt lat="48.77136" lon="2.14781">
        <ele>93.1</ele>
        <time>2012-12-16T08:38:01Z</time>
      </trkpt>
      <trkpt lat="48.77136" lon="2.14781">
        <ele>93.1</ele>
        <time>2012-12-16T08:38:06Z</time>
      </trkpt>
      <trkpt lat="48.77136" lon="2.14781">
        <ele>93.1</ele>
        <time>2012-12-16T08:38:11Z</time>
      </trkpt>
      <trkpt lat="48.77136" lon="2.14781">
        <ele>93.1</ele>
        <time>2012-12-16T08:38:15Z</time>
      </trkpt>
      <trkpt lat="48.77136" lon="2.14781">
        <ele>93.1</ele>
        <time>2012-12-16T08:38:19Z</time>
      </trkpt>
      <trkpt lat="48.77136" lon="2.14781">
        <ele>93.1</ele>
        <time>2012-12-16T08:38:24Z</time>
      </trkpt>
      <trkpt lat="48.77136" lon="2.14781">
        <ele>93.1</ele>
        <time>2012-12-16T08:38:29Z</time>
      </trkpt>
      <trkpt lat="48.77136" lon="2.14781">
        <ele>93.1</ele>
        <time>2012-12-16T08:38:34Z</time>
      </trkpt>
      <trkpt lat="48.77136" lon="2.14781">
        <ele>93.1</ele>
        <time>2012-12-16T08:38:39Z</time>
      </trkpt>
      <trkpt lat="48.77136" lon="2.14781">
        <ele>93.1</ele>
        <time>2012-12-16T08:38:44Z</time>
      </trkpt>
      <trkpt lat="48.77136" lon="2.14781">
        <ele>93.1</ele>
        <time>2012-12-16T08:38:49Z</time>
      </trkpt>
      <trkpt lat="48.77136" lon="2.14781">
        <ele>93.1</ele>
        <time>2012-12-16T08:38:50Z</time>
      </trkpt>
      <trkpt lat="48.77136" lon="2.14782">
        <ele>94</ele>
        <time>2012-12-16T08:38:59Z</time>
      </trkpt>
      <trkpt lat="48.77136" lon="2.14782">
        <ele>94</ele>
        <time>2012-12-16T08:39:03Z</time>
      </trkpt>
      <trkpt lat="48.77136" lon="2.14782">
        <ele>94</ele>
        <time>2012-12-16T08:39:08Z</time>
      </trkpt>
      <trkpt lat="48.77136" lon="2.14782">
        <ele>94</ele>
        <time>2012-12-16T08:39:13Z</time>
      </trkpt>
      <trkpt lat="48.77136" lon="2.14782">
        <ele>94</ele>
        <time>2012-12-16T08:39:17Z</time>
      </trkpt>
      <trkpt lat="48.77136" lon="2.14782">
        <ele>94</ele>
        <time>2012-12-16T08:39:22Z</time>
      </trkpt>
      <trkpt lat="48.77136" lon="2.14782">
        <ele>94</ele>
        <time>2012-12-16T08:39:27Z</time>
      </trkpt>
      <trkpt lat="48.77136" lon="2.14782">
        <ele>94</ele>
        <time>2012-12-16T08:39:32Z</time>
      </trkpt>
      <trkpt lat="48.77136" lon="2.14782">
        <ele>94</ele>
        <time>2012-12-16T08:39:37Z</time>
      </trkpt>
      <trkpt lat="48.77136" lon="2.14782">
        <ele>94</ele>
        <time>2012-12-16T08:39:42Z</time>
      </trkpt>
      <trkpt lat="48.77136" lon="2.14782">
        <ele>94</ele>
        <time>2012-12-16T08:39:47Z</time>
      </trkpt>
      <trkpt lat="48.77136" lon="2.14782">
        <ele>94</ele>
        <time>2012-12-16T08:39:52Z</time>
      </trkpt>
      <trkpt lat="48.77136" lon="2.14782">
        <ele>94</ele>
        <time>2012-12-16T08:39:53Z</time>
      </trkpt>
      <trkpt lat="48.77136" lon="2.14781">
        <ele>94.5</ele>
        <time>2012-12-16T08:40:01Z</time>
      </trkpt>
      <trkpt lat="48.77136" lon="2.14781">
        <ele>94.5</ele>
        <time>2012-12-16T08:40:06Z</time>
      </trkpt>
      <trkpt lat="48.77136" lon="2.14781">
        <ele>94.5</ele>
        <time>2012-12-16T08:40:11Z</time>
      </trkpt>
      <trkpt lat="48.77136" lon="2.14781">
        <ele>94.3</ele>
        <time>2012-12-16T08:40:15Z</time>
      </trkpt>
      <trkpt lat="48.77136" lon="2.14781">
        <ele>94.3</ele>
        <time>2012-12-16T08:40:19Z</time>
      </trkpt>
      <trkpt lat="48.77136" lon="2.14782">
        <ele>95</ele>
        <time>2012-12-16T08:40:24Z</time>
      </trkpt>
      <trkpt lat="48.77136" lon="2.14782">
        <ele>95</ele>
        <time>2012-12-16T08:40:29Z</time>
      </trkpt>
      <trkpt lat="48.77136" lon="2.14782">
        <ele>95</ele>
        <time>2012-12-16T08:40:34Z</time>
      </trkpt>
      <trkpt lat="48.77136" lon="2.14782">
        <ele>95</ele>
        <time>2012-12-16T08:40:39Z</time>
      </trkpt>
      <trkpt lat="48.77136" lon="2.14782">
        <ele>95</ele>
        <time>2012-12-16T08:40:44Z</time>
      </trkpt>
      <trkpt lat="48.77136" lon="2.14782">
        <ele>95</ele>
        <time>2012-12-16T08:40:49Z</time>
      </trkpt>
      <trkpt lat="48.77136" lon="2.14782">
        <ele>95</ele>
        <time>2012-12-16T08:40:54Z</time>
      </trkpt>
      <trkpt lat="48.77136" lon="2.14782">
        <ele>95</ele>
        <time>2012-12-16T08:40:55Z</time>
      </trkpt>
      <trkpt lat="48.77136" lon="2.14782">
        <ele>95</ele>
        <time>2012-12-16T08:41:03Z</time>
      </trkpt>
      <trkpt lat="48.77136" lon="2.14782">
        <ele>95</ele>
        <time>2012-12-16T08:41:08Z</time>
      </trkpt>
      <trkpt lat="48.77136" lon="2.14782">
        <ele>95</ele>
        <time>2012-12-16T08:41:13Z</time>
      </trkpt>
      <trkpt lat="48.77136" lon="2.14782">
        <ele>95</ele>
        <time>2012-12-16T08:41:17Z</time>
      </trkpt>
      <trkpt lat="48.77136" lon="2.14782">
        <ele>95</ele>
        <time>2012-12-16T08:41:22Z</time>
      </trkpt>
      <trkpt lat="48.77136" lon="2.14782">
        <ele>95</ele>
        <time>2012-12-16T08:41:27Z</time>
      </trkpt>
      <trkpt lat="48.77136" lon="2.14782">
        <ele>95</ele>
        <time>2012-12-16T08:41:32Z</time>
      </trkpt>
      <trkpt lat="48.77133" lon="2.14781">
        <ele>94.6</ele>
        <time>2012-12-16T08:41:37Z</time>
      </trkpt>
      <trkpt lat="48.77129" lon="2.14782">
        <ele>94.6</ele>
        <time>2012-12-16T08:41:42Z</time>
      </trkpt>
      <trkpt lat="48.77124" lon="2.14784">
        <ele>96.5</ele>
        <time>2012-12-16T08:41:47Z</time>
      </trkpt>
      <trkpt lat="48.77121" lon="2.14785">
        <ele>96.9</ele>
        <time>2012-12-16T08:41:52Z</time>
      </trkpt>
      <trkpt lat="48.77115" lon="2.1479">
        <ele>98.3</ele>
        <time>2012-12-16T08:41:57Z</time>
      </trkpt>
      <trkpt lat="48.77114" lon="2.14791">
        <ele>98.5</ele>
        <time>2012-12-16T08:41:58Z</time>
      </trkpt>
      <trkpt lat="48.77104" lon="2.14801">
        <ele>102.8</ele>
        <time>2012-12-16T08:42:06Z</time>
      </trkpt>
      <trkpt lat="48.771" lon="2.14808">
        <ele>104.6</ele>
        <time>2012-12-16T08:42:11Z</time>
      </trkpt>
      <trkpt lat="48.77096" lon="2.14813">
        <ele>106.6</ele>
        <time>2012-12-16T08:42:15Z</time>
      </trkpt>
      <trkpt lat="48.77093" lon="2.14819">
        <ele>106.9</ele>
        <time>2012-12-16T08:42:19Z</time>
      </trkpt>
      <trkpt lat="48.77088" lon="2.14827">
        <ele>108.5</ele>
        <time>2012-12-16T08:42:24Z</time>
      </trkpt>
      <trkpt lat="48.77084" lon="2.14835">
        <ele>109</ele>
        <time>2012-12-16T08:42:29Z</time>
      </trkpt>
      <trkpt lat="48.7708" lon="2.1484">
        <ele>110</ele>
        <time>2012-12-16T08:42:34Z</time>
      </trkpt>
      <trkpt lat="48.77077" lon="2.14846">
        <ele>111.4</ele>
        <time>2012-12-16T08:42:39Z</time>
      </trkpt>
      <trkpt lat="48.77074" lon="2.14851">
        <ele>110.4</ele>
        <time>2012-12-16T08:42:44Z</time>
      </trkpt>
      <trkpt lat="48.77071" lon="2.14857">
        <ele>112.5</ele>
        <time>2012-12-16T08:42:49Z</time>
      </trkpt>
      <trkpt lat="48.77068" lon="2.14863">
        <ele>112.6</ele>
        <time>2012-12-16T08:42:54Z</time>
      </trkpt>
      <trkpt lat="48.77065" lon="2.14869">
        <ele>112.9</ele>
        <time>2012-12-16T08:42:59Z</time>
      </trkpt>
      <trkpt lat="48.77065" lon="2.14871">
        <ele>113</ele>
        <time>2012-12-16T08:43:00Z</time>
      </trkpt>
      <trkpt lat="48.77061" lon="2.14881">
        <ele>114.3</ele>
        <time>2012-12-16T08:43:08Z</time>
      </trkpt>
      <trkpt lat="48.7706" lon="2.14883">
        <ele>115</ele>
        <time>2012-12-16T08:43:13Z</time>
      </trkpt>
      <trkpt lat="48.77057" lon="2.14887">
        <ele>116</ele>
        <time>2012-12-16T08:43:17Z</time>
      </trkpt>
      <trkpt lat="48.77054" lon="2.14893">
        <ele>116.5</ele>
        <time>2012-12-16T08:43:22Z</time>
      </trkpt>
      <trkpt lat="48.77053" lon="2.14896">
        <ele>117</ele>
        <time>2012-12-16T08:43:27Z</time>
      </trkpt>
      <trkpt lat="48.7705" lon="2.14903">
        <ele>117.6</ele>
        <time>2012-12-16T08:43:32Z</time>
      </trkpt>
      <trkpt lat="48.77048" lon="2.14905">
        <ele>118.3</ele>
        <time>2012-12-16T08:43:37Z</time>
      </trkpt>
      <trkpt lat="48.77045" lon="2.14911">
        <ele>119.8</ele>
        <time>2012-12-16T08:43:42Z</time>
      </trkpt>
      <trkpt lat="48.77042" lon="2.14919">
        <ele>119.9</ele>
        <time>2012-12-16T08:43:47Z</time>
      </trkpt>
      <trkpt lat="48.77041" lon="2.14922">
        <ele>120.5</ele>
        <time>2012-12-16T08:43:52Z</time>
      </trkpt>
      <trkpt lat="48.77038" lon="2.14931">
        <ele>122.1</ele>
        <time>2012-12-16T08:43:57Z</time>
      </trkpt>
      <trkpt lat="48.77036" lon="2.14937">
        <ele>122.4</ele>
        <time>2012-12-16T08:44:01Z</time>
      </trkpt>
      <trkpt lat="48.77036" lon="2.14937">
        <ele>122.4</ele>
        <time>2012-12-16T08:44:02Z</time>
      </trkpt>
      <trkpt lat="48.77032" lon="2.1495">
        <ele>122.6</ele>
        <time>2012-12-16T08:44:11Z</time>
      </trkpt>
      <trkpt lat="48.77031" lon="2.14953">
        <ele>123.3</ele>
        <time>2012-12-16T08:44:15Z</time>
      </trkpt>
      <trkpt lat="48.77029" lon="2.14959">
        <ele>124</ele>
        <time>2012-12-16T08:44:19Z</time>
      </trkpt>
      <trkpt lat="48.77026" lon="2.14968">
        <ele>125</ele>
        <time>2012-12-16T08:44:24Z</time>
      </trkpt>
      <trkpt lat="48.7702" lon="2.14975">
        <ele>127.4</ele>
        <time>2012-12-16T08:44:29Z</time>
      </trkpt>
      <trkpt lat="48.77018" lon="2.1498">
        <ele>127.9</ele>
        <time>2012-12-16T08:44:34Z</time>
      </trkpt>
      <trkpt lat="48.77017" lon="2.14985">
        <ele>129.5</ele>
        <time>2012-12-16T08:44:39Z</time>
      </trkpt>
      <trkpt lat="48.77015" lon="2.14996">
        <ele>131</ele>
        <time>2012-12-16T08:44:44Z</time>
      </trkpt>
      <trkpt lat="48.77013" lon="2.15">
        <ele>130.6</ele>
        <time>2012-12-16T08:44:49Z</time>
      </trkpt>
      <trkpt lat="48.77012" lon="2.15009">
        <ele>131.3</ele>
        <time>2012-12-16T08:44:54Z</time>
      </trkpt>
      <trkpt lat="48.77008" lon="2.15015">
        <ele>132.1</ele>
        <time>2012-12-16T08:44:59Z</time>
      </trkpt>
      <trkpt lat="48.77006" lon="2.15021">
        <ele>132.8</ele>
        <time>2012-12-16T08:45:03Z</time>
      </trkpt>
      <trkpt lat="48.77006" lon="2.15023">
        <ele>132.6</ele>
        <time>2012-12-16T08:45:04Z</time>
      </trkpt>
      <trkpt lat="48.77007" lon="2.15027">
        <ele>132.8</ele>
        <time>2012-12-16T08:45:13Z</time>
      </trkpt>
      <trkpt lat="48.77008" lon="2.15028">
        <ele>133.1</ele>
        <time>2012-12-16T08:45:17Z</time>
      </trkpt>
      <trkpt lat="48.7701" lon="2.15029">
        <ele>132.8</ele>
        <time>2012-12-16T08:45:22Z</time>
      </trkpt>
      <trkpt lat="48.77014" lon="2.15032">
        <ele>134</ele>
        <time>2012-12-16T08:45:27Z</time>
      </trkpt>
      <trkpt lat="48.7702" lon="2.15034">
        <ele>133.8</ele>
        <time>2012-12-16T08:45:32Z</time>
      </trkpt>
      <trkpt lat="48.77025" lon="2.15037">
        <ele>134.5</ele>
        <time>2012-12-16T08:45:37Z</time>
      </trkpt>
      <trkpt lat="48.77028" lon="2.15038">
        <ele>135.3</ele>
        <time>2012-12-16T08:45:42Z</time>
      </trkpt>
      <trkpt lat="48.77031" lon="2.15037">
        <ele>136.1</ele>
        <time>2012-12-16T08:45:47Z</time>
      </trkpt>
      <trkpt lat="48.77036" lon="2.15035">
        <ele>136.8</ele>
        <time>2012-12-16T08:45:52Z</time>
      </trkpt>
      <trkpt lat="48.77041" lon="2.15035">
        <ele>137.6</ele>
        <time>2012-12-16T08:45:57Z</time>
      </trkpt>
      <trkpt lat="48.77045" lon="2.15037">
        <ele>138</ele>
        <time>2012-12-16T08:46:01Z</time>
      </trkpt>
      <trkpt lat="48.77051" lon="2.15043">
        <ele>139</ele>
        <time>2012-12-16T08:46:06Z</time>
      </trkpt>
      <trkpt lat="48.77053" lon="2.15044">
        <ele>139.3</ele>
        <time>2012-12-16T08:46:07Z</time>
      </trkpt>
      <trkpt lat="48.77059" lon="2.15048">
        <ele>141.5</ele>
        <time>2012-12-16T08:46:15Z</time>
      </trkpt>
      <trkpt lat="48.77061" lon="2.15048">
        <ele>141.6</ele>
        <time>2012-12-16T08:46:19Z</time>
      </trkpt>
      <trkpt lat="48.77063" lon="2.15048">
        <ele>141.3</ele>
        <time>2012-12-16T08:46:24Z</time>
      </trkpt>
      <trkpt lat="48.77065" lon="2.15047">
        <ele>141.3</ele>
        <time>2012-12-16T08:46:29Z</time>
      </trkpt>
      <trkpt lat="48.77066" lon="2.15047">
        <ele>141.6</ele>
        <time>2012-12-16T08:46:34Z</time>
      </trkpt>
      <trkpt lat="48.77069" lon="2.15047">
        <ele>142.1</ele>
        <time>2012-12-16T08:46:39Z</time>
      </trkpt>
      <trkpt lat="48.77071" lon="2.15047">
        <ele>142.6</ele>
        <time>2012-12-16T08:46:44Z</time>
      </trkpt>
      <trkpt lat="48.77075" lon="2.15047">
        <ele>143</ele>
        <time>2012-12-16T08:46:49Z</time>
      </trkpt>
      <trkpt lat="48.77079" lon="2.15047">
        <ele>143.6</ele>
        <time>2012-12-16T08:46:54Z</time>
      </trkpt>
      <trkpt lat="48.77082" lon="2.15051">
        <ele>142.3</ele>
        <time>2012-12-16T08:46:59Z</time>
      </trkpt>
      <trkpt lat="48.77088" lon="2.15052">
        <ele>142.8</ele>
        <time>2012-12-16T08:47:03Z</time>
      </trkpt>
      <trkpt lat="48.77096" lon="2.15053">
        <ele>143.3</ele>
        <time>2012-12-16T08:47:08Z</time>
      </trkpt>
      <trkpt lat="48.77099" lon="2.15053">
        <ele>143.5</ele>
        <time>2012-12-16T08:47:09Z</time>
      </trkpt>
      <trkpt lat="48.77106" lon="2.15056">
        <ele>145</ele>
        <time>2012-12-16T08:47:17Z</time>
      </trkpt>
      <trkpt lat="48.7711" lon="2.15056">
        <ele>145.6</ele>
        <time>2012-12-16T08:47:22Z</time>
      </trkpt>
      <trkpt lat="48.77117" lon="2.15057">
        <ele>145.8</ele>
        <time>2012-12-16T08:47:27Z</time>
      </trkpt>
      <trkpt lat="48.77119" lon="2.15058">
        <ele>146.6</ele>
        <time>2012-12-16T08:47:32Z</time>
      </trkpt>
      <trkpt lat="48.77123" lon="2.15058">
        <ele>148.1</ele>
        <time>2012-12-16T08:47:37Z</time>
      </trkpt>
      <trkpt lat="48.77134" lon="2.15061">
        <ele>149.8</ele>
        <time>2012-12-16T08:47:42Z</time>
      </trkpt>
      <trkpt lat="48.77142" lon="2.15064">
        <ele>151.1</ele>
        <time>2012-12-16T08:47:47Z</time>
      </trkpt>
      <trkpt lat="48.77142" lon="2.15064">
        <ele>151.1</ele>
        <time>2012-12-16T08:47:52Z</time>
      </trkpt>
      <trkpt lat="48.77145" lon="2.15065">
        <ele>151.5</ele>
        <time>2012-12-16T08:47:57Z</time>
      </trkpt>
      <trkpt lat="48.77153" lon="2.15068">
        <ele>151.1</ele>
        <time>2012-12-16T08:48:01Z</time>
      </trkpt>
      <trkpt lat="48.77157" lon="2.15068">
        <ele>152.3</ele>
        <time>2012-12-16T08:48:06Z</time>
      </trkpt>
      <trkpt lat="48.77158" lon="2.15067">
        <ele>152.3</ele>
        <time>2012-12-16T08:48:11Z</time>
      </trkpt>
      <trkpt lat="48.77158" lon="2.15067">
        <ele>152.3</ele>
        <time>2012-12-16T08:48:12Z</time>
      </trkpt>
      <trkpt lat="48.77172" lon="2.15071">
        <ele>155.6</ele>
        <time>2012-12-16T08:48:19Z</time>
      </trkpt>
      <trkpt lat="48.77183" lon="2.15076">
        <ele>156.8</ele>
        <time>2012-12-16T08:48:24Z</time>
      </trkpt>
      <trkpt lat="48.77195" lon="2.15085">
        <ele>156.5</ele>
        <time>2012-12-16T08:48:29Z</time>
      </trkpt>
      <trkpt lat="48.772" lon="2.15094">
        <ele>156.3</ele>
        <time>2012-12-16T08:48:34Z</time>
      </trkpt>
      <trkpt lat="48.77204" lon="2.15102">
        <ele>157.1</ele>
        <time>2012-12-16T08:48:39Z</time>
      </trkpt>
      <trkpt lat="48.77206" lon="2.15108">
        <ele>157.3</ele>
        <time>2012-12-16T08:48:44Z</time>
      </trkpt>
      <trkpt lat="48.7721" lon="2.15119">
        <ele>156.1</ele>
        <time>2012-12-16T08:48:49Z</time>
      </trkpt>
      <trkpt lat="48.77214" lon="2.15129">
        <ele>156.6</ele>
        <time>2012-12-16T08:48:54Z</time>
      </trkpt>
      <trkpt lat="48.77217" lon="2.15138">
        <ele>156.6</ele>
        <time>2012-12-16T08:48:59Z</time>
      </trkpt>
      <trkpt lat="48.77218" lon="2.15145">
        <ele>156.6</ele>
        <time>2012-12-16T08:49:03Z</time>
      </trkpt>
      <trkpt lat="48.77222" lon="2.15154">
        <ele>157.6</ele>
        <time>2012-12-16T08:49:08Z</time>
      </trkpt>
      <trkpt lat="48.77223" lon="2.15157">
        <ele>157.5</ele>
        <time>2012-12-16T08:49:13Z</time>
      </trkpt>
      <trkpt lat="48.77223" lon="2.15159">
        <ele>158</ele>
        <time>2012-12-16T08:49:14Z</time>
      </trkpt>
      <trkpt lat="48.77228" lon="2.15175">
        <ele>159</ele>
        <time>2012-12-16T08:49:22Z</time>
      </trkpt>
      <trkpt lat="48.7723" lon="2.15184">
        <ele>159.6</ele>
        <time>2012-12-16T08:49:27Z</time>
      </trkpt>
      <trkpt lat="48.77233" lon="2.15191">
        <ele>159.8</ele>
        <time>2012-12-16T08:49:32Z</time>
      </trkpt>
      <trkpt lat="48.77237" lon="2.15198">
        <ele>161.5</ele>
        <time>2012-12-16T08:49:37Z</time>
      </trkpt>
      <trkpt lat="48.77241" lon="2.15204">
        <ele>161.3</ele>
        <time>2012-12-16T08:49:42Z</time>
      </trkpt>
      <trkpt lat="48.77245" lon="2.15211">
        <ele>158.6</ele>
        <time>2012-12-16T08:49:47Z</time>
      </trkpt>
      <trkpt lat="48.77248" lon="2.1522">
        <ele>158.3</ele>
        <time>2012-12-16T08:49:52Z</time>
      </trkpt>
      <trkpt lat="48.77249" lon="2.15225">
        <ele>158.6</ele>
        <time>2012-12-16T08:49:57Z</time>
      </trkpt>
      <trkpt lat="48.77254" lon="2.15231">
        <ele>159.3</ele>
        <time>2012-12-16T08:50:01Z</time>
      </trkpt>
      <trkpt lat="48.77258" lon="2.15235">
        <ele>161.1</ele>
        <time>2012-12-16T08:50:06Z</time>
      </trkpt>
      <trkpt lat="48.77261" lon="2.15239">
        <ele>161.6</ele>
        <time>2012-12-16T08:50:11Z</time>
      </trkpt>
      <trkpt lat="48.77262" lon="2.15243">
        <ele>161.8</ele>
        <time>2012-12-16T08:50:15Z</time>
      </trkpt>
      <trkpt lat="48.77263" lon="2.15245">
        <ele>161.5</ele>
        <time>2012-12-16T08:50:16Z</time>
      </trkpt>
      <trkpt lat="48.77271" lon="2.15259">
        <ele>162.3</ele>
        <time>2012-12-16T08:50:24Z</time>
      </trkpt>
      <trkpt lat="48.77272" lon="2.15262">
        <ele>162.6</ele>
        <time>2012-12-16T08:50:29Z</time>
      </trkpt>
      <trkpt lat="48.77272" lon="2.15262">
        <ele>162.6</ele>
        <time>2012-12-16T08:50:34Z</time>
      </trkpt>
      <trkpt lat="48.77272" lon="2.15262">
        <ele>162.6</ele>
        <time>2012-12-16T08:50:39Z</time>
      </trkpt>
      <trkpt lat="48.77272" lon="2.15268">
        <ele>162.5</ele>
        <time>2012-12-16T08:50:44Z</time>
      </trkpt>
      <trkpt lat="48.77273" lon="2.15276">
        <ele>163.1</ele>
        <time>2012-12-16T08:50:49Z</time>
      </trkpt>
      <trkpt lat="48.77276" lon="2.15283">
        <ele>163.5</ele>
        <time>2012-12-16T08:50:54Z</time>
      </trkpt>
      <trkpt lat="48.7728" lon="2.15289">
        <ele>164.3</ele>
        <time>2012-12-16T08:50:59Z</time>
      </trkpt>
      <trkpt lat="48.77282" lon="2.15291">
        <ele>165</ele>
        <time>2012-12-16T08:51:03Z</time>
      </trkpt>
      <trkpt lat="48.77286" lon="2.15297">
        <ele>166.6</ele>
        <time>2012-12-16T08:51:08Z</time>
      </trkpt>
      <trkpt lat="48.7729" lon="2.15301">
        <ele>165.6</ele>
        <time>2012-12-16T08:51:13Z</time>
      </trkpt>
      <trkpt lat="48.77295" lon="2.15305">
        <ele>165.3</ele>
        <time>2012-12-16T08:51:17Z</time>
      </trkpt>
      <trkpt lat="48.77296" lon="2.15307">
        <ele>165.6</ele>
        <time>2012-12-16T08:51:18Z</time>
      </trkpt>
      <trkpt lat="48.77306" lon="2.15314">
        <ele>165.8</ele>
        <time>2012-12-16T08:51:27Z</time>
      </trkpt>
      <trkpt lat="48.77308" lon="2.15316">
        <ele>166.1</ele>
        <time>2012-12-16T08:51:32Z</time>
      </trkpt>
      <trkpt lat="48.77311" lon="2.15317">
        <ele>165.6</ele>
        <time>2012-12-16T08:51:37Z</time>
      </trkpt>
      <trkpt lat="48.77317" lon="2.1532">
        <ele>165.6</ele>
        <time>2012-12-16T08:51:42Z</time>
      </trkpt>
      <trkpt lat="48.77319" lon="2.1532">
        <ele>166.3</ele>
        <time>2012-12-16T08:51:47Z</time>
      </trkpt>
      <trkpt lat="48.77324" lon="2.15326">
        <ele>166.6</ele>
        <time>2012-12-16T08:51:52Z</time>
      </trkpt>
      <trkpt lat="48.7733" lon="2.15333">
        <ele>166.8</ele>
        <time>2012-12-16T08:51:57Z</time>
      </trkpt>
      <trkpt lat="48.77334" lon="2.15337">
        <ele>166.6</ele>
        <time>2012-12-16T08:52:01Z</time>
      </trkpt>
      <trkpt lat="48.77341" lon="2.15345">
        <ele>165.8</ele>
        <time>2012-12-16T08:52:06Z</time>
      </trkpt>
      <trkpt lat="48.77345" lon="2.15348">
        <ele>166.6</ele>
        <time>2012-12-16T08:52:11Z</time>
      </trkpt>
      <trkpt lat="48.77349" lon="2.15355">
        <ele>166.6</ele>
        <time>2012-12-16T08:52:15Z</time>
      </trkpt>
      <trkpt lat="48.77353" lon="2.15363">
        <ele>166.6</ele>
        <time>2012-12-16T08:52:19Z</time>
      </trkpt>
      <trkpt lat="48.77353" lon="2.15365">
        <ele>166.1</ele>
        <time>2012-12-16T08:52:20Z</time>
      </trkpt>
      <trkpt lat="48.77359" lon="2.15372">
        <ele>165.1</ele>
        <time>2012-12-16T08:52:29Z</time>
      </trkpt>
      <trkpt lat="48.77366" lon="2.15377">
        <ele>164.3</ele>
        <time>2012-12-16T08:52:34Z</time>
      </trkpt>
      <trkpt lat="48.77372" lon="2.15382">
        <ele>164.8</ele>
        <time>2012-12-16T08:52:39Z</time>
      </trkpt>
      <trkpt lat="48.77378" lon="2.15386">
        <ele>166</ele>
        <time>2012-12-16T08:52:44Z</time>
      </trkpt>
      <trkpt lat="48.77386" lon="2.15392">
        <ele>167.1</ele>
        <time>2012-12-16T08:52:49Z</time>
      </trkpt>
      <trkpt lat="48.7739" lon="2.154">
        <ele>166.8</ele>
        <time>2012-12-16T08:52:54Z</time>
      </trkpt>
      <trkpt lat="48.77394" lon="2.15407">
        <ele>167.3</ele>
        <time>2012-12-16T08:52:59Z</time>
      </trkpt>
      <trkpt lat="48.77395" lon="2.15409">
        <ele>167.1</ele>
        <time>2012-12-16T08:53:03Z</time>
      </trkpt>
      <trkpt lat="48.77401" lon="2.15415">
        <ele>167.1</ele>
        <time>2012-12-16T08:53:08Z</time>
      </trkpt>
      <trkpt lat="48.77407" lon="2.15423">
        <ele>167.6</ele>
        <time>2012-12-16T08:53:13Z</time>
      </trkpt>
      <trkpt lat="48.77409" lon="2.15427">
        <ele>167.8</ele>
        <time>2012-12-16T08:53:17Z</time>
      </trkpt>
      <trkpt lat="48.77411" lon="2.15438">
        <ele>167.3</ele>
        <time>2012-12-16T08:53:22Z</time>
      </trkpt>
      <trkpt lat="48.77412" lon="2.15439">
        <ele>167.1</ele>
        <time>2012-12-16T08:53:23Z</time>
      </trkpt>
      <trkpt lat="48.77418" lon="2.15447">
        <ele>166</ele>
        <time>2012-12-16T08:53:32Z</time>
      </trkpt>
      <trkpt lat="48.77422" lon="2.15459">
        <ele>165.8</ele>
        <time>2012-12-16T08:53:37Z</time>
      </trkpt>
      <trkpt lat="48.77424" lon="2.15463">
        <ele>165.5</ele>
        <time>2012-12-16T08:53:42Z</time>
      </trkpt>
      <trkpt lat="48.77427" lon="2.15473">
        <ele>164.8</ele>
        <time>2012-12-16T08:53:47Z</time>
      </trkpt>
      <trkpt lat="48.77432" lon="2.15484">
        <ele>164.8</ele>
        <time>2012-12-16T08:53:52Z</time>
      </trkpt>
      <trkpt lat="48.77438" lon="2.15495">
        <ele>164.8</ele>
        <time>2012-12-16T08:53:57Z</time>
      </trkpt>
      <trkpt lat="48.77441" lon="2.15504">
        <ele>164.8</ele>
        <time>2012-12-16T08:54:01Z</time>
      </trkpt>
      <trkpt lat="48.77442" lon="2.15515">
        <ele>164.3</ele>
        <time>2012-12-16T08:54:06Z</time>
      </trkpt>
      <trkpt lat="48.77444" lon="2.15522">
        <ele>165</ele>
        <time>2012-12-16T08:54:11Z</time>
      </trkpt>
      <trkpt lat="48.77446" lon="2.15527">
        <ele>166.3</ele>
        <time>2012-12-16T08:54:15Z</time>
      </trkpt>
      <trkpt lat="48.77449" lon="2.15532">
        <ele>167.1</ele>
        <time>2012-12-16T08:54:19Z</time>
      </trkpt>
      <trkpt lat="48.77454" lon="2.15537">
        <ele>167.1</ele>
        <time>2012-12-16T08:54:24Z</time>
      </trkpt>
      <trkpt lat="48.77455" lon="2.15538">
        <ele>168</ele>
        <time>2012-12-16T08:54:25Z</time>
      </trkpt>
      <trkpt lat="48.77464" lon="2.15545">
        <ele>168.8</ele>
        <time>2012-12-16T08:54:34Z</time>
      </trkpt>
      <trkpt lat="48.77471" lon="2.15544">
        <ele>168.3</ele>
        <time>2012-12-16T08:54:39Z</time>
      </trkpt>
      <trkpt lat="48.77479" lon="2.15545">
        <ele>168.3</ele>
        <time>2012-12-16T08:54:44Z</time>
      </trkpt>
      <trkpt lat="48.77485" lon="2.15542">
        <ele>167.1</ele>
        <time>2012-12-16T08:54:49Z</time>
      </trkpt>
      <trkpt lat="48.77492" lon="2.1554">
        <ele>165.8</ele>
        <time>2012-12-16T08:54:54Z</time>
      </trkpt>
      <trkpt lat="48.775" lon="2.15538">
        <ele>165.8</ele>
        <time>2012-12-16T08:54:59Z</time>
      </trkpt>
      <trkpt lat="48.77507" lon="2.15539">
        <ele>167</ele>
        <time>2012-12-16T08:55:03Z</time>
      </trkpt>
      <trkpt lat="48.77518" lon="2.15541">
        <ele>167.8</ele>
        <time>2012-12-16T08:55:08Z</time>
      </trkpt>
      <trkpt lat="48.77523" lon="2.1554">
        <ele>168.6</ele>
        <time>2012-12-16T08:55:13Z</time>
      </trkpt>
      <trkpt lat="48.77526" lon="2.15539">
        <ele>168.1</ele>
        <time>2012-12-16T08:55:17Z</time>
      </trkpt>
      <trkpt lat="48.77536" lon="2.1554">
        <ele>168.3</ele>
        <time>2012-12-16T08:55:22Z</time>
      </trkpt>
      <trkpt lat="48.77543" lon="2.15543">
        <ele>167.8</ele>
        <time>2012-12-16T08:55:27Z</time>
      </trkpt>
      <trkpt lat="48.77544" lon="2.15544">
        <ele>168.1</ele>
        <time>2012-12-16T08:55:28Z</time>
      </trkpt>
      <trkpt lat="48.77555" lon="2.15543">
        <ele>168.3</ele>
        <time>2012-12-16T08:55:37Z</time>
      </trkpt>
      <trkpt lat="48.7756" lon="2.1554">
        <ele>168.1</ele>
        <time>2012-12-16T08:55:42Z</time>
      </trkpt>
      <trkpt lat="48.77564" lon="2.15544">
        <ele>167.3</ele>
        <time>2012-12-16T08:55:47Z</time>
      </trkpt>
      <trkpt lat="48.77569" lon="2.15547">
        <ele>167.3</ele>
        <time>2012-12-16T08:55:52Z</time>
      </trkpt>
      <trkpt lat="48.77578" lon="2.15553">
        <ele>167.3</ele>
        <time>2012-12-16T08:55:57Z</time>
      </trkpt>
      <trkpt lat="48.77583" lon="2.15556">
        <ele>166.6</ele>
        <time>2012-12-16T08:56:01Z</time>
      </trkpt>
      <trkpt lat="48.77586" lon="2.15557">
        <ele>167.1</ele>
        <time>2012-12-16T08:56:06Z</time>
      </trkpt>
      <trkpt lat="48.77588" lon="2.15559">
        <ele>167</ele>
        <time>2012-12-16T08:56:11Z</time>
      </trkpt>
      <trkpt lat="48.77591" lon="2.15561">
        <ele>167</ele>
        <time>2012-12-16T08:56:15Z</time>
      </trkpt>
      <trkpt lat="48.77592" lon="2.15562">
        <ele>166.6</ele>
        <time>2012-12-16T08:56:19Z</time>
      </trkpt>
      <trkpt lat="48.77595" lon="2.15564">
        <ele>165.6</ele>
        <time>2012-12-16T08:56:24Z</time>
      </trkpt>
      <trkpt lat="48.77601" lon="2.15566">
        <ele>166</ele>
        <time>2012-12-16T08:56:29Z</time>
      </trkpt>
      <trkpt lat="48.77603" lon="2.15565">
        <ele>166.1</ele>
        <time>2012-12-16T08:56:30Z</time>
      </trkpt>
      <trkpt lat="48.77628" lon="2.15573">
        <ele>168.6</ele>
        <time>2012-12-16T08:56:39Z</time>
      </trkpt>
      <trkpt lat="48.77628" lon="2.15573">
        <ele>168.1</ele>
        <time>2012-12-16T08:56:44Z</time>
      </trkpt>
      <trkpt lat="48.7763" lon="2.15573">
        <ele>168.6</ele>
        <time>2012-12-16T08:56:49Z</time>
      </trkpt>
      <trkpt lat="48.77631" lon="2.15574">
        <ele>168.1</ele>
        <time>2012-12-16T08:56:54Z</time>
      </trkpt>
      <trkpt lat="48.77635" lon="2.15578">
        <ele>168</ele>
        <time>2012-12-16T08:56:59Z</time>
      </trkpt>
      <trkpt lat="48.77636" lon="2.15581">
        <ele>168.6</ele>
        <time>2012-12-16T08:57:03Z</time>
      </trkpt>
      <trkpt lat="48.77639" lon="2.15582">
        <ele>168.3</ele>
        <time>2012-12-16T08:57:08Z</time>
      </trkpt>
      <trkpt lat="48.77646" lon="2.15586">
        <ele>169.5</ele>
        <time>2012-12-16T08:57:13Z</time>
      </trkpt>
      <trkpt lat="48.7765" lon="2.15587">
        <ele>169.8</ele>
        <time>2012-12-16T08:57:17Z</time>
      </trkpt>
      <trkpt lat="48.77658" lon="2.15592">
        <ele>169.3</ele>
        <time>2012-12-16T08:57:22Z</time>
      </trkpt>
      <trkpt lat="48.77665" lon="2.15596">
        <ele>169.8</ele>
        <time>2012-12-16T08:57:27Z</time>
      </trkpt>
      <trkpt lat="48.77668" lon="2.15598">
        <ele>170.1</ele>
        <time>2012-12-16T08:57:32Z</time>
      </trkpt>
      <trkpt lat="48.77668" lon="2.15598">
        <ele>170.1</ele>
        <time>2012-12-16T08:57:33Z</time>
      </trkpt>
      <trkpt lat="48.77673" lon="2.156">
        <ele>170.1</ele>
        <time>2012-12-16T08:57:42Z</time>
      </trkpt>
      <trkpt lat="48.7768" lon="2.15606">
        <ele>170.6</ele>
        <time>2012-12-16T08:57:47Z</time>
      </trkpt>
      <trkpt lat="48.77685" lon="2.15612">
        <ele>171</ele>
        <time>2012-12-16T08:57:52Z</time>
      </trkpt>
      <trkpt lat="48.7769" lon="2.15619">
        <ele>170.8</ele>
        <time>2012-12-16T08:57:57Z</time>
      </trkpt>
      <trkpt lat="48.77694" lon="2.1562">
        <ele>171.1</ele>
        <time>2012-12-16T08:58:01Z</time>
      </trkpt>
      <trkpt lat="48.77696" lon="2.15622">
        <ele>171.3</ele>
        <time>2012-12-16T08:58:06Z</time>
      </trkpt>
      <trkpt lat="48.77702" lon="2.15625">
        <ele>170.6</ele>
        <time>2012-12-16T08:58:11Z</time>
      </trkpt>
      <trkpt lat="48.77707" lon="2.15628">
        <ele>170.8</ele>
        <time>2012-12-16T08:58:15Z</time>
      </trkpt>
      <trkpt lat="48.77713" lon="2.15629">
        <ele>171</ele>
        <time>2012-12-16T08:58:19Z</time>
      </trkpt>
      <trkpt lat="48.77714" lon="2.1563">
        <ele>171</ele>
        <time>2012-12-16T08:58:24Z</time>
      </trkpt>
      <trkpt lat="48.7772" lon="2.15633">
        <ele>170.8</ele>
        <time>2012-12-16T08:58:29Z</time>
      </trkpt>
      <trkpt lat="48.77727" lon="2.1564">
        <ele>170</ele>
        <time>2012-12-16T08:58:34Z</time>
      </trkpt>
      <trkpt lat="48.77729" lon="2.15643">
        <ele>170.1</ele>
        <time>2012-12-16T08:58:35Z</time>
      </trkpt>
      <trkpt lat="48.77741" lon="2.15659">
        <ele>171.8</ele>
        <time>2012-12-16T08:58:44Z</time>
      </trkpt>
      <trkpt lat="48.77743" lon="2.1566">
        <ele>171.8</ele>
        <time>2012-12-16T08:58:49Z</time>
      </trkpt>
      <trkpt lat="48.77746" lon="2.15661">
        <ele>171.6</ele>
        <time>2012-12-16T08:58:54Z</time>
      </trkpt>
      <trkpt lat="48.77749" lon="2.15663">
        <ele>170.8</ele>
        <time>2012-12-16T08:58:59Z</time>
      </trkpt>
      <trkpt lat="48.77753" lon="2.15663">
        <ele>171.6</ele>
        <time>2012-12-16T08:59:03Z</time>
      </trkpt>
      <trkpt lat="48.77759" lon="2.15658">
        <ele>172.8</ele>
        <time>2012-12-16T08:59:08Z</time>
      </trkpt>
      <trkpt lat="48.77766" lon="2.15657">
        <ele>172.5</ele>
        <time>2012-12-16T08:59:13Z</time>
      </trkpt>
      <trkpt lat="48.77769" lon="2.15653">
        <ele>172</ele>
        <time>2012-12-16T08:59:17Z</time>
      </trkpt>
      <trkpt lat="48.77775" lon="2.15647">
        <ele>171.6</ele>
        <time>2012-12-16T08:59:22Z</time>
      </trkpt>
      <trkpt lat="48.7778" lon="2.15643">
        <ele>172.1</ele>
        <time>2012-12-16T08:59:27Z</time>
      </trkpt>
      <trkpt lat="48.77785" lon="2.15639">
        <ele>171.8</ele>
        <time>2012-12-16T08:59:32Z</time>
      </trkpt>
      <trkpt lat="48.77792" lon="2.15637">
        <ele>172</ele>
        <time>2012-12-16T08:59:37Z</time>
      </trkpt>
      <trkpt lat="48.77793" lon="2.15636">
        <ele>171.8</ele>
        <time>2012-12-16T08:59:38Z</time>
      </trkpt>
      <trkpt lat="48.77801" lon="2.15629">
        <ele>170.8</ele>
        <time>2012-12-16T08:59:47Z</time>
      </trkpt>
      <trkpt lat="48.77807" lon="2.15629">
        <ele>170.8</ele>
        <time>2012-12-16T08:59:52Z</time>
      </trkpt>
      <trkpt lat="48.77813" lon="2.1563">
        <ele>170.6</ele>
        <time>2012-12-16T08:59:57Z</time>
      </trkpt>
      <trkpt lat="48.77817" lon="2.15629">
        <ele>169.1</ele>
        <time>2012-12-16T09:00:01Z</time>
      </trkpt>
      <trkpt lat="48.77828" lon="2.15632">
        <ele>168.1</ele>
        <time>2012-12-16T09:00:06Z</time>
      </trkpt>
      <trkpt lat="48.77836" lon="2.15633">
        <ele>167.6</ele>
        <time>2012-12-16T09:00:11Z</time>
      </trkpt>
      <trkpt lat="48.77837" lon="2.15633">
        <ele>168.1</ele>
        <time>2012-12-16T09:00:15Z</time>
      </trkpt>
      <trkpt lat="48.77841" lon="2.15634">
        <ele>167.3</ele>
        <time>2012-12-16T09:00:19Z</time>
      </trkpt>
      <trkpt lat="48.77842" lon="2.15633">
        <ele>167.1</ele>
        <time>2012-12-16T09:00:24Z</time>
      </trkpt>
      <trkpt lat="48.7785" lon="2.15632">
        <ele>167.3</ele>
        <time>2012-12-16T09:00:29Z</time>
      </trkpt>
      <trkpt lat="48.77856" lon="2.15629">
        <ele>167.3</ele>
        <time>2012-12-16T09:00:34Z</time>
      </trkpt>
      <trkpt lat="48.77863" lon="2.15625">
        <ele>167.6</ele>
        <time>2012-12-16T09:00:39Z</time>
      </trkpt>
      <trkpt lat="48.77863" lon="2.15625">
        <ele>167.6</ele>
        <time>2012-12-16T09:00:40Z</time>
      </trkpt>
      <trkpt lat="48.77874" lon="2.15627">
        <ele>166.8</ele>
        <time>2012-12-16T09:00:49Z</time>
      </trkpt>
      <trkpt lat="48.77884" lon="2.15628">
        <ele>166.1</ele>
        <time>2012-12-16T09:00:54Z</time>
      </trkpt>
      <trkpt lat="48.77891" lon="2.15633">
        <ele>165.6</ele>
        <time>2012-12-16T09:00:59Z</time>
      </trkpt>
      <trkpt lat="48.77895" lon="2.15636">
        <ele>165.3</ele>
        <time>2012-12-16T09:01:03Z</time>
      </trkpt>
      <trkpt lat="48.77906" lon="2.15646">
        <ele>164.5</ele>
        <time>2012-12-16T09:01:08Z</time>
      </trkpt>
      <trkpt lat="48.77915" lon="2.15651">
        <ele>165.3</ele>
        <time>2012-12-16T09:01:13Z</time>
      </trkpt>
      <trkpt lat="48.7792" lon="2.15657">
        <ele>164</ele>
        <time>2012-12-16T09:01:17Z</time>
      </trkpt>
      <trkpt lat="48.77927" lon="2.15664">
        <ele>164.1</ele>
        <time>2012-12-16T09:01:22Z</time>
      </trkpt>
      <trkpt lat="48.77933" lon="2.15676">
        <ele>163.6</ele>
        <time>2012-12-16T09:01:27Z</time>
      </trkpt>
      <trkpt lat="48.77936" lon="2.15686">
        <ele>163</ele>
        <time>2012-12-16T09:01:32Z</time>
      </trkpt>
      <trkpt lat="48.77937" lon="2.15695">
        <ele>162.3</ele>
        <time>2012-12-16T09:01:37Z</time>
      </trkpt>
      <trkpt lat="48.7794" lon="2.15701">
        <ele>162.1</ele>
        <time>2012-12-16T09:01:42Z</time>
      </trkpt>
      <trkpt lat="48.7794" lon="2.15703">
        <ele>162</ele>
        <time>2012-12-16T09:01:43Z</time>
      </trkpt>
      <trkpt lat="48.77945" lon="2.1572">
        <ele>161.1</ele>
        <time>2012-12-16T09:01:52Z</time>
      </trkpt>
      <trkpt lat="48.77948" lon="2.15727">
        <ele>160.3</ele>
        <time>2012-12-16T09:01:57Z</time>
      </trkpt>
      <trkpt lat="48.7795" lon="2.1573">
        <ele>160.6</ele>
        <time>2012-12-16T09:02:01Z</time>
      </trkpt>
      <trkpt lat="48.77952" lon="2.15732">
        <ele>160.6</ele>
        <time>2012-12-16T09:02:06Z</time>
      </trkpt>
      <trkpt lat="48.77954" lon="2.15732">
        <ele>160.3</ele>
        <time>2012-12-16T09:02:11Z</time>
      </trkpt>
      <trkpt lat="48.77956" lon="2.15732">
        <ele>160.6</ele>
        <time>2012-12-16T09:02:15Z</time>
      </trkpt>
      <trkpt lat="48.77956" lon="2.15732">
        <ele>160.6</ele>
        <time>2012-12-16T09:02:19Z</time>
      </trkpt>
      <trkpt lat="48.77956" lon="2.15732">
        <ele>160.6</ele>
        <time>2012-12-16T09:02:24Z</time>
      </trkpt>
      <trkpt lat="48.77956" lon="2.15732">
        <ele>160.6</ele>
        <time>2012-12-16T09:02:29Z</time>
      </trkpt>
      <trkpt lat="48.77956" lon="2.15732">
        <ele>160.6</ele>
        <time>2012-12-16T09:02:34Z</time>
      </trkpt>
      <trkpt lat="48.77956" lon="2.15732">
        <ele>160.6</ele>
        <time>2012-12-16T09:02:39Z</time>
      </trkpt>
      <trkpt lat="48.77956" lon="2.15732">
        <ele>160.6</ele>
        <time>2012-12-16T09:02:44Z</time>
      </trkpt>
      <trkpt lat="48.77956" lon="2.15732">
        <ele>160.6</ele>
        <time>2012-12-16T09:02:45Z</time>
      </trkpt>
      <trkpt lat="48.77956" lon="2.15732">
        <ele>160.6</ele>
        <time>2012-12-16T09:02:54Z</time>
      </trkpt>
      <trkpt lat="48.77956" lon="2.15732">
        <ele>160.6</ele>
        <time>2012-12-16T09:02:59Z</time>
      </trkpt>
      <trkpt lat="48.77956" lon="2.15732">
        <ele>160.6</ele>
        <time>2012-12-16T09:03:03Z</time>
      </trkpt>
      <trkpt lat="48.77956" lon="2.15732">
        <ele>160.6</ele>
        <time>2012-12-16T09:03:08Z</time>
      </trkpt>
      <trkpt lat="48.77957" lon="2.15733">
        <ele>160.5</ele>
        <time>2012-12-16T09:03:13Z</time>
      </trkpt>
      <trkpt lat="48.77957" lon="2.15733">
        <ele>160.5</ele>
        <time>2012-12-16T09:03:17Z</time>
      </trkpt>
      <trkpt lat="48.77957" lon="2.15733">
        <ele>160.5</ele>
        <time>2012-12-16T09:03:22Z</time>
      </trkpt>
      <trkpt lat="48.77957" lon="2.15733">
        <ele>160.5</ele>
        <time>2012-12-16T09:03:27Z</time>
      </trkpt>
      <trkpt lat="48.77957" lon="2.15733">
        <ele>160.5</ele>
        <time>2012-12-16T09:03:32Z</time>
      </trkpt>
      <trkpt lat="48.77957" lon="2.15733">
        <ele>160.3</ele>
        <time>2012-12-16T09:03:37Z</time>
      </trkpt>
      <trkpt lat="48.77957" lon="2.15733">
        <ele>160.3</ele>
        <time>2012-12-16T09:03:42Z</time>
      </trkpt>
      <trkpt lat="48.77957" lon="2.15733">
        <ele>160.3</ele>
        <time>2012-12-16T09:03:47Z</time>
      </trkpt>
      <trkpt lat="48.77957" lon="2.15733">
        <ele>160.3</ele>
        <time>2012-12-16T09:03:48Z</time>
      </trkpt>
      <trkpt lat="48.77957" lon="2.15733">
        <ele>160.3</ele>
        <time>2012-12-16T09:03:57Z</time>
      </trkpt>
      <trkpt lat="48.77957" lon="2.15733">
        <ele>160.3</ele>
        <time>2012-12-16T09:04:01Z</time>
      </trkpt>
      <trkpt lat="48.77957" lon="2.15733">
        <ele>160.3</ele>
        <time>2012-12-16T09:04:06Z</time>
      </trkpt>
      <trkpt lat="48.77957" lon="2.15733">
        <ele>160.1</ele>
        <time>2012-12-16T09:04:11Z</time>
      </trkpt>
      <trkpt lat="48.77958" lon="2.15732">
        <ele>160.1</ele>
        <time>2012-12-16T09:04:15Z</time>
      </trkpt>
      <trkpt lat="48.77958" lon="2.15732">
        <ele>160.1</ele>
        <time>2012-12-16T09:04:19Z</time>
      </trkpt>
      <trkpt lat="48.77958" lon="2.15732">
        <ele>160.1</ele>
        <time>2012-12-16T09:04:24Z</time>
      </trkpt>
      <trkpt lat="48.77958" lon="2.15732">
        <ele>160.1</ele>
        <time>2012-12-16T09:04:29Z</time>
      </trkpt>
      <trkpt lat="48.77958" lon="2.15732">
        <ele>160.1</ele>
        <time>2012-12-16T09:04:34Z</time>
      </trkpt>
      <trkpt lat="48.77958" lon="2.15733">
        <ele>160.1</ele>
        <time>2012-12-16T09:04:39Z</time>
      </trkpt>
      <trkpt lat="48.77958" lon="2.15733">
        <ele>160.1</ele>
        <time>2012-12-16T09:04:44Z</time>
      </trkpt>
      <trkpt lat="48.77958" lon="2.15733">
        <ele>160.1</ele>
        <time>2012-12-16T09:04:49Z</time>
      </trkpt>
      <trkpt lat="48.77958" lon="2.15733">
        <ele>160.1</ele>
        <time>2012-12-16T09:04:50Z</time>
      </trkpt>
      <trkpt lat="48.77958" lon="2.15732">
        <ele>160.3</ele>
        <time>2012-12-16T09:04:59Z</time>
      </trkpt>
      <trkpt lat="48.77958" lon="2.15732">
        <ele>160.3</ele>
        <time>2012-12-16T09:05:03Z</time>
      </trkpt>
      <trkpt lat="48.77958" lon="2.15732">
        <ele>160.3</ele>
        <time>2012-12-16T09:05:08Z</time>
      </trkpt>
      <trkpt lat="48.77959" lon="2.15733">
        <ele>160.1</ele>
        <time>2012-12-16T09:05:13Z</time>
      </trkpt>
      <trkpt lat="48.77959" lon="2.15733">
        <ele>160.1</ele>
        <time>2012-12-16T09:05:17Z</time>
      </trkpt>
      <trkpt lat="48.77959" lon="2.15733">
        <ele>160.1</ele>
        <time>2012-12-16T09:05:22Z</time>
      </trkpt>
      <trkpt lat="48.77959" lon="2.15733">
        <ele>159.6</ele>
        <time>2012-12-16T09:05:27Z</time>
      </trkpt>
      <trkpt lat="48.77959" lon="2.15733">
        <ele>159.6</ele>
        <time>2012-12-16T09:05:32Z</time>
      </trkpt>
      <trkpt lat="48.77959" lon="2.15733">
        <ele>159.6</ele>
        <time>2012-12-16T09:05:37Z</time>
      </trkpt>
      <trkpt lat="48.77959" lon="2.15733">
        <ele>160</ele>
        <time>2012-12-16T09:05:42Z</time>
      </trkpt>
      <trkpt lat="48.77959" lon="2.15733">
        <ele>160</ele>
        <time>2012-12-16T09:05:47Z</time>
      </trkpt>
      <trkpt lat="48.77959" lon="2.15733">
        <ele>160</ele>
        <time>2012-12-16T09:05:52Z</time>
      </trkpt>
      <trkpt lat="48.77959" lon="2.15733">
        <ele>160</ele>
        <time>2012-12-16T09:05:53Z</time>
      </trkpt>
      <trkpt lat="48.77959" lon="2.15733">
        <ele>160.1</ele>
        <time>2012-12-16T09:06:01Z</time>
      </trkpt>
      <trkpt lat="48.77959" lon="2.15733">
        <ele>159.6</ele>
        <time>2012-12-16T09:06:06Z</time>
      </trkpt>
      <trkpt lat="48.77962" lon="2.15733">
        <ele>159.5</ele>
        <time>2012-12-16T09:06:11Z</time>
      </trkpt>
      <trkpt lat="48.77966" lon="2.15734">
        <ele>159.8</ele>
        <time>2012-12-16T09:06:15Z</time>
      </trkpt>
      <trkpt lat="48.77969" lon="2.15734">
        <ele>159.1</ele>
        <time>2012-12-16T09:06:19Z</time>
      </trkpt>
      <trkpt lat="48.77971" lon="2.15733">
        <ele>159.1</ele>
        <time>2012-12-16T09:06:24Z</time>
      </trkpt>
      <trkpt lat="48.77975" lon="2.15731">
        <ele>157.8</ele>
        <time>2012-12-16T09:06:29Z</time>
      </trkpt>
      <trkpt lat="48.77984" lon="2.15731">
        <ele>158.6</ele>
        <time>2012-12-16T09:06:34Z</time>
      </trkpt>
      <trkpt lat="48.77987" lon="2.15732">
        <ele>159</ele>
        <time>2012-12-16T09:06:39Z</time>
      </trkpt>
      <trkpt lat="48.77993" lon="2.15731">
        <ele>158.3</ele>
        <time>2012-12-16T09:06:44Z</time>
      </trkpt>
      <trkpt lat="48.77997" lon="2.15732">
        <ele>159.3</ele>
        <time>2012-12-16T09:06:49Z</time>
      </trkpt>
      <trkpt lat="48.78005" lon="2.15736">
        <ele>159.1</ele>
        <time>2012-12-16T09:06:54Z</time>
      </trkpt>
      <trkpt lat="48.78005" lon="2.15737">
        <ele>159</ele>
        <time>2012-12-16T09:06:55Z</time>
      </trkpt>
      <trkpt lat="48.7802" lon="2.15744">
        <ele>160.1</ele>
        <time>2012-12-16T09:07:03Z</time>
      </trkpt>
      <trkpt lat="48.78022" lon="2.15745">
        <ele>160</ele>
        <time>2012-12-16T09:07:08Z</time>
      </trkpt>
      <trkpt lat="48.78032" lon="2.15749">
        <ele>159.3</ele>
        <time>2012-12-16T09:07:13Z</time>
      </trkpt>
      <trkpt lat="48.78038" lon="2.15751">
        <ele>159.1</ele>
        <time>2012-12-16T09:07:17Z</time>
      </trkpt>
      <trkpt lat="48.78045" lon="2.15754">
        <ele>159.1</ele>
        <time>2012-12-16T09:07:22Z</time>
      </trkpt>
      <trkpt lat="48.78052" lon="2.15759">
        <ele>159.3</ele>
        <time>2012-12-16T09:07:27Z</time>
      </trkpt>
      <trkpt lat="48.78059" lon="2.15765">
        <ele>157.5</ele>
        <time>2012-12-16T09:07:32Z</time>
      </trkpt>
      <trkpt lat="48.78063" lon="2.15768">
        <ele>157.3</ele>
        <time>2012-12-16T09:07:37Z</time>
      </trkpt>
      <trkpt lat="48.78064" lon="2.15768">
        <ele>157.8</ele>
        <time>2012-12-16T09:07:42Z</time>
      </trkpt>
      <trkpt lat="48.78064" lon="2.15768">
        <ele>157.8</ele>
        <time>2012-12-16T09:07:47Z</time>
      </trkpt>
      <trkpt lat="48.78068" lon="2.15773">
        <ele>157.1</ele>
        <time>2012-12-16T09:07:52Z</time>
      </trkpt>
      <trkpt lat="48.78066" lon="2.15781">
        <ele>156.8</ele>
        <time>2012-12-16T09:07:57Z</time>
      </trkpt>
      <trkpt lat="48.78066" lon="2.15781">
        <ele>156.8</ele>
        <time>2012-12-16T09:07:58Z</time>
      </trkpt>
      <trkpt lat="48.78064" lon="2.15788">
        <ele>156.1</ele>
        <time>2012-12-16T09:08:06Z</time>
      </trkpt>
      <trkpt lat="48.78062" lon="2.15789">
        <ele>156.5</ele>
        <time>2012-12-16T09:08:11Z</time>
      </trkpt>
      <trkpt lat="48.78059" lon="2.15791">
        <ele>157.5</ele>
        <time>2012-12-16T09:08:15Z</time>
      </trkpt>
      <trkpt lat="48.78058" lon="2.15792">
        <ele>157.1</ele>
        <time>2012-12-16T09:08:19Z</time>
      </trkpt>
      <trkpt lat="48.78054" lon="2.15797">
        <ele>156.5</ele>
        <time>2012-12-16T09:08:24Z</time>
      </trkpt>
      <trkpt lat="48.78052" lon="2.15801">
        <ele>157.1</ele>
        <time>2012-12-16T09:08:29Z</time>
      </trkpt>
      <trkpt lat="48.78052" lon="2.15801">
        <ele>157.1</ele>
        <time>2012-12-16T09:08:34Z</time>
      </trkpt>
      <trkpt lat="48.78049" lon="2.15804">
        <ele>157.1</ele>
        <time>2012-12-16T09:08:39Z</time>
      </trkpt>
      <trkpt lat="48.78046" lon="2.15807">
        <ele>156.6</ele>
        <time>2012-12-16T09:08:44Z</time>
      </trkpt>
      <trkpt lat="48.78044" lon="2.1581">
        <ele>157.1</ele>
        <time>2012-12-16T09:08:49Z</time>
      </trkpt>
      <trkpt lat="48.78044" lon="2.15811">
        <ele>157</ele>
        <time>2012-12-16T09:08:54Z</time>
      </trkpt>
      <trkpt lat="48.78039" lon="2.15818">
        <ele>158.6</ele>
        <time>2012-12-16T09:08:59Z</time>
      </trkpt>
      <trkpt lat="48.78039" lon="2.15818">
        <ele>158.6</ele>
        <time>2012-12-16T09:09:00Z</time>
      </trkpt>
      <trkpt lat="48.78037" lon="2.15823">
        <ele>159.6</ele>
        <time>2012-12-16T09:09:08Z</time>
      </trkpt>
      <trkpt lat="48.7803" lon="2.1583">
        <ele>159.5</ele>
        <time>2012-12-16T09:09:13Z</time>
      </trkpt>
      <trkpt lat="48.78027" lon="2.15834">
        <ele>160.1</ele>
        <time>2012-12-16T09:09:17Z</time>
      </trkpt>
      <trkpt lat="48.78024" lon="2.15838">
        <ele>160.3</ele>
        <time>2012-12-16T09:09:22Z</time>
      </trkpt>
      <trkpt lat="48.78022" lon="2.1584">
        <ele>160</ele>
        <time>2012-12-16T09:09:27Z</time>
      </trkpt>
      <trkpt lat="48.78016" lon="2.15845">
        <ele>162.5</ele>
        <time>2012-12-16T09:09:32Z</time>
      </trkpt>
      <trkpt lat="48.78011" lon="2.1585">
        <ele>162.8</ele>
        <time>2012-12-16T09:09:37Z</time>
      </trkpt>
      <trkpt lat="48.78005" lon="2.15856">
        <ele>162.5</ele>
        <time>2012-12-16T09:09:42Z</time>
      </trkpt>
      <trkpt lat="48.78001" lon="2.15862">
        <ele>163</ele>
        <time>2012-12-16T09:09:47Z</time>
      </trkpt>
      <trkpt lat="48.77997" lon="2.15868">
        <ele>163.1</ele>
        <time>2012-12-16T09:09:52Z</time>
      </trkpt>
      <trkpt lat="48.77996" lon="2.15869">
        <ele>163.3</ele>
        <time>2012-12-16T09:09:57Z</time>
      </trkpt>
      <trkpt lat="48.77994" lon="2.15872">
        <ele>163.6</ele>
        <time>2012-12-16T09:10:01Z</time>
      </trkpt>
      <trkpt lat="48.77994" lon="2.15873">
        <ele>164</ele>
        <time>2012-12-16T09:10:02Z</time>
      </trkpt>
      <trkpt lat="48.77983" lon="2.15888">
        <ele>165</ele>
        <time>2012-12-16T09:10:11Z</time>
      </trkpt>
      <trkpt lat="48.7798" lon="2.15891">
        <ele>164.8</ele>
        <time>2012-12-16T09:10:15Z</time>
      </trkpt>
      <trkpt lat="48.77975" lon="2.15898">
        <ele>166.5</ele>
        <time>2012-12-16T09:10:19Z</time>
      </trkpt>
      <trkpt lat="48.77974" lon="2.15899">
        <ele>166.1</ele>
        <time>2012-12-16T09:10:24Z</time>
      </trkpt>
      <trkpt lat="48.7797" lon="2.15904">
        <ele>165.8</ele>
        <time>2012-12-16T09:10:29Z</time>
      </trkpt>
      <trkpt lat="48.77966" lon="2.15912">
        <ele>165.1</ele>
        <time>2012-12-16T09:10:34Z</time>
      </trkpt>
      <trkpt lat="48.77964" lon="2.15918">
        <ele>167.3</ele>
        <time>2012-12-16T09:10:39Z</time>
      </trkpt>
      <trkpt lat="48.77962" lon="2.15927">
        <ele>168.8</ele>
        <time>2012-12-16T09:10:44Z</time>
      </trkpt>
      <trkpt lat="48.77961" lon="2.15932">
        <ele>170.3</ele>
        <time>2012-12-16T09:10:49Z</time>
      </trkpt>
      <trkpt lat="48.77959" lon="2.15937">
        <ele>171.5</ele>
        <time>2012-12-16T09:10:54Z</time>
      </trkpt>
      <trkpt lat="48.77957" lon="2.15944">
        <ele>171.8</ele>
        <time>2012-12-16T09:10:59Z</time>
      </trkpt>
      <trkpt lat="48.77957" lon="2.15947">
        <ele>170.3</ele>
        <time>2012-12-16T09:11:03Z</time>
      </trkpt>
      <trkpt lat="48.77957" lon="2.15947">
        <ele>170.3</ele>
        <time>2012-12-16T09:11:04Z</time>
      </trkpt>
      <trkpt lat="48.77957" lon="2.15947">
        <ele>170.3</ele>
        <time>2012-12-16T09:11:13Z</time>
      </trkpt>
      <trkpt lat="48.77957" lon="2.15947">
        <ele>170.3</ele>
        <time>2012-12-16T09:11:17Z</time>
      </trkpt>
      <trkpt lat="48.77957" lon="2.15947">
        <ele>170.3</ele>
        <time>2012-12-16T09:11:22Z</time>
      </trkpt>
      <trkpt lat="48.77957" lon="2.15947">
        <ele>170.3</ele>
        <time>2012-12-16T09:11:27Z</time>
      </trkpt>
      <trkpt lat="48.77957" lon="2.15947">
        <ele>170.3</ele>
        <time>2012-12-16T09:11:32Z</time>
      </trkpt>
      <trkpt lat="48.77957" lon="2.15947">
        <ele>170.3</ele>
        <time>2012-12-16T09:11:37Z</time>
      </trkpt>
      <trkpt lat="48.77957" lon="2.15947">
        <ele>170.3</ele>
        <time>2012-12-16T09:11:42Z</time>
      </trkpt>
      <trkpt lat="48.77957" lon="2.15947">
        <ele>170.3</ele>
        <time>2012-12-16T09:11:47Z</time>
      </trkpt>
      <trkpt lat="48.77957" lon="2.15947">
        <ele>170.3</ele>
        <time>2012-12-16T09:11:52Z</time>
      </trkpt>
      <trkpt lat="48.77957" lon="2.15947">
        <ele>170.3</ele>
        <time>2012-12-16T09:11:57Z</time>
      </trkpt>
      <trkpt lat="48.77957" lon="2.15947">
        <ele>170.3</ele>
        <time>2012-12-16T09:12:01Z</time>
      </trkpt>
      <trkpt lat="48.77957" lon="2.15947">
        <ele>170.3</ele>
        <time>2012-12-16T09:12:06Z</time>
      </trkpt>
      <trkpt lat="48.77957" lon="2.15947">
        <ele>170.3</ele>
        <time>2012-12-16T09:12:07Z</time>
      </trkpt>
      <trkpt lat="48.77958" lon="2.15948">
        <ele>171.5</ele>
        <time>2012-12-16T09:12:15Z</time>
      </trkpt>
      <trkpt lat="48.77958" lon="2.15948">
        <ele>171.5</ele>
        <time>2012-12-16T09:12:19Z</time>
      </trkpt>
      <trkpt lat="48.77958" lon="2.15948">
        <ele>171.1</ele>
        <time>2012-12-16T09:12:24Z</time>
      </trkpt>
      <trkpt lat="48.77957" lon="2.15952">
        <ele>170</ele>
        <time>2012-12-16T09:12:29Z</time>
      </trkpt>
      <trkpt lat="48.77956" lon="2.15963">
        <ele>170</ele>
        <time>2012-12-16T09:12:34Z</time>
      </trkpt>
      <trkpt lat="48.77954" lon="2.15971">
        <ele>170.8</ele>
        <time>2012-12-16T09:12:39Z</time>
      </trkpt>
      <trkpt lat="48.77952" lon="2.15981">
        <ele>168.8</ele>
        <time>2012-12-16T09:12:44Z</time>
      </trkpt>
      <trkpt lat="48.77949" lon="2.15994">
        <ele>169.1</ele>
        <time>2012-12-16T09:12:49Z</time>
      </trkpt>
      <trkpt lat="48.77946" lon="2.16005">
        <ele>169.5</ele>
        <time>2012-12-16T09:12:54Z</time>
      </trkpt>
      <trkpt lat="48.77943" lon="2.16017">
        <ele>168.6</ele>
        <time>2012-12-16T09:12:59Z</time>
      </trkpt>
      <trkpt lat="48.77942" lon="2.16026">
        <ele>168.3</ele>
        <time>2012-12-16T09:13:03Z</time>
      </trkpt>
      <trkpt lat="48.7794" lon="2.16038">
        <ele>170.3</ele>
        <time>2012-12-16T09:13:08Z</time>
      </trkpt>
      <trkpt lat="48.77939" lon="2.1604">
        <ele>170.5</ele>
        <time>2012-12-16T09:13:09Z</time>
      </trkpt>
      <trkpt lat="48.77937" lon="2.1606">
        <ele>172.8</ele>
        <time>2012-12-16T09:13:17Z</time>
      </trkpt>
      <trkpt lat="48.77936" lon="2.16072">
        <ele>173.3</ele>
        <time>2012-12-16T09:13:22Z</time>
      </trkpt>
      <trkpt lat="48.77935" lon="2.16085">
        <ele>173.1</ele>
        <time>2012-12-16T09:13:27Z</time>
      </trkpt>
      <trkpt lat="48.77934" lon="2.161">
        <ele>172.6</ele>
        <time>2012-12-16T09:13:32Z</time>
      </trkpt>
      <trkpt lat="48.77932" lon="2.16113">
        <ele>173.8</ele>
        <time>2012-12-16T09:13:37Z</time>
      </trkpt>
      <trkpt lat="48.7793" lon="2.16122">
        <ele>173.6</ele>
        <time>2012-12-16T09:13:42Z</time>
      </trkpt>
      <trkpt lat="48.77928" lon="2.16133">
        <ele>174.6</ele>
        <time>2012-12-16T09:13:47Z</time>
      </trkpt>
      <trkpt lat="48.77927" lon="2.16139">
        <ele>175.5</ele>
        <time>2012-12-16T09:13:52Z</time>
      </trkpt>
      <trkpt lat="48.77924" lon="2.16154">
        <ele>176</ele>
        <time>2012-12-16T09:13:57Z</time>
      </trkpt>
      <trkpt lat="48.77922" lon="2.16163">
        <ele>176.3</ele>
        <time>2012-12-16T09:14:01Z</time>
      </trkpt>
      <trkpt lat="48.7792" lon="2.16179">
        <ele>176.3</ele>
        <time>2012-12-16T09:14:06Z</time>
      </trkpt>
      <trkpt lat="48.77915" lon="2.16196">
        <ele>177.6</ele>
        <time>2012-12-16T09:14:11Z</time>
      </trkpt>
      <trkpt lat="48.77915" lon="2.16198">
        <ele>178.1</ele>
        <time>2012-12-16T09:14:12Z</time>
      </trkpt>
      <trkpt lat="48.77913" lon="2.16209">
        <ele>177.8</ele>
        <time>2012-12-16T09:14:19Z</time>
      </trkpt>
      <trkpt lat="48.77911" lon="2.16222">
        <ele>177.8</ele>
        <time>2012-12-16T09:14:24Z</time>
      </trkpt>
      <trkpt lat="48.7791" lon="2.16234">
        <ele>178.1</ele>
        <time>2012-12-16T09:14:29Z</time>
      </trkpt>
      <trkpt lat="48.77908" lon="2.1624">
        <ele>178.3</ele>
        <time>2012-12-16T09:14:34Z</time>
      </trkpt>
      <trkpt lat="48.77906" lon="2.16248">
        <ele>178.5</ele>
        <time>2012-12-16T09:14:39Z</time>
      </trkpt>
      <trkpt lat="48.77906" lon="2.16257">
        <ele>176.8</ele>
        <time>2012-12-16T09:14:44Z</time>
      </trkpt>
      <trkpt lat="48.77904" lon="2.16268">
        <ele>176.6</ele>
        <time>2012-12-16T09:14:49Z</time>
      </trkpt>
      <trkpt lat="48.77903" lon="2.16273">
        <ele>176.8</ele>
        <time>2012-12-16T09:14:54Z</time>
      </trkpt>
      <trkpt lat="48.77902" lon="2.16282">
        <ele>177.6</ele>
        <time>2012-12-16T09:14:59Z</time>
      </trkpt>
      <trkpt lat="48.779" lon="2.16294">
        <ele>178.6</ele>
        <time>2012-12-16T09:15:03Z</time>
      </trkpt>
      <trkpt lat="48.77897" lon="2.16308">
        <ele>179.8</ele>
        <time>2012-12-16T09:15:08Z</time>
      </trkpt>
      <trkpt lat="48.77894" lon="2.16324">
        <ele>181.1</ele>
        <time>2012-12-16T09:15:13Z</time>
      </trkpt>
      <trkpt lat="48.77894" lon="2.16328">
        <ele>181.6</ele>
        <time>2012-12-16T09:15:14Z</time>
      </trkpt>
      <trkpt lat="48.77891" lon="2.16353">
        <ele>183</ele>
        <time>2012-12-16T09:15:22Z</time>
      </trkpt>
      <trkpt lat="48.77887" lon="2.16366">
        <ele>184.6</ele>
        <time>2012-12-16T09:15:27Z</time>
      </trkpt>
      <trkpt lat="48.77883" lon="2.16379">
        <ele>183.5</ele>
        <time>2012-12-16T09:15:32Z</time>
      </trkpt>
      <trkpt lat="48.77879" lon="2.16391">
        <ele>185.1</ele>
        <time>2012-12-16T09:15:37Z</time>
      </trkpt>
      <trkpt lat="48.77876" lon="2.16402">
        <ele>185</ele>
        <time>2012-12-16T09:15:42Z</time>
      </trkpt>
      <trkpt lat="48.77873" lon="2.16411">
        <ele>185.5</ele>
        <time>2012-12-16T09:15:47Z</time>
      </trkpt>
      <trkpt lat="48.7787" lon="2.16422">
        <ele>184.6</ele>
        <time>2012-12-16T09:15:52Z</time>
      </trkpt>
      <trkpt lat="48.77868" lon="2.16428">
        <ele>183.1</ele>
        <time>2012-12-16T09:15:57Z</time>
      </trkpt>
      <trkpt lat="48.7787" lon="2.16434">
        <ele>182.8</ele>
        <time>2012-12-16T09:16:01Z</time>
      </trkpt>
      <trkpt lat="48.77873" lon="2.16441">
        <ele>182.6</ele>
        <time>2012-12-16T09:16:06Z</time>
      </trkpt>
      <trkpt lat="48.7788" lon="2.16445">
        <ele>182.3</ele>
        <time>2012-12-16T09:16:11Z</time>
      </trkpt>
      <trkpt lat="48.77885" lon="2.16447">
        <ele>182.1</ele>
        <time>2012-12-16T09:16:15Z</time>
      </trkpt>
      <trkpt lat="48.77887" lon="2.16447">
        <ele>182.1</ele>
        <time>2012-12-16T09:16:16Z</time>
      </trkpt>
      <trkpt lat="48.77899" lon="2.16452">
        <ele>180.8</ele>
        <time>2012-12-16T09:16:24Z</time>
      </trkpt>
      <trkpt lat="48.77907" lon="2.16454">
        <ele>180.1</ele>
        <time>2012-12-16T09:16:29Z</time>
      </trkpt>
      <trkpt lat="48.77914" lon="2.16458">
        <ele>181.3</ele>
        <time>2012-12-16T09:16:34Z</time>
      </trkpt>
      <trkpt lat="48.77921" lon="2.16462">
        <ele>182.5</ele>
        <time>2012-12-16T09:16:39Z</time>
      </trkpt>
      <trkpt lat="48.77928" lon="2.16466">
        <ele>182.6</ele>
        <time>2012-12-16T09:16:44Z</time>
      </trkpt>
      <trkpt lat="48.77929" lon="2.16467">
        <ele>183.1</ele>
        <time>2012-12-16T09:16:49Z</time>
      </trkpt>
      <trkpt lat="48.7793" lon="2.16471">
        <ele>183.3</ele>
        <time>2012-12-16T09:16:54Z</time>
      </trkpt>
      <trkpt lat="48.77933" lon="2.1648">
        <ele>183.3</ele>
        <time>2012-12-16T09:16:59Z</time>
      </trkpt>
      <trkpt lat="48.77933" lon="2.16487">
        <ele>183.8</ele>
        <time>2012-12-16T09:17:03Z</time>
      </trkpt>
      <trkpt lat="48.77934" lon="2.16499">
        <ele>183.6</ele>
        <time>2012-12-16T09:17:08Z</time>
      </trkpt>
      <trkpt lat="48.77934" lon="2.16507">
        <ele>184.1</ele>
        <time>2012-12-16T09:17:13Z</time>
      </trkpt>
      <trkpt lat="48.77934" lon="2.1651">
        <ele>183.5</ele>
        <time>2012-12-16T09:17:17Z</time>
      </trkpt>
      <trkpt lat="48.77934" lon="2.16511">
        <ele>183.6</ele>
        <time>2012-12-16T09:17:18Z</time>
      </trkpt>
      <trkpt lat="48.77932" lon="2.16528">
        <ele>182.1</ele>
        <time>2012-12-16T09:17:27Z</time>
      </trkpt>
      <trkpt lat="48.77933" lon="2.16537">
        <ele>179.6</ele>
        <time>2012-12-16T09:17:32Z</time>
      </trkpt>
      <trkpt lat="48.77934" lon="2.16545">
        <ele>178.8</ele>
        <time>2012-12-16T09:17:37Z</time>
      </trkpt>
      <trkpt lat="48.77938" lon="2.16549">
        <ele>178.3</ele>
        <time>2012-12-16T09:17:42Z</time>
      </trkpt>
      <trkpt lat="48.77939" lon="2.1655">
        <ele>177.3</ele>
        <time>2012-12-16T09:17:47Z</time>
      </trkpt>
      <trkpt lat="48.77944" lon="2.16553">
        <ele>177</ele>
        <time>2012-12-16T09:17:52Z</time>
      </trkpt>
      <trkpt lat="48.77948" lon="2.16561">
        <ele>177.1</ele>
        <time>2012-12-16T09:17:57Z</time>
      </trkpt>
      <trkpt lat="48.7795" lon="2.16562">
        <ele>177.1</ele>
        <time>2012-12-16T09:18:01Z</time>
      </trkpt>
      <trkpt lat="48.7795" lon="2.16565">
        <ele>177.3</ele>
        <time>2012-12-16T09:18:06Z</time>
      </trkpt>
      <trkpt lat="48.77952" lon="2.16566">
        <ele>178.1</ele>
        <time>2012-12-16T09:18:11Z</time>
      </trkpt>
      <trkpt lat="48.77955" lon="2.16569">
        <ele>178</ele>
        <time>2012-12-16T09:18:15Z</time>
      </trkpt>
      <trkpt lat="48.77955" lon="2.16569">
        <ele>178</ele>
        <time>2012-12-16T09:18:19Z</time>
      </trkpt>
      <trkpt lat="48.77955" lon="2.16569">
        <ele>178</ele>
        <time>2012-12-16T09:18:20Z</time>
      </trkpt>
      <trkpt lat="48.77956" lon="2.1657">
        <ele>177.3</ele>
        <time>2012-12-16T09:18:29Z</time>
      </trkpt>
      <trkpt lat="48.77956" lon="2.1657">
        <ele>177.3</ele>
        <time>2012-12-16T09:18:34Z</time>
      </trkpt>
      <trkpt lat="48.77956" lon="2.16571">
        <ele>177.3</ele>
        <time>2012-12-16T09:18:39Z</time>
      </trkpt>
      <trkpt lat="48.77956" lon="2.16571">
        <ele>177.3</ele>
        <time>2012-12-16T09:18:44Z</time>
      </trkpt>
      <trkpt lat="48.77956" lon="2.16571">
        <ele>177.3</ele>
        <time>2012-12-16T09:18:49Z</time>
      </trkpt>
      <trkpt lat="48.77956" lon="2.16571">
        <ele>177.3</ele>
        <time>2012-12-16T09:18:54Z</time>
      </trkpt>
      <trkpt lat="48.77956" lon="2.16571">
        <ele>177.3</ele>
        <time>2012-12-16T09:18:59Z</time>
      </trkpt>
      <trkpt lat="48.77956" lon="2.16571">
        <ele>177.3</ele>
        <time>2012-12-16T09:19:03Z</time>
      </trkpt>
      <trkpt lat="48.77956" lon="2.16571">
        <ele>178.1</ele>
        <time>2012-12-16T09:19:08Z</time>
      </trkpt>
      <trkpt lat="48.77957" lon="2.16572">
        <ele>178.1</ele>
        <time>2012-12-16T09:19:13Z</time>
      </trkpt>
      <trkpt lat="48.77957" lon="2.16572">
        <ele>178.1</ele>
        <time>2012-12-16T09:19:17Z</time>
      </trkpt>
      <trkpt lat="48.77957" lon="2.16572">
        <ele>178.1</ele>
        <time>2012-12-16T09:19:22Z</time>
      </trkpt>
      <trkpt lat="48.77957" lon="2.16572">
        <ele>178.1</ele>
        <time>2012-12-16T09:19:23Z</time>
      </trkpt>
      <trkpt lat="48.77957" lon="2.16572">
        <ele>178.1</ele>
        <time>2012-12-16T09:19:32Z</time>
      </trkpt>
      <trkpt lat="48.77957" lon="2.16572">
        <ele>178.1</ele>
        <time>2012-12-16T09:19:37Z</time>
      </trkpt>
      <trkpt lat="48.77957" lon="2.16572">
        <ele>178.1</ele>
        <time>2012-12-16T09:19:42Z</time>
      </trkpt>
      <trkpt lat="48.77957" lon="2.16572">
        <ele>178.1</ele>
        <time>2012-12-16T09:19:47Z</time>
      </trkpt>
      <trkpt lat="48.77957" lon="2.16572">
        <ele>178.1</ele>
        <time>2012-12-16T09:19:52Z</time>
      </trkpt>
      <trkpt lat="48.77957" lon="2.16572">
        <ele>178.1</ele>
        <time>2012-12-16T09:19:57Z</time>
      </trkpt>
      <trkpt lat="48.77957" lon="2.16572">
        <ele>178.1</ele>
        <time>2012-12-16T09:20:01Z</time>
      </trkpt>
      <trkpt lat="48.77957" lon="2.16572">
        <ele>178.1</ele>
        <time>2012-12-16T09:20:06Z</time>
      </trkpt>
      <trkpt lat="48.77957" lon="2.16572">
        <ele>178.1</ele>
        <time>2012-12-16T09:20:11Z</time>
      </trkpt>
      <trkpt lat="48.77957" lon="2.16572">
        <ele>178.1</ele>
        <time>2012-12-16T09:20:15Z</time>
      </trkpt>
      <trkpt lat="48.77957" lon="2.16572">
        <ele>178.1</ele>
        <time>2012-12-16T09:20:19Z</time>
      </trkpt>
      <trkpt lat="48.77957" lon="2.16572">
        <ele>178.1</ele>
        <time>2012-12-16T09:20:24Z</time>
      </trkpt>
      <trkpt lat="48.77957" lon="2.16572">
        <ele>178.1</ele>
        <time>2012-12-16T09:20:25Z</time>
      </trkpt>
      <trkpt lat="48.77957" lon="2.16572">
        <ele>178.1</ele>
        <time>2012-12-16T09:20:34Z</time>
      </trkpt>
      <trkpt lat="48.77957" lon="2.16572">
        <ele>178.5</ele>
        <time>2012-12-16T09:20:39Z</time>
      </trkpt>
      <trkpt lat="48.77957" lon="2.16572">
        <ele>178.6</ele>
        <time>2012-12-16T09:20:44Z</time>
      </trkpt>
      <trkpt lat="48.77957" lon="2.16572">
        <ele>178.6</ele>
        <time>2012-12-16T09:20:49Z</time>
      </trkpt>
      <trkpt lat="48.77957" lon="2.16572">
        <ele>178.6</ele>
        <time>2012-12-16T09:20:54Z</time>
      </trkpt>
      <trkpt lat="48.77957" lon="2.16572">
        <ele>178.6</ele>
        <time>2012-12-16T09:20:59Z</time>
      </trkpt>
      <trkpt lat="48.77957" lon="2.16572">
        <ele>178.6</ele>
        <time>2012-12-16T09:21:03Z</time>
      </trkpt>
      <trkpt lat="48.77957" lon="2.16572">
        <ele>178.6</ele>
        <time>2012-12-16T09:21:08Z</time>
      </trkpt>
      <trkpt lat="48.77958" lon="2.16573">
        <ele>178.3</ele>
        <time>2012-12-16T09:21:13Z</time>
      </trkpt>
      <trkpt lat="48.7796" lon="2.16577">
        <ele>177.8</ele>
        <time>2012-12-16T09:21:17Z</time>
      </trkpt>
      <trkpt lat="48.77962" lon="2.16581">
        <ele>177.6</ele>
        <time>2012-12-16T09:21:22Z</time>
      </trkpt>
      <trkpt lat="48.77962" lon="2.1659">
        <ele>177.1</ele>
        <time>2012-12-16T09:21:27Z</time>
      </trkpt>
      <trkpt lat="48.77962" lon="2.16592">
        <ele>176.8</ele>
        <time>2012-12-16T09:21:28Z</time>
      </trkpt>
      <trkpt lat="48.77965" lon="2.16598">
        <ele>175.6</ele>
        <time>2012-12-16T09:21:37Z</time>
      </trkpt>
      <trkpt lat="48.77965" lon="2.16605">
        <ele>174.8</ele>
        <time>2012-12-16T09:21:42Z</time>
      </trkpt>
      <trkpt lat="48.77964" lon="2.16617">
        <ele>173.1</ele>
        <time>2012-12-16T09:21:47Z</time>
      </trkpt>
      <trkpt lat="48.77965" lon="2.16625">
        <ele>173.6</ele>
        <time>2012-12-16T09:21:52Z</time>
      </trkpt>
      <trkpt lat="48.77961" lon="2.16634">
        <ele>173</ele>
        <time>2012-12-16T09:21:57Z</time>
      </trkpt>
      <trkpt lat="48.77961" lon="2.16636">
        <ele>173.8</ele>
        <time>2012-12-16T09:22:01Z</time>
      </trkpt>
      <trkpt lat="48.77959" lon="2.16643">
        <ele>175.1</ele>
        <time>2012-12-16T09:22:06Z</time>
      </trkpt>
      <trkpt lat="48.77959" lon="2.16651">
        <ele>175.1</ele>
        <time>2012-12-16T09:22:11Z</time>
      </trkpt>
      <trkpt lat="48.77958" lon="2.16653">
        <ele>175.8</ele>
        <time>2012-12-16T09:22:15Z</time>
      </trkpt>
      <trkpt lat="48.77958" lon="2.16655">
        <ele>175.8</ele>
        <time>2012-12-16T09:22:19Z</time>
      </trkpt>
      <trkpt lat="48.77958" lon="2.16657">
        <ele>175.3</ele>
        <time>2012-12-16T09:22:24Z</time>
      </trkpt>
      <trkpt lat="48.7796" lon="2.16667">
        <ele>175</ele>
        <time>2012-12-16T09:22:29Z</time>
      </trkpt>
      <trkpt lat="48.7796" lon="2.16667">
        <ele>175</ele>
        <time>2012-12-16T09:22:30Z</time>
      </trkpt>
      <trkpt lat="48.77964" lon="2.16684">
        <ele>173.1</ele>
        <time>2012-12-16T09:22:39Z</time>
      </trkpt>
      <trkpt lat="48.77966" lon="2.16692">
        <ele>172.3</ele>
        <time>2012-12-16T09:22:44Z</time>
      </trkpt>
      <trkpt lat="48.77967" lon="2.16698">
        <ele>172.1</ele>
        <time>2012-12-16T09:22:49Z</time>
      </trkpt>
      <trkpt lat="48.77966" lon="2.16707">
        <ele>173.3</ele>
        <time>2012-12-16T09:22:54Z</time>
      </trkpt>
      <trkpt lat="48.77967" lon="2.16716">
        <ele>173.1</ele>
        <time>2012-12-16T09:22:59Z</time>
      </trkpt>
      <trkpt lat="48.77967" lon="2.16721">
        <ele>173.3</ele>
        <time>2012-12-16T09:23:03Z</time>
      </trkpt>
      <trkpt lat="48.77966" lon="2.16732">
        <ele>173.6</ele>
        <time>2012-12-16T09:23:08Z</time>
      </trkpt>
      <trkpt lat="48.77964" lon="2.16742">
        <ele>172.6</ele>
        <time>2012-12-16T09:23:13Z</time>
      </trkpt>
      <trkpt lat="48.77967" lon="2.16752">
        <ele>171.6</ele>
        <time>2012-12-16T09:23:17Z</time>
      </trkpt>
      <trkpt lat="48.7797" lon="2.16766">
        <ele>171</ele>
        <time>2012-12-16T09:23:22Z</time>
      </trkpt>
      <trkpt lat="48.77972" lon="2.16778">
        <ele>171.8</ele>
        <time>2012-12-16T09:23:27Z</time>
      </trkpt>
      <trkpt lat="48.77975" lon="2.16784">
        <ele>172</ele>
        <time>2012-12-16T09:23:32Z</time>
      </trkpt>
      <trkpt lat="48.77976" lon="2.16785">
        <ele>172</ele>
        <time>2012-12-16T09:23:33Z</time>
      </trkpt>
      <trkpt lat="48.77983" lon="2.16798">
        <ele>172.8</ele>
        <time>2012-12-16T09:23:42Z</time>
      </trkpt>
      <trkpt lat="48.77988" lon="2.16805">
        <ele>173</ele>
        <time>2012-12-16T09:23:47Z</time>
      </trkpt>
      <trkpt lat="48.77994" lon="2.16813">
        <ele>172.1</ele>
        <time>2012-12-16T09:23:52Z</time>
      </trkpt>
      <trkpt lat="48.77995" lon="2.16821">
        <ele>173.1</ele>
        <time>2012-12-16T09:23:57Z</time>
      </trkpt>
      <trkpt lat="48.77997" lon="2.1683">
        <ele>173.3</ele>
        <time>2012-12-16T09:24:01Z</time>
      </trkpt>
      <trkpt lat="48.77999" lon="2.1684">
        <ele>173.6</ele>
        <time>2012-12-16T09:24:06Z</time>
      </trkpt>
      <trkpt lat="48.78002" lon="2.16847">
        <ele>173.6</ele>
        <time>2012-12-16T09:24:11Z</time>
      </trkpt>
      <trkpt lat="48.78005" lon="2.16851">
        <ele>173.3</ele>
        <time>2012-12-16T09:24:15Z</time>
      </trkpt>
      <trkpt lat="48.78008" lon="2.16857">
        <ele>173</ele>
        <time>2012-12-16T09:24:19Z</time>
      </trkpt>
      <trkpt lat="48.78012" lon="2.16861">
        <ele>172.3</ele>
        <time>2012-12-16T09:24:24Z</time>
      </trkpt>
      <trkpt lat="48.78014" lon="2.16866">
        <ele>171.6</ele>
        <time>2012-12-16T09:24:29Z</time>
      </trkpt>
      <trkpt lat="48.78014" lon="2.16866">
        <ele>171.6</ele>
        <time>2012-12-16T09:24:34Z</time>
      </trkpt>
      <trkpt lat="48.78014" lon="2.16866">
        <ele>171.6</ele>
        <time>2012-12-16T09:24:35Z</time>
      </trkpt>
      <trkpt lat="48.78014" lon="2.16866">
        <ele>171.8</ele>
        <time>2012-12-16T09:24:44Z</time>
      </trkpt>
      <trkpt lat="48.78014" lon="2.16877">
        <ele>172.8</ele>
        <time>2012-12-16T09:24:49Z</time>
      </trkpt>
      <trkpt lat="48.78014" lon="2.16886">
        <ele>173.1</ele>
        <time>2012-12-16T09:24:54Z</time>
      </trkpt>
      <trkpt lat="48.78016" lon="2.16893">
        <ele>172.5</ele>
        <time>2012-12-16T09:24:59Z</time>
      </trkpt>
      <trkpt lat="48.78015" lon="2.16901">
        <ele>172</ele>
        <time>2012-12-16T09:25:03Z</time>
      </trkpt>
      <trkpt lat="48.78017" lon="2.16909">
        <ele>172.1</ele>
        <time>2012-12-16T09:25:08Z</time>
      </trkpt>
      <trkpt lat="48.7802" lon="2.16915">
        <ele>172.1</ele>
        <time>2012-12-16T09:25:13Z</time>
      </trkpt>
      <trkpt lat="48.78021" lon="2.16918">
        <ele>171.8</ele>
        <time>2012-12-16T09:25:17Z</time>
      </trkpt>
      <trkpt lat="48.78021" lon="2.16928">
        <ele>172.8</ele>
        <time>2012-12-16T09:25:22Z</time>
      </trkpt>
      <trkpt lat="48.78018" lon="2.16939">
        <ele>173</ele>
        <time>2012-12-16T09:25:27Z</time>
      </trkpt>
      <trkpt lat="48.78016" lon="2.16949">
        <ele>173</ele>
        <time>2012-12-16T09:25:32Z</time>
      </trkpt>
      <trkpt lat="48.78015" lon="2.16955">
        <ele>172.8</ele>
        <time>2012-12-16T09:25:37Z</time>
      </trkpt>
      <trkpt lat="48.78015" lon="2.16957">
        <ele>172.8</ele>
        <time>2012-12-16T09:25:38Z</time>
      </trkpt>
      <trkpt lat="48.78011" lon="2.16974">
        <ele>174.1</ele>
        <time>2012-12-16T09:25:47Z</time>
      </trkpt>
      <trkpt lat="48.78009" lon="2.1698">
        <ele>174.3</ele>
        <time>2012-12-16T09:25:52Z</time>
      </trkpt>
      <trkpt lat="48.78006" lon="2.16988">
        <ele>173.8</ele>
        <time>2012-12-16T09:25:57Z</time>
      </trkpt>
      <trkpt lat="48.78004" lon="2.16997">
        <ele>174</ele>
        <time>2012-12-16T09:26:01Z</time>
      </trkpt>
      <trkpt lat="48.78004" lon="2.17005">
        <ele>173.8</ele>
        <time>2012-12-16T09:26:06Z</time>
      </trkpt>
      <trkpt lat="48.78" lon="2.17014">
        <ele>173.6</ele>
        <time>2012-12-16T09:26:11Z</time>
      </trkpt>
      <trkpt lat="48.77997" lon="2.17025">
        <ele>173.1</ele>
        <time>2012-12-16T09:26:15Z</time>
      </trkpt>
      <trkpt lat="48.77995" lon="2.17032">
        <ele>172.1</ele>
        <time>2012-12-16T09:26:19Z</time>
      </trkpt>
      <trkpt lat="48.77994" lon="2.17038">
        <ele>172.5</ele>
        <time>2012-12-16T09:26:24Z</time>
      </trkpt>
      <trkpt lat="48.77994" lon="2.17045">
        <ele>172</ele>
        <time>2012-12-16T09:26:29Z</time>
      </trkpt>
      <trkpt lat="48.77992" lon="2.17055">
        <ele>171.3</ele>
        <time>2012-12-16T09:26:34Z</time>
      </trkpt>
      <trkpt lat="48.77992" lon="2.1706">
        <ele>171.3</ele>
        <time>2012-12-16T09:26:39Z</time>
      </trkpt>
      <trkpt lat="48.77992" lon="2.17061">
        <ele>171.3</ele>
        <time>2012-12-16T09:26:40Z</time>
      </trkpt>
      <trkpt lat="48.77989" lon="2.17073">
        <ele>170.8</ele>
        <time>2012-12-16T09:26:49Z</time>
      </trkpt>
      <trkpt lat="48.77989" lon="2.17073">
        <ele>170.8</ele>
        <time>2012-12-16T09:26:54Z</time>
      </trkpt>
      <trkpt lat="48.77989" lon="2.17073">
        <ele>171</ele>
        <time>2012-12-16T09:26:59Z</time>
      </trkpt>
      <trkpt lat="48.77989" lon="2.17073">
        <ele>171</ele>
        <time>2012-12-16T09:27:03Z</time>
      </trkpt>
      <trkpt lat="48.77989" lon="2.17073">
        <ele>171</ele>
        <time>2012-12-16T09:27:08Z</time>
      </trkpt>
      <trkpt lat="48.7799" lon="2.17076">
        <ele>169.1</ele>
        <time>2012-12-16T09:27:13Z</time>
      </trkpt>
      <trkpt lat="48.77992" lon="2.17082">
        <ele>170.3</ele>
        <time>2012-12-16T09:27:17Z</time>
      </trkpt>
      <trkpt lat="48.77996" lon="2.17086">
        <ele>170.3</ele>
        <time>2012-12-16T09:27:22Z</time>
      </trkpt>
      <trkpt lat="48.77998" lon="2.1709">
        <ele>170.1</ele>
        <time>2012-12-16T09:27:27Z</time>
      </trkpt>
      <trkpt lat="48.78" lon="2.17093">
        <ele>169.8</ele>
        <time>2012-12-16T09:27:32Z</time>
      </trkpt>
      <trkpt lat="48.78" lon="2.17094">
        <ele>170.1</ele>
        <time>2012-12-16T09:27:37Z</time>
      </trkpt>
      <trkpt lat="48.77995" lon="2.171">
        <ele>170.6</ele>
        <time>2012-12-16T09:27:42Z</time>
      </trkpt>
      <trkpt lat="48.77994" lon="2.17101">
        <ele>171</ele>
        <time>2012-12-16T09:27:43Z</time>
      </trkpt>
      <trkpt lat="48.77992" lon="2.17102">
        <ele>171</ele>
        <time>2012-12-16T09:27:52Z</time>
      </trkpt>
      <trkpt lat="48.77992" lon="2.17102">
        <ele>171</ele>
        <time>2012-12-16T09:27:57Z</time>
      </trkpt>
      <trkpt lat="48.7799" lon="2.17105">
        <ele>171.3</ele>
        <time>2012-12-16T09:28:01Z</time>
      </trkpt>
      <trkpt lat="48.77986" lon="2.17105">
        <ele>170.1</ele>
        <time>2012-12-16T09:28:06Z</time>
      </trkpt>
      <trkpt lat="48.77981" lon="2.17108">
        <ele>169.3</ele>
        <time>2012-12-16T09:28:11Z</time>
      </trkpt>
      <trkpt lat="48.77975" lon="2.17112">
        <ele>169</ele>
        <time>2012-12-16T09:28:15Z</time>
      </trkpt>
      <trkpt lat="48.77969" lon="2.17117">
        <ele>168.5</ele>
        <time>2012-12-16T09:28:19Z</time>
      </trkpt>
      <trkpt lat="48.77962" lon="2.17126">
        <ele>168.5</ele>
        <time>2012-12-16T09:28:24Z</time>
      </trkpt>
      <trkpt lat="48.77955" lon="2.17133">
        <ele>169</ele>
        <time>2012-12-16T09:28:29Z</time>
      </trkpt>
      <trkpt lat="48.77948" lon="2.17141">
        <ele>169.3</ele>
        <time>2012-12-16T09:28:34Z</time>
      </trkpt>
      <trkpt lat="48.77941" lon="2.17149">
        <ele>170.1</ele>
        <time>2012-12-16T09:28:39Z</time>
      </trkpt>
      <trkpt lat="48.77937" lon="2.17151">
        <ele>169.3</ele>
        <time>2012-12-16T09:28:44Z</time>
      </trkpt>
      <trkpt lat="48.77936" lon="2.17151">
        <ele>168.8</ele>
        <time>2012-12-16T09:28:45Z</time>
      </trkpt>
      <trkpt lat="48.77928" lon="2.17162">
        <ele>169.6</ele>
        <time>2012-12-16T09:28:54Z</time>
      </trkpt>
      <trkpt lat="48.77925" lon="2.17175">
        <ele>170.3</ele>
        <time>2012-12-16T09:28:59Z</time>
      </trkpt>
      <trkpt lat="48.77923" lon="2.17184">
        <ele>170.3</ele>
        <time>2012-12-16T09:29:03Z</time>
      </trkpt>
      <trkpt lat="48.77922" lon="2.17189">
        <ele>169.6</ele>
        <time>2012-12-16T09:29:08Z</time>
      </trkpt>
      <trkpt lat="48.77919" lon="2.17192">
        <ele>170.1</ele>
        <time>2012-12-16T09:29:13Z</time>
      </trkpt>
      <trkpt lat="48.77917" lon="2.17197">
        <ele>169.1</ele>
        <time>2012-12-16T09:29:17Z</time>
      </trkpt>
      <trkpt lat="48.77912" lon="2.17206">
        <ele>168.8</ele>
        <time>2012-12-16T09:29:22Z</time>
      </trkpt>
      <trkpt lat="48.77911" lon="2.1721">
        <ele>169.1</ele>
        <time>2012-12-16T09:29:27Z</time>
      </trkpt>
      <trkpt lat="48.7791" lon="2.17214">
        <ele>169.1</ele>
        <time>2012-12-16T09:29:32Z</time>
      </trkpt>
      <trkpt lat="48.77908" lon="2.17224">
        <ele>169.1</ele>
        <time>2012-12-16T09:29:37Z</time>
      </trkpt>
      <trkpt lat="48.77905" lon="2.17235">
        <ele>169.5</ele>
        <time>2012-12-16T09:29:42Z</time>
      </trkpt>
      <trkpt lat="48.779" lon="2.17248">
        <ele>169.8</ele>
        <time>2012-12-16T09:29:47Z</time>
      </trkpt>
      <trkpt lat="48.77899" lon="2.1725">
        <ele>169.1</ele>
        <time>2012-12-16T09:29:48Z</time>
      </trkpt>
      <trkpt lat="48.77897" lon="2.17259">
        <ele>168.5</ele>
        <time>2012-12-16T09:29:57Z</time>
      </trkpt>
      <trkpt lat="48.77897" lon="2.17269">
        <ele>169</ele>
        <time>2012-12-16T09:30:01Z</time>
      </trkpt>
      <trkpt lat="48.77892" lon="2.17281">
        <ele>169.1</ele>
        <time>2012-12-16T09:30:06Z</time>
      </trkpt>
      <trkpt lat="48.7789" lon="2.17289">
        <ele>168.3</ele>
        <time>2012-12-16T09:30:11Z</time>
      </trkpt>
      <trkpt lat="48.77889" lon="2.17297">
        <ele>167.8</ele>
        <time>2012-12-16T09:30:15Z</time>
      </trkpt>
      <trkpt lat="48.77889" lon="2.17306">
        <ele>166.8</ele>
        <time>2012-12-16T09:30:19Z</time>
      </trkpt>
      <trkpt lat="48.77888" lon="2.17317">
        <ele>165.5</ele>
        <time>2012-12-16T09:30:24Z</time>
      </trkpt>
      <trkpt lat="48.77886" lon="2.17327">
        <ele>165</ele>
        <time>2012-12-16T09:30:29Z</time>
      </trkpt>
      <trkpt lat="48.77883" lon="2.17335">
        <ele>165.3</ele>
        <time>2012-12-16T09:30:34Z</time>
      </trkpt>
      <trkpt lat="48.77881" lon="2.17348">
        <ele>165.3</ele>
        <time>2012-12-16T09:30:39Z</time>
      </trkpt>
      <trkpt lat="48.77879" lon="2.17354">
        <ele>166.8</ele>
        <time>2012-12-16T09:30:44Z</time>
      </trkpt>
      <trkpt lat="48.77877" lon="2.17366">
        <ele>168</ele>
        <time>2012-12-16T09:30:49Z</time>
      </trkpt>
      <trkpt lat="48.77876" lon="2.17368">
        <ele>168.3</ele>
        <time>2012-12-16T09:30:50Z</time>
      </trkpt>
      <trkpt lat="48.77872" lon="2.17386">
        <ele>169.6</ele>
        <time>2012-12-16T09:30:59Z</time>
      </trkpt>
      <trkpt lat="48.77871" lon="2.17396">
        <ele>171.3</ele>
        <time>2012-12-16T09:31:03Z</time>
      </trkpt>
      <trkpt lat="48.77871" lon="2.17402">
        <ele>172.1</ele>
        <time>2012-12-16T09:31:08Z</time>
      </trkpt>
      <trkpt lat="48.77874" lon="2.17415">
        <ele>171.8</ele>
        <time>2012-12-16T09:31:13Z</time>
      </trkpt>
      <trkpt lat="48.77875" lon="2.17426">
        <ele>172</ele>
        <time>2012-12-16T09:31:17Z</time>
      </trkpt>
      <trkpt lat="48.77877" lon="2.17434">
        <ele>171.6</ele>
        <time>2012-12-16T09:31:22Z</time>
      </trkpt>
      <trkpt lat="48.77883" lon="2.17444">
        <ele>172.5</ele>
        <time>2012-12-16T09:31:27Z</time>
      </trkpt>
      <trkpt lat="48.77889" lon="2.17453">
        <ele>172.6</ele>
        <time>2012-12-16T09:31:32Z</time>
      </trkpt>
      <trkpt lat="48.77891" lon="2.1746">
        <ele>171.6</ele>
        <time>2012-12-16T09:31:37Z</time>
      </trkpt>
      <trkpt lat="48.77889" lon="2.17469">
        <ele>169.6</ele>
        <time>2012-12-16T09:31:42Z</time>
      </trkpt>
      <trkpt lat="48.77885" lon="2.17476">
        <ele>168.6</ele>
        <time>2012-12-16T09:31:47Z</time>
      </trkpt>
      <trkpt lat="48.77882" lon="2.17488">
        <ele>167.6</ele>
        <time>2012-12-16T09:31:52Z</time>
      </trkpt>
      <trkpt lat="48.77882" lon="2.17488">
        <ele>167.6</ele>
        <time>2012-12-16T09:31:53Z</time>
      </trkpt>
      <trkpt lat="48.77882" lon="2.17497">
        <ele>167.3</ele>
        <time>2012-12-16T09:32:01Z</time>
      </trkpt>
      <trkpt lat="48.77885" lon="2.17504">
        <ele>167.1</ele>
        <time>2012-12-16T09:32:06Z</time>
      </trkpt>
      <trkpt lat="48.77887" lon="2.17514">
        <ele>167.6</ele>
        <time>2012-12-16T09:32:11Z</time>
      </trkpt>
      <trkpt lat="48.77887" lon="2.1752">
        <ele>167.3</ele>
        <time>2012-12-16T09:32:15Z</time>
      </trkpt>
      <trkpt lat="48.77886" lon="2.17528">
        <ele>166.8</ele>
        <time>2012-12-16T09:32:19Z</time>
      </trkpt>
      <trkpt lat="48.77888" lon="2.17538">
        <ele>167.1</ele>
        <time>2012-12-16T09:32:24Z</time>
      </trkpt>
      <trkpt lat="48.77887" lon="2.17544">
        <ele>166.8</ele>
        <time>2012-12-16T09:32:29Z</time>
      </trkpt>
      <trkpt lat="48.77887" lon="2.17543">
        <ele>166.1</ele>
        <time>2012-12-16T09:32:34Z</time>
      </trkpt>
      <trkpt lat="48.77887" lon="2.17543">
        <ele>166.1</ele>
        <time>2012-12-16T09:32:39Z</time>
      </trkpt>
      <trkpt lat="48.77887" lon="2.17543">
        <ele>166.1</ele>
        <time>2012-12-16T09:32:44Z</time>
      </trkpt>
      <trkpt lat="48.77882" lon="2.17546">
        <ele>165.1</ele>
        <time>2012-12-16T09:32:49Z</time>
      </trkpt>
      <trkpt lat="48.77875" lon="2.17546">
        <ele>165.6</ele>
        <time>2012-12-16T09:32:54Z</time>
      </trkpt>
      <trkpt lat="48.77874" lon="2.17546">
        <ele>165.3</ele>
        <time>2012-12-16T09:32:55Z</time>
      </trkpt>
      <trkpt lat="48.77869" lon="2.17544">
        <ele>165.3</ele>
        <time>2012-12-16T09:33:03Z</time>
      </trkpt>
      <trkpt lat="48.77862" lon="2.17545">
        <ele>165.6</ele>
        <time>2012-12-16T09:33:08Z</time>
      </trkpt>
      <trkpt lat="48.77856" lon="2.17543">
        <ele>165.8</ele>
        <time>2012-12-16T09:33:13Z</time>
      </trkpt>
      <trkpt lat="48.7785" lon="2.17543">
        <ele>165.6</ele>
        <time>2012-12-16T09:33:17Z</time>
      </trkpt>
      <trkpt lat="48.77842" lon="2.17544">
        <ele>166.1</ele>
        <time>2012-12-16T09:33:22Z</time>
      </trkpt>
      <trkpt lat="48.77833" lon="2.17547">
        <ele>166.1</ele>
        <time>2012-12-16T09:33:27Z</time>
      </trkpt>
      <trkpt lat="48.77828" lon="2.17547">
        <ele>166.8</ele>
        <time>2012-12-16T09:33:32Z</time>
      </trkpt>
      <trkpt lat="48.77821" lon="2.17551">
        <ele>167.6</ele>
        <time>2012-12-16T09:33:37Z</time>
      </trkpt>
      <trkpt lat="48.77813" lon="2.17551">
        <ele>167.3</ele>
        <time>2012-12-16T09:33:42Z</time>
      </trkpt>
      <trkpt lat="48.77807" lon="2.17553">
        <ele>167.3</ele>
        <time>2012-12-16T09:33:47Z</time>
      </trkpt>
      <trkpt lat="48.77801" lon="2.17556">
        <ele>167.1</ele>
        <time>2012-12-16T09:33:52Z</time>
      </trkpt>
      <trkpt lat="48.77792" lon="2.1756">
        <ele>169.1</ele>
        <time>2012-12-16T09:33:57Z</time>
      </trkpt>
      <trkpt lat="48.7779" lon="2.17562">
        <ele>169.6</ele>
        <time>2012-12-16T09:33:58Z</time>
      </trkpt>
      <trkpt lat="48.77777" lon="2.17568">
        <ele>170.8</ele>
        <time>2012-12-16T09:34:06Z</time>
      </trkpt>
      <trkpt lat="48.77771" lon="2.17574">
        <ele>172.1</ele>
        <time>2012-12-16T09:34:11Z</time>
      </trkpt>
      <trkpt lat="48.77767" lon="2.17574">
        <ele>173.5</ele>
        <time>2012-12-16T09:34:15Z</time>
      </trkpt>
      <trkpt lat="48.77759" lon="2.1758">
        <ele>174.6</ele>
        <time>2012-12-16T09:34:19Z</time>
      </trkpt>
      <trkpt lat="48.77751" lon="2.17588">
        <ele>175.3</ele>
        <time>2012-12-16T09:34:24Z</time>
      </trkpt>
      <trkpt lat="48.77742" lon="2.17591">
        <ele>174.5</ele>
        <time>2012-12-16T09:34:29Z</time>
      </trkpt>
      <trkpt lat="48.77731" lon="2.17594">
        <ele>176</ele>
        <time>2012-12-16T09:34:34Z</time>
      </trkpt>
      <trkpt lat="48.77724" lon="2.1759">
        <ele>175.6</ele>
        <time>2012-12-16T09:34:39Z</time>
      </trkpt>
      <trkpt lat="48.77718" lon="2.1759">
        <ele>175.3</ele>
        <time>2012-12-16T09:34:44Z</time>
      </trkpt>
      <trkpt lat="48.77709" lon="2.17594">
        <ele>177</ele>
        <time>2012-12-16T09:34:49Z</time>
      </trkpt>
      <trkpt lat="48.77697" lon="2.17602">
        <ele>178.1</ele>
        <time>2012-12-16T09:34:54Z</time>
      </trkpt>
      <trkpt lat="48.77687" lon="2.17607">
        <ele>177.8</ele>
        <time>2012-12-16T09:34:59Z</time>
      </trkpt>
      <trkpt lat="48.77685" lon="2.17609">
        <ele>177.8</ele>
        <time>2012-12-16T09:35:00Z</time>
      </trkpt>
      <trkpt lat="48.77672" lon="2.17613">
        <ele>178.1</ele>
        <time>2012-12-16T09:35:08Z</time>
      </trkpt>
      <trkpt lat="48.77665" lon="2.17621">
        <ele>178.1</ele>
        <time>2012-12-16T09:35:13Z</time>
      </trkpt>
      <trkpt lat="48.77659" lon="2.17626">
        <ele>176.3</ele>
        <time>2012-12-16T09:35:17Z</time>
      </trkpt>
      <trkpt lat="48.77649" lon="2.17634">
        <ele>175.6</ele>
        <time>2012-12-16T09:35:22Z</time>
      </trkpt>
      <trkpt lat="48.77643" lon="2.17638">
        <ele>176</ele>
        <time>2012-12-16T09:35:27Z</time>
      </trkpt>
      <trkpt lat="48.77635" lon="2.17649">
        <ele>173.6</ele>
        <time>2012-12-16T09:35:32Z</time>
      </trkpt>
      <trkpt lat="48.7763" lon="2.17653">
        <ele>174</ele>
        <time>2012-12-16T09:35:37Z</time>
      </trkpt>
      <trkpt lat="48.77625" lon="2.17659">
        <ele>173.1</ele>
        <time>2012-12-16T09:35:42Z</time>
      </trkpt>
      <trkpt lat="48.77618" lon="2.17668">
        <ele>174.1</ele>
        <time>2012-12-16T09:35:47Z</time>
      </trkpt>
      <trkpt lat="48.7761" lon="2.17682">
        <ele>175.1</ele>
        <time>2012-12-16T09:35:52Z</time>
      </trkpt>
      <trkpt lat="48.77604" lon="2.17686">
        <ele>173.6</ele>
        <time>2012-12-16T09:35:57Z</time>
      </trkpt>
      <trkpt lat="48.77603" lon="2.17683">
        <ele>173.1</ele>
        <time>2012-12-16T09:36:01Z</time>
      </trkpt>
      <trkpt lat="48.77603" lon="2.17683">
        <ele>173.1</ele>
        <time>2012-12-16T09:36:02Z</time>
      </trkpt>
      <trkpt lat="48.77603" lon="2.17681">
        <ele>172.3</ele>
        <time>2012-12-16T09:36:11Z</time>
      </trkpt>
      <trkpt lat="48.77603" lon="2.17681">
        <ele>172.3</ele>
        <time>2012-12-16T09:36:15Z</time>
      </trkpt>
      <trkpt lat="48.77603" lon="2.1768">
        <ele>173.1</ele>
        <time>2012-12-16T09:36:19Z</time>
      </trkpt>
      <trkpt lat="48.77603" lon="2.17679">
        <ele>173.1</ele>
        <time>2012-12-16T09:36:24Z</time>
      </trkpt>
      <trkpt lat="48.77602" lon="2.1768">
        <ele>173.8</ele>
        <time>2012-12-16T09:36:29Z</time>
      </trkpt>
      <trkpt lat="48.77602" lon="2.17678">
        <ele>172.8</ele>
        <time>2012-12-16T09:36:34Z</time>
      </trkpt>
      <trkpt lat="48.77602" lon="2.17678">
        <ele>172.8</ele>
        <time>2012-12-16T09:36:39Z</time>
      </trkpt>
      <trkpt lat="48.77602" lon="2.17678">
        <ele>172.8</ele>
        <time>2012-12-16T09:36:44Z</time>
      </trkpt>
      <trkpt lat="48.77602" lon="2.17678">
        <ele>172.8</ele>
        <time>2012-12-16T09:36:49Z</time>
      </trkpt>
      <trkpt lat="48.77602" lon="2.17678">
        <ele>172.8</ele>
        <time>2012-12-16T09:36:54Z</time>
      </trkpt>
      <trkpt lat="48.77602" lon="2.17678">
        <ele>172.8</ele>
        <time>2012-12-16T09:36:59Z</time>
      </trkpt>
      <trkpt lat="48.77602" lon="2.17678">
        <ele>172.8</ele>
        <time>2012-12-16T09:37:03Z</time>
      </trkpt>
      <trkpt lat="48.77602" lon="2.17678">
        <ele>172.8</ele>
        <time>2012-12-16T09:37:04Z</time>
      </trkpt>
      <trkpt lat="48.77602" lon="2.17676">
        <ele>171.3</ele>
        <time>2012-12-16T09:37:13Z</time>
      </trkpt>
      <trkpt lat="48.77602" lon="2.17676">
        <ele>171.3</ele>
        <time>2012-12-16T09:37:17Z</time>
      </trkpt>
      <trkpt lat="48.77602" lon="2.17676">
        <ele>171.3</ele>
        <time>2012-12-16T09:37:22Z</time>
      </trkpt>
      <trkpt lat="48.77602" lon="2.17676">
        <ele>171.3</ele>
        <time>2012-12-16T09:37:27Z</time>
      </trkpt>
      <trkpt lat="48.77602" lon="2.17676">
        <ele>171.3</ele>
        <time>2012-12-16T09:37:32Z</time>
      </trkpt>
      <trkpt lat="48.77602" lon="2.17676">
        <ele>171.3</ele>
        <time>2012-12-16T09:37:37Z</time>
      </trkpt>
      <trkpt lat="48.77602" lon="2.17676">
        <ele>171.3</ele>
        <time>2012-12-16T09:37:42Z</time>
      </trkpt>
      <trkpt lat="48.77602" lon="2.17676">
        <ele>171.3</ele>
        <time>2012-12-16T09:37:47Z</time>
      </trkpt>
      <trkpt lat="48.77602" lon="2.17676">
        <ele>171.3</ele>
        <time>2012-12-16T09:37:52Z</time>
      </trkpt>
      <trkpt lat="48.77602" lon="2.17676">
        <ele>171.3</ele>
        <time>2012-12-16T09:37:57Z</time>
      </trkpt>
      <trkpt lat="48.77602" lon="2.17676">
        <ele>171.3</ele>
        <time>2012-12-16T09:38:01Z</time>
      </trkpt>
      <trkpt lat="48.77602" lon="2.17676">
        <ele>171.3</ele>
        <time>2012-12-16T09:38:06Z</time>
      </trkpt>
      <trkpt lat="48.77602" lon="2.17676">
        <ele>171.3</ele>
        <time>2012-12-16T09:38:07Z</time>
      </trkpt>
      <trkpt lat="48.77602" lon="2.17676">
        <ele>171.3</ele>
        <time>2012-12-16T09:38:15Z</time>
      </trkpt>
      <trkpt lat="48.77602" lon="2.17676">
        <ele>171.3</ele>
        <time>2012-12-16T09:38:19Z</time>
      </trkpt>
      <trkpt lat="48.77602" lon="2.17676">
        <ele>171.3</ele>
        <time>2012-12-16T09:38:24Z</time>
      </trkpt>
      <trkpt lat="48.77602" lon="2.17676">
        <ele>171.3</ele>
        <time>2012-12-16T09:38:29Z</time>
      </trkpt>
      <trkpt lat="48.77602" lon="2.17676">
        <ele>171.3</ele>
        <time>2012-12-16T09:38:34Z</time>
      </trkpt>
      <trkpt lat="48.77602" lon="2.17676">
        <ele>171.3</ele>
        <time>2012-12-16T09:38:39Z</time>
      </trkpt>
      <trkpt lat="48.77602" lon="2.17676">
        <ele>171.3</ele>
        <time>2012-12-16T09:38:44Z</time>
      </trkpt>
      <trkpt lat="48.77602" lon="2.17676">
        <ele>171.3</ele>
        <time>2012-12-16T09:38:49Z</time>
      </trkpt>
      <trkpt lat="48.77602" lon="2.17676">
        <ele>171.3</ele>
        <time>2012-12-16T09:38:54Z</time>
      </trkpt>
      <trkpt lat="48.77602" lon="2.17675">
        <ele>170.6</ele>
        <time>2012-12-16T09:38:59Z</time>
      </trkpt>
      <trkpt lat="48.77602" lon="2.17675">
        <ele>170.6</ele>
        <time>2012-12-16T09:39:03Z</time>
      </trkpt>
      <trkpt lat="48.77602" lon="2.17675">
        <ele>170.6</ele>
        <time>2012-12-16T09:39:08Z</time>
      </trkpt>
      <trkpt lat="48.77602" lon="2.17675">
        <ele>170.6</ele>
        <time>2012-12-16T09:39:09Z</time>
      </trkpt>
      <trkpt lat="48.77602" lon="2.17675">
        <ele>170.6</ele>
        <time>2012-12-16T09:39:17Z</time>
      </trkpt>
      <trkpt lat="48.77602" lon="2.17675">
        <ele>170.6</ele>
        <time>2012-12-16T09:39:22Z</time>
      </trkpt>
      <trkpt lat="48.77602" lon="2.17675">
        <ele>170.6</ele>
        <time>2012-12-16T09:39:27Z</time>
      </trkpt>
      <trkpt lat="48.77602" lon="2.17675">
        <ele>170.6</ele>
        <time>2012-12-16T09:39:32Z</time>
      </trkpt>
      <trkpt lat="48.77602" lon="2.17675">
        <ele>170.6</ele>
        <time>2012-12-16T09:39:37Z</time>
      </trkpt>
      <trkpt lat="48.77602" lon="2.17675">
        <ele>170.6</ele>
        <time>2012-12-16T09:39:42Z</time>
      </trkpt>
      <trkpt lat="48.77602" lon="2.17675">
        <ele>170.6</ele>
        <time>2012-12-16T09:39:47Z</time>
      </trkpt>
      <trkpt lat="48.77602" lon="2.17675">
        <ele>170.6</ele>
        <time>2012-12-16T09:39:52Z</time>
      </trkpt>
      <trkpt lat="48.77602" lon="2.17675">
        <ele>170.6</ele>
        <time>2012-12-16T09:39:57Z</time>
      </trkpt>
      <trkpt lat="48.77602" lon="2.17675">
        <ele>170.6</ele>
        <time>2012-12-16T09:40:01Z</time>
      </trkpt>
      <trkpt lat="48.77602" lon="2.17675">
        <ele>170.6</ele>
        <time>2012-12-16T09:40:06Z</time>
      </trkpt>
      <trkpt lat="48.77602" lon="2.17675">
        <ele>170.6</ele>
        <time>2012-12-16T09:40:11Z</time>
      </trkpt>
      <trkpt lat="48.77602" lon="2.17675">
        <ele>170.6</ele>
        <time>2012-12-16T09:40:12Z</time>
      </trkpt>
      <trkpt lat="48.77602" lon="2.17675">
        <ele>170.8</ele>
        <time>2012-12-16T09:40:19Z</time>
      </trkpt>
      <trkpt lat="48.77602" lon="2.17675">
        <ele>170.8</ele>
        <time>2012-12-16T09:40:24Z</time>
      </trkpt>
      <trkpt lat="48.77602" lon="2.17675">
        <ele>170.8</ele>
        <time>2012-12-16T09:40:29Z</time>
      </trkpt>
      <trkpt lat="48.77602" lon="2.17675">
        <ele>170.8</ele>
        <time>2012-12-16T09:40:34Z</time>
      </trkpt>
      <trkpt lat="48.77602" lon="2.17675">
        <ele>170.8</ele>
        <time>2012-12-16T09:40:39Z</time>
      </trkpt>
      <trkpt lat="48.77602" lon="2.17674">
        <ele>170.6</ele>
        <time>2012-12-16T09:40:44Z</time>
      </trkpt>
      <trkpt lat="48.77602" lon="2.17674">
        <ele>170.6</ele>
        <time>2012-12-16T09:40:49Z</time>
      </trkpt>
      <trkpt lat="48.77602" lon="2.17674">
        <ele>170.6</ele>
        <time>2012-12-16T09:40:54Z</time>
      </trkpt>
      <trkpt lat="48.77602" lon="2.17674">
        <ele>170.6</ele>
        <time>2012-12-16T09:40:59Z</time>
      </trkpt>
      <trkpt lat="48.77602" lon="2.17674">
        <ele>170.6</ele>
        <time>2012-12-16T09:41:03Z</time>
      </trkpt>
      <trkpt lat="48.77602" lon="2.17674">
        <ele>170.6</ele>
        <time>2012-12-16T09:41:08Z</time>
      </trkpt>
      <trkpt lat="48.77602" lon="2.17674">
        <ele>170.6</ele>
        <time>2012-12-16T09:41:13Z</time>
      </trkpt>
      <trkpt lat="48.77602" lon="2.17674">
        <ele>170.6</ele>
        <time>2012-12-16T09:41:14Z</time>
      </trkpt>
      <trkpt lat="48.77602" lon="2.17674">
        <ele>170.6</ele>
        <time>2012-12-16T09:41:22Z</time>
      </trkpt>
      <trkpt lat="48.77602" lon="2.17674">
        <ele>170.6</ele>
        <time>2012-12-16T09:41:27Z</time>
      </trkpt>
      <trkpt lat="48.77602" lon="2.17674">
        <ele>170.6</ele>
        <time>2012-12-16T09:41:32Z</time>
      </trkpt>
      <trkpt lat="48.77602" lon="2.17671">
        <ele>170.8</ele>
        <time>2012-12-16T09:41:37Z</time>
      </trkpt>
      <trkpt lat="48.77602" lon="2.17671">
        <ele>171</ele>
        <time>2012-12-16T09:41:42Z</time>
      </trkpt>
      <trkpt lat="48.77602" lon="2.17671">
        <ele>171</ele>
        <time>2012-12-16T09:41:47Z</time>
      </trkpt>
      <trkpt lat="48.77602" lon="2.17671">
        <ele>171.1</ele>
        <time>2012-12-16T09:41:52Z</time>
      </trkpt>
      <trkpt lat="48.77602" lon="2.17671">
        <ele>171.1</ele>
        <time>2012-12-16T09:41:57Z</time>
      </trkpt>
      <trkpt lat="48.77602" lon="2.17671">
        <ele>171.1</ele>
        <time>2012-12-16T09:42:01Z</time>
      </trkpt>
      <trkpt lat="48.77602" lon="2.17671">
        <ele>171.1</ele>
        <time>2012-12-16T09:42:06Z</time>
      </trkpt>
      <trkpt lat="48.77602" lon="2.17672">
        <ele>171</ele>
        <time>2012-12-16T09:42:11Z</time>
      </trkpt>
      <trkpt lat="48.77602" lon="2.17672">
        <ele>171</ele>
        <time>2012-12-16T09:42:15Z</time>
      </trkpt>
      <trkpt lat="48.77602" lon="2.17672">
        <ele>171</ele>
        <time>2012-12-16T09:42:16Z</time>
      </trkpt>
      <trkpt lat="48.77602" lon="2.17672">
        <ele>171</ele>
        <time>2012-12-16T09:42:24Z</time>
      </trkpt>
      <trkpt lat="48.77602" lon="2.17672">
        <ele>171</ele>
        <time>2012-12-16T09:42:29Z</time>
      </trkpt>
      <trkpt lat="48.77602" lon="2.17672">
        <ele>171</ele>
        <time>2012-12-16T09:42:34Z</time>
      </trkpt>
      <trkpt lat="48.77602" lon="2.17672">
        <ele>170.6</ele>
        <time>2012-12-16T09:42:39Z</time>
      </trkpt>
      <trkpt lat="48.77602" lon="2.17672">
        <ele>170.6</ele>
        <time>2012-12-16T09:42:44Z</time>
      </trkpt>
      <trkpt lat="48.77602" lon="2.17672">
        <ele>170.6</ele>
        <time>2012-12-16T09:42:49Z</time>
      </trkpt>
      <trkpt lat="48.77602" lon="2.17672">
        <ele>170.6</ele>
        <time>2012-12-16T09:42:54Z</time>
      </trkpt>
      <trkpt lat="48.77602" lon="2.17672">
        <ele>170.6</ele>
        <time>2012-12-16T09:42:59Z</time>
      </trkpt>
      <trkpt lat="48.77602" lon="2.17672">
        <ele>170.6</ele>
        <time>2012-12-16T09:43:03Z</time>
      </trkpt>
      <trkpt lat="48.77601" lon="2.17671">
        <ele>170.8</ele>
        <time>2012-12-16T09:43:08Z</time>
      </trkpt>
      <trkpt lat="48.77601" lon="2.17671">
        <ele>170.8</ele>
        <time>2012-12-16T09:43:13Z</time>
      </trkpt>
      <trkpt lat="48.77601" lon="2.17671">
        <ele>170.8</ele>
        <time>2012-12-16T09:43:17Z</time>
      </trkpt>
      <trkpt lat="48.77601" lon="2.17671">
        <ele>170.8</ele>
        <time>2012-12-16T09:43:18Z</time>
      </trkpt>
      <trkpt lat="48.77601" lon="2.17671">
        <ele>170.8</ele>
        <time>2012-12-16T09:43:27Z</time>
      </trkpt>
      <trkpt lat="48.77601" lon="2.17671">
        <ele>170.8</ele>
        <time>2012-12-16T09:43:32Z</time>
      </trkpt>
      <trkpt lat="48.77601" lon="2.17671">
        <ele>170.8</ele>
        <time>2012-12-16T09:43:37Z</time>
      </trkpt>
      <trkpt lat="48.77601" lon="2.17671">
        <ele>170.8</ele>
        <time>2012-12-16T09:43:42Z</time>
      </trkpt>
      <trkpt lat="48.77601" lon="2.17671">
        <ele>170.8</ele>
        <time>2012-12-16T09:43:47Z</time>
      </trkpt>
      <trkpt lat="48.77601" lon="2.17671">
        <ele>170.8</ele>
        <time>2012-12-16T09:43:52Z</time>
      </trkpt>
      <trkpt lat="48.77601" lon="2.17671">
        <ele>170.8</ele>
        <time>2012-12-16T09:43:57Z</time>
      </trkpt>
      <trkpt lat="48.77601" lon="2.17671">
        <ele>170.8</ele>
        <time>2012-12-16T09:44:01Z</time>
      </trkpt>
      <trkpt lat="48.77601" lon="2.17671">
        <ele>170.6</ele>
        <time>2012-12-16T09:44:06Z</time>
      </trkpt>
      <trkpt lat="48.77601" lon="2.17671">
        <ele>170.6</ele>
        <time>2012-12-16T09:44:11Z</time>
      </trkpt>
      <trkpt lat="48.77601" lon="2.17671">
        <ele>170.6</ele>
        <time>2012-12-16T09:44:15Z</time>
      </trkpt>
      <trkpt lat="48.77601" lon="2.17671">
        <ele>170.6</ele>
        <time>2012-12-16T09:44:19Z</time>
      </trkpt>
      <trkpt lat="48.77601" lon="2.17671">
        <ele>170.6</ele>
        <time>2012-12-16T09:44:20Z</time>
      </trkpt>
      <trkpt lat="48.77601" lon="2.17671">
        <ele>170.6</ele>
        <time>2012-12-16T09:44:29Z</time>
      </trkpt>
      <trkpt lat="48.77601" lon="2.17671">
        <ele>170.6</ele>
        <time>2012-12-16T09:44:34Z</time>
      </trkpt>
      <trkpt lat="48.77601" lon="2.17671">
        <ele>170.6</ele>
        <time>2012-12-16T09:44:39Z</time>
      </trkpt>
      <trkpt lat="48.77601" lon="2.17671">
        <ele>170.6</ele>
        <time>2012-12-16T09:44:44Z</time>
      </trkpt>
      <trkpt lat="48.77601" lon="2.17671">
        <ele>170.6</ele>
        <time>2012-12-16T09:44:49Z</time>
      </trkpt>
      <trkpt lat="48.77601" lon="2.17671">
        <ele>170.6</ele>
        <time>2012-12-16T09:44:54Z</time>
      </trkpt>
      <trkpt lat="48.77601" lon="2.17671">
        <ele>170.6</ele>
        <time>2012-12-16T09:44:59Z</time>
      </trkpt>
      <trkpt lat="48.77601" lon="2.17671">
        <ele>170.6</ele>
        <time>2012-12-16T09:45:03Z</time>
      </trkpt>
      <trkpt lat="48.77601" lon="2.17671">
        <ele>170.6</ele>
        <time>2012-12-16T09:45:08Z</time>
      </trkpt>
      <trkpt lat="48.77601" lon="2.17671">
        <ele>170.6</ele>
        <time>2012-12-16T09:45:13Z</time>
      </trkpt>
      <trkpt lat="48.77601" lon="2.17671">
        <ele>170.6</ele>
        <time>2012-12-16T09:45:17Z</time>
      </trkpt>
      <trkpt lat="48.77601" lon="2.17671">
        <ele>170.6</ele>
        <time>2012-12-16T09:45:22Z</time>
      </trkpt>
      <trkpt lat="48.77601" lon="2.17671">
        <ele>170.6</ele>
        <time>2012-12-16T09:45:23Z</time>
      </trkpt>
      <trkpt lat="48.77601" lon="2.17671">
        <ele>170.6</ele>
        <time>2012-12-16T09:45:32Z</time>
      </trkpt>
      <trkpt lat="48.77601" lon="2.17671">
        <ele>170.6</ele>
        <time>2012-12-16T09:45:37Z</time>
      </trkpt>
      <trkpt lat="48.77601" lon="2.17671">
        <ele>170.6</ele>
        <time>2012-12-16T09:45:42Z</time>
      </trkpt>
      <trkpt lat="48.77601" lon="2.17671">
        <ele>170.6</ele>
        <time>2012-12-16T09:45:47Z</time>
      </trkpt>
      <trkpt lat="48.77601" lon="2.17671">
        <ele>170.6</ele>
        <time>2012-12-16T09:45:52Z</time>
      </trkpt>
      <trkpt lat="48.77601" lon="2.17671">
        <ele>170.6</ele>
        <time>2012-12-16T09:45:57Z</time>
      </trkpt>
      <trkpt lat="48.77601" lon="2.17671">
        <ele>170.6</ele>
        <time>2012-12-16T09:46:01Z</time>
      </trkpt>
      <trkpt lat="48.77601" lon="2.17671">
        <ele>170.6</ele>
        <time>2012-12-16T09:46:06Z</time>
      </trkpt>
      <trkpt lat="48.77601" lon="2.17671">
        <ele>170.1</ele>
        <time>2012-12-16T09:46:11Z</time>
      </trkpt>
      <trkpt lat="48.77601" lon="2.17671">
        <ele>170.1</ele>
        <time>2012-12-16T09:46:15Z</time>
      </trkpt>
      <trkpt lat="48.77601" lon="2.17671">
        <ele>170.1</ele>
        <time>2012-12-16T09:46:19Z</time>
      </trkpt>
      <trkpt lat="48.77601" lon="2.17671">
        <ele>170.1</ele>
        <time>2012-12-16T09:46:24Z</time>
      </trkpt>
      <trkpt lat="48.77601" lon="2.17671">
        <ele>170.1</ele>
        <time>2012-12-16T09:46:25Z</time>
      </trkpt>
      <trkpt lat="48.77601" lon="2.17671">
        <ele>170.1</ele>
        <time>2012-12-16T09:46:34Z</time>
      </trkpt>
      <trkpt lat="48.77601" lon="2.17671">
        <ele>170.1</ele>
        <time>2012-12-16T09:46:39Z</time>
      </trkpt>
      <trkpt lat="48.77602" lon="2.17671">
        <ele>170</ele>
        <time>2012-12-16T09:46:44Z</time>
      </trkpt>
      <trkpt lat="48.77602" lon="2.17671">
        <ele>170</ele>
        <time>2012-12-16T09:46:49Z</time>
      </trkpt>
      <trkpt lat="48.77602" lon="2.17671">
        <ele>170</ele>
        <time>2012-12-16T09:46:54Z</time>
      </trkpt>
      <trkpt lat="48.77602" lon="2.17671">
        <ele>170</ele>
        <time>2012-12-16T09:46:59Z</time>
      </trkpt>
      <trkpt lat="48.77602" lon="2.17671">
        <ele>170</ele>
        <time>2012-12-16T09:47:03Z</time>
      </trkpt>
      <trkpt lat="48.77602" lon="2.17671">
        <ele>170</ele>
        <time>2012-12-16T09:47:08Z</time>
      </trkpt>
      <trkpt lat="48.77602" lon="2.17671">
        <ele>169.6</ele>
        <time>2012-12-16T09:47:13Z</time>
      </trkpt>
      <trkpt lat="48.77602" lon="2.17671">
        <ele>169.6</ele>
        <time>2012-12-16T09:47:17Z</time>
      </trkpt>
      <trkpt lat="48.77602" lon="2.17671">
        <ele>169.6</ele>
        <time>2012-12-16T09:47:22Z</time>
      </trkpt>
      <trkpt lat="48.77602" lon="2.17671">
        <ele>169.3</ele>
        <time>2012-12-16T09:47:27Z</time>
      </trkpt>
      <trkpt lat="48.77602" lon="2.17671">
        <ele>169.3</ele>
        <time>2012-12-16T09:47:28Z</time>
      </trkpt>
      <trkpt lat="48.77602" lon="2.1767">
        <ele>169.5</ele>
        <time>2012-12-16T09:47:37Z</time>
      </trkpt>
      <trkpt lat="48.77602" lon="2.1767">
        <ele>169.5</ele>
        <time>2012-12-16T09:47:42Z</time>
      </trkpt>
      <trkpt lat="48.77602" lon="2.1767">
        <ele>169.5</ele>
        <time>2012-12-16T09:47:47Z</time>
      </trkpt>
      <trkpt lat="48.77602" lon="2.1767">
        <ele>169.3</ele>
        <time>2012-12-16T09:47:52Z</time>
      </trkpt>
      <trkpt lat="48.77602" lon="2.1767">
        <ele>169.3</ele>
        <time>2012-12-16T09:47:57Z</time>
      </trkpt>
      <trkpt lat="48.77602" lon="2.1767">
        <ele>169.3</ele>
        <time>2012-12-16T09:48:01Z</time>
      </trkpt>
      <trkpt lat="48.77602" lon="2.1767">
        <ele>169.3</ele>
        <time>2012-12-16T09:48:06Z</time>
      </trkpt>
      <trkpt lat="48.77602" lon="2.1767">
        <ele>169.3</ele>
        <time>2012-12-16T09:48:11Z</time>
      </trkpt>
      <trkpt lat="48.77602" lon="2.1767">
        <ele>169.3</ele>
        <time>2012-12-16T09:48:15Z</time>
      </trkpt>
      <trkpt lat="48.77602" lon="2.1767">
        <ele>169.3</ele>
        <time>2012-12-16T09:48:19Z</time>
      </trkpt>
      <trkpt lat="48.77602" lon="2.1767">
        <ele>169.3</ele>
        <time>2012-12-16T09:48:24Z</time>
      </trkpt>
      <trkpt lat="48.77602" lon="2.1767">
        <ele>169.3</ele>
        <time>2012-12-16T09:48:29Z</time>
      </trkpt>
      <trkpt lat="48.77602" lon="2.1767">
        <ele>169.3</ele>
        <time>2012-12-16T09:48:30Z</time>
      </trkpt>
      <trkpt lat="48.77602" lon="2.1767">
        <ele>169.5</ele>
        <time>2012-12-16T09:48:39Z</time>
      </trkpt>
      <trkpt lat="48.77602" lon="2.17669">
        <ele>169</ele>
        <time>2012-12-16T09:48:44Z</time>
      </trkpt>
      <trkpt lat="48.77602" lon="2.17669">
        <ele>169.5</ele>
        <time>2012-12-16T09:48:49Z</time>
      </trkpt>
      <trkpt lat="48.77602" lon="2.17669">
        <ele>169.5</ele>
        <time>2012-12-16T09:48:54Z</time>
      </trkpt>
      <trkpt lat="48.77602" lon="2.17669">
        <ele>169.5</ele>
        <time>2012-12-16T09:48:59Z</time>
      </trkpt>
      <trkpt lat="48.77602" lon="2.17669">
        <ele>169.5</ele>
        <time>2012-12-16T09:49:03Z</time>
      </trkpt>
      <trkpt lat="48.77602" lon="2.17669">
        <ele>169.8</ele>
        <time>2012-12-16T09:49:08Z</time>
      </trkpt>
      <trkpt lat="48.77602" lon="2.17669">
        <ele>169.8</ele>
        <time>2012-12-16T09:49:13Z</time>
      </trkpt>
      <trkpt lat="48.77601" lon="2.17667">
        <ele>168.8</ele>
        <time>2012-12-16T09:49:17Z</time>
      </trkpt>
      <trkpt lat="48.77602" lon="2.17664">
        <ele>169.1</ele>
        <time>2012-12-16T09:49:22Z</time>
      </trkpt>
      <trkpt lat="48.77604" lon="2.17663">
        <ele>169.6</ele>
        <time>2012-12-16T09:49:27Z</time>
      </trkpt>
      <trkpt lat="48.77604" lon="2.17662">
        <ele>169.6</ele>
        <time>2012-12-16T09:49:32Z</time>
      </trkpt>
      <trkpt lat="48.77604" lon="2.17662">
        <ele>169.6</ele>
        <time>2012-12-16T09:49:33Z</time>
      </trkpt>
      <trkpt lat="48.77611" lon="2.17664">
        <ele>169.1</ele>
        <time>2012-12-16T09:49:42Z</time>
      </trkpt>
      <trkpt lat="48.77616" lon="2.17661">
        <ele>169.3</ele>
        <time>2012-12-16T09:49:47Z</time>
      </trkpt>
      <trkpt lat="48.7762" lon="2.17655">
        <ele>169.3</ele>
        <time>2012-12-16T09:49:52Z</time>
      </trkpt>
      <trkpt lat="48.77625" lon="2.17651">
        <ele>169.8</ele>
        <time>2012-12-16T09:49:57Z</time>
      </trkpt>
      <trkpt lat="48.77629" lon="2.17649">
        <ele>170.5</ele>
        <time>2012-12-16T09:50:01Z</time>
      </trkpt>
      <trkpt lat="48.77632" lon="2.17644">
        <ele>170.5</ele>
        <time>2012-12-16T09:50:06Z</time>
      </trkpt>
      <trkpt lat="48.77637" lon="2.17638">
        <ele>170.5</ele>
        <time>2012-12-16T09:50:11Z</time>
      </trkpt>
      <trkpt lat="48.7764" lon="2.17633">
        <ele>171.3</ele>
        <time>2012-12-16T09:50:15Z</time>
      </trkpt>
      <trkpt lat="48.77642" lon="2.17631">
        <ele>171.1</ele>
        <time>2012-12-16T09:50:19Z</time>
      </trkpt>
      <trkpt lat="48.77647" lon="2.17626">
        <ele>171.3</ele>
        <time>2012-12-16T09:50:24Z</time>
      </trkpt>
      <trkpt lat="48.77649" lon="2.17624">
        <ele>171.1</ele>
        <time>2012-12-16T09:50:29Z</time>
      </trkpt>
      <trkpt lat="48.77656" lon="2.17619">
        <ele>170.5</ele>
        <time>2012-12-16T09:50:34Z</time>
      </trkpt>
      <trkpt lat="48.77659" lon="2.17617">
        <ele>170.1</ele>
        <time>2012-12-16T09:50:35Z</time>
      </trkpt>
      <trkpt lat="48.77664" lon="2.17602">
        <ele>168.6</ele>
        <time>2012-12-16T09:50:44Z</time>
      </trkpt>
      <trkpt lat="48.77662" lon="2.17593">
        <ele>168.8</ele>
        <time>2012-12-16T09:50:49Z</time>
      </trkpt>
      <trkpt lat="48.77658" lon="2.17583">
        <ele>169.3</ele>
        <time>2012-12-16T09:50:54Z</time>
      </trkpt>
      <trkpt lat="48.77658" lon="2.17575">
        <ele>169.1</ele>
        <time>2012-12-16T09:50:59Z</time>
      </trkpt>
      <trkpt lat="48.77656" lon="2.17568">
        <ele>168.8</ele>
        <time>2012-12-16T09:51:03Z</time>
      </trkpt>
      <trkpt lat="48.77652" lon="2.17563">
        <ele>169.8</ele>
        <time>2012-12-16T09:51:08Z</time>
      </trkpt>
      <trkpt lat="48.77649" lon="2.17555">
        <ele>170</ele>
        <time>2012-12-16T09:51:13Z</time>
      </trkpt>
      <trkpt lat="48.77644" lon="2.1755">
        <ele>170</ele>
        <time>2012-12-16T09:51:17Z</time>
      </trkpt>
      <trkpt lat="48.7764" lon="2.1755">
        <ele>169.6</ele>
        <time>2012-12-16T09:51:22Z</time>
      </trkpt>
      <trkpt lat="48.77636" lon="2.17548">
        <ele>169.5</ele>
        <time>2012-12-16T09:51:27Z</time>
      </trkpt>
      <trkpt lat="48.7763" lon="2.17547">
        <ele>169.1</ele>
        <time>2012-12-16T09:51:32Z</time>
      </trkpt>
      <trkpt lat="48.77624" lon="2.17546">
        <ele>169.8</ele>
        <time>2012-12-16T09:51:37Z</time>
      </trkpt>
      <trkpt lat="48.77624" lon="2.17546">
        <ele>169.8</ele>
        <time>2012-12-16T09:51:38Z</time>
      </trkpt>
      <trkpt lat="48.77616" lon="2.17536">
        <ele>171.3</ele>
        <time>2012-12-16T09:51:47Z</time>
      </trkpt>
      <trkpt lat="48.77615" lon="2.17527">
        <ele>171.8</ele>
        <time>2012-12-16T09:51:52Z</time>
      </trkpt>
      <trkpt lat="48.77612" lon="2.17516">
        <ele>173</ele>
        <time>2012-12-16T09:51:57Z</time>
      </trkpt>
      <trkpt lat="48.77613" lon="2.17509">
        <ele>172.3</ele>
        <time>2012-12-16T09:52:01Z</time>
      </trkpt>
      <trkpt lat="48.77611" lon="2.17499">
        <ele>172.5</ele>
        <time>2012-12-16T09:52:06Z</time>
      </trkpt>
      <trkpt lat="48.77614" lon="2.17494">
        <ele>171.8</ele>
        <time>2012-12-16T09:52:11Z</time>
      </trkpt>
      <trkpt lat="48.77615" lon="2.17488">
        <ele>171.6</ele>
        <time>2012-12-16T09:52:15Z</time>
      </trkpt>
      <trkpt lat="48.77616" lon="2.17481">
        <ele>172</ele>
        <time>2012-12-16T09:52:19Z</time>
      </trkpt>
      <trkpt lat="48.77613" lon="2.17473">
        <ele>170.8</ele>
        <time>2012-12-16T09:52:24Z</time>
      </trkpt>
      <trkpt lat="48.77611" lon="2.17463">
        <ele>170.1</ele>
        <time>2012-12-16T09:52:29Z</time>
      </trkpt>
      <trkpt lat="48.77609" lon="2.17452">
        <ele>170.5</ele>
        <time>2012-12-16T09:52:34Z</time>
      </trkpt>
      <trkpt lat="48.77609" lon="2.17442">
        <ele>170.8</ele>
        <time>2012-12-16T09:52:39Z</time>
      </trkpt>
      <trkpt lat="48.7761" lon="2.17441">
        <ele>170.8</ele>
        <time>2012-12-16T09:52:40Z</time>
      </trkpt>
      <trkpt lat="48.77612" lon="2.17428">
        <ele>170.6</ele>
        <time>2012-12-16T09:52:49Z</time>
      </trkpt>
      <trkpt lat="48.77606" lon="2.17425">
        <ele>173.3</ele>
        <time>2012-12-16T09:52:54Z</time>
      </trkpt>
      <trkpt lat="48.776" lon="2.17428">
        <ele>172.1</ele>
        <time>2012-12-16T09:52:59Z</time>
      </trkpt>
      <trkpt lat="48.77596" lon="2.17431">
        <ele>170.8</ele>
        <time>2012-12-16T09:53:03Z</time>
      </trkpt>
      <trkpt lat="48.77591" lon="2.17439">
        <ele>167.6</ele>
        <time>2012-12-16T09:53:08Z</time>
      </trkpt>
      <trkpt lat="48.77588" lon="2.17446">
        <ele>166.3</ele>
        <time>2012-12-16T09:53:13Z</time>
      </trkpt>
      <trkpt lat="48.77585" lon="2.17451">
        <ele>165.8</ele>
        <time>2012-12-16T09:53:17Z</time>
      </trkpt>
      <trkpt lat="48.7758" lon="2.17457">
        <ele>165.5</ele>
        <time>2012-12-16T09:53:22Z</time>
      </trkpt>
      <trkpt lat="48.77578" lon="2.17459">
        <ele>165.3</ele>
        <time>2012-12-16T09:53:27Z</time>
      </trkpt>
      <trkpt lat="48.77577" lon="2.17459">
        <ele>165.6</ele>
        <time>2012-12-16T09:53:32Z</time>
      </trkpt>
      <trkpt lat="48.77571" lon="2.17463">
        <ele>165.6</ele>
        <time>2012-12-16T09:53:37Z</time>
      </trkpt>
      <trkpt lat="48.77564" lon="2.17468">
        <ele>164.8</ele>
        <time>2012-12-16T09:53:42Z</time>
      </trkpt>
      <trkpt lat="48.77563" lon="2.17468">
        <ele>164.5</ele>
        <time>2012-12-16T09:53:43Z</time>
      </trkpt>
      <trkpt lat="48.77552" lon="2.17471">
        <ele>163.6</ele>
        <time>2012-12-16T09:53:52Z</time>
      </trkpt>
      <trkpt lat="48.77548" lon="2.17472">
        <ele>162.6</ele>
        <time>2012-12-16T09:53:57Z</time>
      </trkpt>
      <trkpt lat="48.77543" lon="2.17472">
        <ele>162.3</ele>
        <time>2012-12-16T09:54:01Z</time>
      </trkpt>
      <trkpt lat="48.77539" lon="2.17473">
        <ele>162.1</ele>
        <time>2012-12-16T09:54:06Z</time>
      </trkpt>
      <trkpt lat="48.77534" lon="2.17476">
        <ele>162.3</ele>
        <time>2012-12-16T09:54:11Z</time>
      </trkpt>
      <trkpt lat="48.77527" lon="2.17478">
        <ele>163.6</ele>
        <time>2012-12-16T09:54:15Z</time>
      </trkpt>
      <trkpt lat="48.77523" lon="2.17479">
        <ele>163</ele>
        <time>2012-12-16T09:54:19Z</time>
      </trkpt>
      <trkpt lat="48.77517" lon="2.1748">
        <ele>163.3</ele>
        <time>2012-12-16T09:54:24Z</time>
      </trkpt>
      <trkpt lat="48.77512" lon="2.17481">
        <ele>162.3</ele>
        <time>2012-12-16T09:54:29Z</time>
      </trkpt>
      <trkpt lat="48.77509" lon="2.17481">
        <ele>162.8</ele>
        <time>2012-12-16T09:54:34Z</time>
      </trkpt>
      <trkpt lat="48.77504" lon="2.17482">
        <ele>162.3</ele>
        <time>2012-12-16T09:54:39Z</time>
      </trkpt>
      <trkpt lat="48.77501" lon="2.17486">
        <ele>163.1</ele>
        <time>2012-12-16T09:54:44Z</time>
      </trkpt>
      <trkpt lat="48.775" lon="2.17487">
        <ele>163.1</ele>
        <time>2012-12-16T09:54:45Z</time>
      </trkpt>
      <trkpt lat="48.77491" lon="2.17499">
        <ele>161.8</ele>
        <time>2012-12-16T09:54:54Z</time>
      </trkpt>
      <trkpt lat="48.77485" lon="2.17505">
        <ele>161.8</ele>
        <time>2012-12-16T09:54:59Z</time>
      </trkpt>
      <trkpt lat="48.7748" lon="2.1751">
        <ele>161.8</ele>
        <time>2012-12-16T09:55:03Z</time>
      </trkpt>
      <trkpt lat="48.77479" lon="2.17512">
        <ele>162.3</ele>
        <time>2012-12-16T09:55:08Z</time>
      </trkpt>
      <trkpt lat="48.77474" lon="2.17515">
        <ele>163.1</ele>
        <time>2012-12-16T09:55:13Z</time>
      </trkpt>
      <trkpt lat="48.7747" lon="2.17519">
        <ele>163.6</ele>
        <time>2012-12-16T09:55:17Z</time>
      </trkpt>
      <trkpt lat="48.77465" lon="2.17522">
        <ele>165.3</ele>
        <time>2012-12-16T09:55:22Z</time>
      </trkpt>
      <trkpt lat="48.77459" lon="2.17528">
        <ele>165.8</ele>
        <time>2012-12-16T09:55:27Z</time>
      </trkpt>
      <trkpt lat="48.77456" lon="2.17534">
        <ele>165.6</ele>
        <time>2012-12-16T09:55:32Z</time>
      </trkpt>
      <trkpt lat="48.77456" lon="2.17534">
        <ele>165.6</ele>
        <time>2012-12-16T09:55:37Z</time>
      </trkpt>
      <trkpt lat="48.77456" lon="2.17534">
        <ele>165.6</ele>
        <time>2012-12-16T09:55:42Z</time>
      </trkpt>
      <trkpt lat="48.77456" lon="2.17534">
        <ele>165.6</ele>
        <time>2012-12-16T09:55:47Z</time>
      </trkpt>
      <trkpt lat="48.77456" lon="2.17534">
        <ele>165.6</ele>
        <time>2012-12-16T09:55:48Z</time>
      </trkpt>
      <trkpt lat="48.77454" lon="2.17535">
        <ele>164.6</ele>
        <time>2012-12-16T09:55:57Z</time>
      </trkpt>
      <trkpt lat="48.77451" lon="2.17539">
        <ele>163.8</ele>
        <time>2012-12-16T09:56:01Z</time>
      </trkpt>
      <trkpt lat="48.77451" lon="2.1754">
        <ele>164</ele>
        <time>2012-12-16T09:56:06Z</time>
      </trkpt>
      <trkpt lat="48.7745" lon="2.1754">
        <ele>164.1</ele>
        <time>2012-12-16T09:56:11Z</time>
      </trkpt>
      <trkpt lat="48.77449" lon="2.1754">
        <ele>163.8</ele>
        <time>2012-12-16T09:56:15Z</time>
      </trkpt>
      <trkpt lat="48.77448" lon="2.17541">
        <ele>163.1</ele>
        <time>2012-12-16T09:56:19Z</time>
      </trkpt>
      <trkpt lat="48.77446" lon="2.17542">
        <ele>163.1</ele>
        <time>2012-12-16T09:56:24Z</time>
      </trkpt>
      <trkpt lat="48.77442" lon="2.17546">
        <ele>163.1</ele>
        <time>2012-12-16T09:56:29Z</time>
      </trkpt>
      <trkpt lat="48.77435" lon="2.17555">
        <ele>162.6</ele>
        <time>2012-12-16T09:56:34Z</time>
      </trkpt>
      <trkpt lat="48.77429" lon="2.17559">
        <ele>163.1</ele>
        <time>2012-12-16T09:56:39Z</time>
      </trkpt>
      <trkpt lat="48.77423" lon="2.17563">
        <ele>163.3</ele>
        <time>2012-12-16T09:56:44Z</time>
      </trkpt>
      <trkpt lat="48.77419" lon="2.17568">
        <ele>162.8</ele>
        <time>2012-12-16T09:56:49Z</time>
      </trkpt>
      <trkpt lat="48.77419" lon="2.17569">
        <ele>162.6</ele>
        <time>2012-12-16T09:56:50Z</time>
      </trkpt>
      <trkpt lat="48.77407" lon="2.17575">
        <ele>161.5</ele>
        <time>2012-12-16T09:56:59Z</time>
      </trkpt>
      <trkpt lat="48.77404" lon="2.17577">
        <ele>160.3</ele>
        <time>2012-12-16T09:57:03Z</time>
      </trkpt>
      <trkpt lat="48.774" lon="2.1758">
        <ele>160.6</ele>
        <time>2012-12-16T09:57:08Z</time>
      </trkpt>
      <trkpt lat="48.77399" lon="2.17581">
        <ele>160.6</ele>
        <time>2012-12-16T09:57:13Z</time>
      </trkpt>
      <trkpt lat="48.77398" lon="2.17582">
        <ele>161</ele>
        <time>2012-12-16T09:57:17Z</time>
      </trkpt>
      <trkpt lat="48.77398" lon="2.17582">
        <ele>161</ele>
        <time>2012-12-16T09:57:22Z</time>
      </trkpt>
      <trkpt lat="48.77398" lon="2.17582">
        <ele>161</ele>
        <time>2012-12-16T09:57:27Z</time>
      </trkpt>
      <trkpt lat="48.77398" lon="2.17582">
        <ele>161</ele>
        <time>2012-12-16T09:57:32Z</time>
      </trkpt>
      <trkpt lat="48.77398" lon="2.17582">
        <ele>161</ele>
        <time>2012-12-16T09:57:37Z</time>
      </trkpt>
      <trkpt lat="48.77398" lon="2.17582">
        <ele>161</ele>
        <time>2012-12-16T09:57:42Z</time>
      </trkpt>
      <trkpt lat="48.77398" lon="2.17582">
        <ele>161</ele>
        <time>2012-12-16T09:57:47Z</time>
      </trkpt>
      <trkpt lat="48.77398" lon="2.17583">
        <ele>161.3</ele>
        <time>2012-12-16T09:57:52Z</time>
      </trkpt>
      <trkpt lat="48.77398" lon="2.17583">
        <ele>161.3</ele>
        <time>2012-12-16T09:57:53Z</time>
      </trkpt>
      <trkpt lat="48.77398" lon="2.17582">
        <ele>161.3</ele>
        <time>2012-12-16T09:58:01Z</time>
      </trkpt>
      <trkpt lat="48.77398" lon="2.17581">
        <ele>160.6</ele>
        <time>2012-12-16T09:58:06Z</time>
      </trkpt>
      <trkpt lat="48.77399" lon="2.17579">
        <ele>159.6</ele>
        <time>2012-12-16T09:58:11Z</time>
      </trkpt>
      <trkpt lat="48.77398" lon="2.17579">
        <ele>159.6</ele>
        <time>2012-12-16T09:58:15Z</time>
      </trkpt>
      <trkpt lat="48.77399" lon="2.1758">
        <ele>159.1</ele>
        <time>2012-12-16T09:58:19Z</time>
      </trkpt>
      <trkpt lat="48.77399" lon="2.17579">
        <ele>158.8</ele>
        <time>2012-12-16T09:58:24Z</time>
      </trkpt>
      <trkpt lat="48.774" lon="2.17579">
        <ele>158.3</ele>
        <time>2012-12-16T09:58:29Z</time>
      </trkpt>
      <trkpt lat="48.77403" lon="2.17576">
        <ele>158.6</ele>
        <time>2012-12-16T09:58:34Z</time>
      </trkpt>
      <trkpt lat="48.77406" lon="2.17573">
        <ele>158.3</ele>
        <time>2012-12-16T09:58:39Z</time>
      </trkpt>
      <trkpt lat="48.77408" lon="2.17568">
        <ele>158.3</ele>
        <time>2012-12-16T09:58:44Z</time>
      </trkpt>
      <trkpt lat="48.77412" lon="2.17566">
        <ele>159.3</ele>
        <time>2012-12-16T09:58:49Z</time>
      </trkpt>
      <trkpt lat="48.77415" lon="2.17563">
        <ele>159.8</ele>
        <time>2012-12-16T09:58:54Z</time>
      </trkpt>
      <trkpt lat="48.77417" lon="2.17561">
        <ele>159.6</ele>
        <time>2012-12-16T09:58:55Z</time>
      </trkpt>
      <trkpt lat="48.77422" lon="2.17555">
        <ele>161.3</ele>
        <time>2012-12-16T09:59:03Z</time>
      </trkpt>
      <trkpt lat="48.77425" lon="2.17549">
        <ele>162.6</ele>
        <time>2012-12-16T09:59:08Z</time>
      </trkpt>
      <trkpt lat="48.77425" lon="2.17545">
        <ele>162.6</ele>
        <time>2012-12-16T09:59:13Z</time>
      </trkpt>
      <trkpt lat="48.77426" lon="2.17543">
        <ele>162.8</ele>
        <time>2012-12-16T09:59:17Z</time>
      </trkpt>
      <trkpt lat="48.77427" lon="2.17535">
        <ele>163.8</ele>
        <time>2012-12-16T09:59:22Z</time>
      </trkpt>
      <trkpt lat="48.77422" lon="2.17531">
        <ele>163.6</ele>
        <time>2012-12-16T09:59:27Z</time>
      </trkpt>
      <trkpt lat="48.7742" lon="2.1753">
        <ele>163.6</ele>
        <time>2012-12-16T09:59:32Z</time>
      </trkpt>
      <trkpt lat="48.77417" lon="2.17533">
        <ele>162.1</ele>
        <time>2012-12-16T09:59:37Z</time>
      </trkpt>
      <trkpt lat="48.77411" lon="2.17537">
        <ele>161.1</ele>
        <time>2012-12-16T09:59:42Z</time>
      </trkpt>
      <trkpt lat="48.77406" lon="2.17538">
        <ele>162.1</ele>
        <time>2012-12-16T09:59:47Z</time>
      </trkpt>
      <trkpt lat="48.774" lon="2.1754">
        <ele>160.5</ele>
        <time>2012-12-16T09:59:52Z</time>
      </trkpt>
      <trkpt lat="48.77395" lon="2.1754">
        <ele>159.6</ele>
        <time>2012-12-16T09:59:57Z</time>
      </trkpt>
      <trkpt lat="48.77395" lon="2.1754">
        <ele>159.6</ele>
        <time>2012-12-16T09:59:58Z</time>
      </trkpt>
      <trkpt lat="48.77389" lon="2.17539">
        <ele>159.8</ele>
        <time>2012-12-16T10:00:06Z</time>
      </trkpt>
      <trkpt lat="48.77389" lon="2.17538">
        <ele>160.1</ele>
        <time>2012-12-16T10:00:11Z</time>
      </trkpt>
      <trkpt lat="48.77389" lon="2.17538">
        <ele>159.6</ele>
        <time>2012-12-16T10:00:15Z</time>
      </trkpt>
      <trkpt lat="48.77389" lon="2.17538">
        <ele>159.6</ele>
        <time>2012-12-16T10:00:19Z</time>
      </trkpt>
      <trkpt lat="48.77389" lon="2.17538">
        <ele>159.6</ele>
        <time>2012-12-16T10:00:24Z</time>
      </trkpt>
      <trkpt lat="48.77386" lon="2.17536">
        <ele>160.6</ele>
        <time>2012-12-16T10:00:29Z</time>
      </trkpt>
      <trkpt lat="48.77382" lon="2.17533">
        <ele>161.1</ele>
        <time>2012-12-16T10:00:34Z</time>
      </trkpt>
      <trkpt lat="48.77378" lon="2.17531">
        <ele>160.5</ele>
        <time>2012-12-16T10:00:39Z</time>
      </trkpt>
      <trkpt lat="48.77373" lon="2.17527">
        <ele>160.3</ele>
        <time>2012-12-16T10:00:44Z</time>
      </trkpt>
      <trkpt lat="48.77368" lon="2.17524">
        <ele>160.8</ele>
        <time>2012-12-16T10:00:49Z</time>
      </trkpt>
      <trkpt lat="48.77362" lon="2.1752">
        <ele>161.6</ele>
        <time>2012-12-16T10:00:54Z</time>
      </trkpt>
      <trkpt lat="48.77356" lon="2.17517">
        <ele>162.3</ele>
        <time>2012-12-16T10:00:59Z</time>
      </trkpt>
      <trkpt lat="48.77356" lon="2.17517">
        <ele>162.1</ele>
        <time>2012-12-16T10:01:00Z</time>
      </trkpt>
      <trkpt lat="48.77347" lon="2.17512">
        <ele>161.5</ele>
        <time>2012-12-16T10:01:08Z</time>
      </trkpt>
      <trkpt lat="48.77342" lon="2.17509">
        <ele>160.6</ele>
        <time>2012-12-16T10:01:13Z</time>
      </trkpt>
      <trkpt lat="48.77339" lon="2.17507">
        <ele>159.6</ele>
        <time>2012-12-16T10:01:17Z</time>
      </trkpt>
      <trkpt lat="48.77333" lon="2.17504">
        <ele>158.6</ele>
        <time>2012-12-16T10:01:22Z</time>
      </trkpt>
      <trkpt lat="48.77329" lon="2.17501">
        <ele>158.6</ele>
        <time>2012-12-16T10:01:27Z</time>
      </trkpt>
      <trkpt lat="48.77326" lon="2.17498">
        <ele>158</ele>
        <time>2012-12-16T10:01:32Z</time>
      </trkpt>
      <trkpt lat="48.7732" lon="2.17495">
        <ele>158.6</ele>
        <time>2012-12-16T10:01:37Z</time>
      </trkpt>
      <trkpt lat="48.77315" lon="2.17494">
        <ele>156.3</ele>
        <time>2012-12-16T10:01:42Z</time>
      </trkpt>
      <trkpt lat="48.77311" lon="2.17494">
        <ele>155.6</ele>
        <time>2012-12-16T10:01:47Z</time>
      </trkpt>
      <trkpt lat="48.77309" lon="2.17494">
        <ele>155.3</ele>
        <time>2012-12-16T10:01:52Z</time>
      </trkpt>
      <trkpt lat="48.77307" lon="2.17493">
        <ele>154.3</ele>
        <time>2012-12-16T10:01:57Z</time>
      </trkpt>
      <trkpt lat="48.77303" lon="2.17494">
        <ele>153.3</ele>
        <time>2012-12-16T10:02:01Z</time>
      </trkpt>
      <trkpt lat="48.77303" lon="2.17494">
        <ele>153.3</ele>
        <time>2012-12-16T10:02:02Z</time>
      </trkpt>
      <trkpt lat="48.77295" lon="2.17491">
        <ele>155.1</ele>
        <time>2012-12-16T10:02:11Z</time>
      </trkpt>
      <trkpt lat="48.77292" lon="2.17488">
        <ele>154.8</ele>
        <time>2012-12-16T10:02:15Z</time>
      </trkpt>
      <trkpt lat="48.77285" lon="2.17486">
        <ele>155.1</ele>
        <time>2012-12-16T10:02:19Z</time>
      </trkpt>
      <trkpt lat="48.77284" lon="2.17486">
        <ele>154.6</ele>
        <time>2012-12-16T10:02:24Z</time>
      </trkpt>
      <trkpt lat="48.77278" lon="2.17483">
        <ele>154.6</ele>
        <time>2012-12-16T10:02:29Z</time>
      </trkpt>
      <trkpt lat="48.77275" lon="2.17482">
        <ele>153.5</ele>
        <time>2012-12-16T10:02:34Z</time>
      </trkpt>
      <trkpt lat="48.77269" lon="2.1748">
        <ele>153.3</ele>
        <time>2012-12-16T10:02:39Z</time>
      </trkpt>
      <trkpt lat="48.77264" lon="2.17478">
        <ele>152.8</ele>
        <time>2012-12-16T10:02:44Z</time>
      </trkpt>
      <trkpt lat="48.7726" lon="2.17476">
        <ele>152.6</ele>
        <time>2012-12-16T10:02:49Z</time>
      </trkpt>
      <trkpt lat="48.77254" lon="2.17474">
        <ele>152.3</ele>
        <time>2012-12-16T10:02:54Z</time>
      </trkpt>
      <trkpt lat="48.77249" lon="2.17471">
        <ele>151.1</ele>
        <time>2012-12-16T10:02:59Z</time>
      </trkpt>
      <trkpt lat="48.77245" lon="2.17467">
        <ele>149.8</ele>
        <time>2012-12-16T10:03:03Z</time>
      </trkpt>
      <trkpt lat="48.77245" lon="2.17466">
        <ele>149.5</ele>
        <time>2012-12-16T10:03:04Z</time>
      </trkpt>
      <trkpt lat="48.77237" lon="2.17455">
        <ele>148.6</ele>
        <time>2012-12-16T10:03:13Z</time>
      </trkpt>
      <trkpt lat="48.77236" lon="2.1745">
        <ele>146</ele>
        <time>2012-12-16T10:03:17Z</time>
      </trkpt>
      <trkpt lat="48.77233" lon="2.17447">
        <ele>145.1</ele>
        <time>2012-12-16T10:03:22Z</time>
      </trkpt>
      <trkpt lat="48.77231" lon="2.17444">
        <ele>146</ele>
        <time>2012-12-16T10:03:27Z</time>
      </trkpt>
      <trkpt lat="48.77227" lon="2.17439">
        <ele>147.3</ele>
        <time>2012-12-16T10:03:32Z</time>
      </trkpt>
      <trkpt lat="48.77223" lon="2.17432">
        <ele>147.8</ele>
        <time>2012-12-16T10:03:37Z</time>
      </trkpt>
      <trkpt lat="48.77216" lon="2.17424">
        <ele>147.6</ele>
        <time>2012-12-16T10:03:42Z</time>
      </trkpt>
      <trkpt lat="48.77214" lon="2.17421">
        <ele>147.3</ele>
        <time>2012-12-16T10:03:47Z</time>
      </trkpt>
      <trkpt lat="48.77212" lon="2.17418">
        <ele>146.6</ele>
        <time>2012-12-16T10:03:52Z</time>
      </trkpt>
      <trkpt lat="48.77209" lon="2.17415">
        <ele>146.6</ele>
        <time>2012-12-16T10:03:57Z</time>
      </trkpt>
      <trkpt lat="48.77208" lon="2.17413">
        <ele>146.5</ele>
        <time>2012-12-16T10:04:01Z</time>
      </trkpt>
      <trkpt lat="48.77203" lon="2.17408">
        <ele>145.8</ele>
        <time>2012-12-16T10:04:06Z</time>
      </trkpt>
      <trkpt lat="48.77202" lon="2.17407">
        <ele>145.6</ele>
        <time>2012-12-16T10:04:07Z</time>
      </trkpt>
      <trkpt lat="48.77196" lon="2.17395">
        <ele>143.5</ele>
        <time>2012-12-16T10:04:15Z</time>
      </trkpt>
      <trkpt lat="48.77196" lon="2.17391">
        <ele>142.3</ele>
        <time>2012-12-16T10:04:19Z</time>
      </trkpt>
      <trkpt lat="48.77194" lon="2.17388">
        <ele>142.1</ele>
        <time>2012-12-16T10:04:24Z</time>
      </trkpt>
      <trkpt lat="48.77191" lon="2.17382">
        <ele>140.3</ele>
        <time>2012-12-16T10:04:29Z</time>
      </trkpt>
      <trkpt lat="48.77188" lon="2.17378">
        <ele>138</ele>
        <time>2012-12-16T10:04:34Z</time>
      </trkpt>
      <trkpt lat="48.77187" lon="2.17375">
        <ele>138</ele>
        <time>2012-12-16T10:04:39Z</time>
      </trkpt>
      <trkpt lat="48.77187" lon="2.17375">
        <ele>138</ele>
        <time>2012-12-16T10:04:44Z</time>
      </trkpt>
      <trkpt lat="48.77187" lon="2.17375">
        <ele>137.8</ele>
        <time>2012-12-16T10:04:49Z</time>
      </trkpt>
      <trkpt lat="48.77187" lon="2.17375">
        <ele>137.8</ele>
        <time>2012-12-16T10:04:54Z</time>
      </trkpt>
      <trkpt lat="48.77187" lon="2.17375">
        <ele>137.6</ele>
        <time>2012-12-16T10:04:59Z</time>
      </trkpt>
      <trkpt lat="48.77187" lon="2.17375">
        <ele>137.6</ele>
        <time>2012-12-16T10:05:03Z</time>
      </trkpt>
      <trkpt lat="48.77187" lon="2.17375">
        <ele>137.6</ele>
        <time>2012-12-16T10:05:08Z</time>
      </trkpt>
      <trkpt lat="48.77187" lon="2.17375">
        <ele>137.6</ele>
        <time>2012-12-16T10:05:09Z</time>
      </trkpt>
      <trkpt lat="48.77187" lon="2.17375">
        <ele>136.8</ele>
        <time>2012-12-16T10:05:17Z</time>
      </trkpt>
      <trkpt lat="48.77187" lon="2.17374">
        <ele>136.1</ele>
        <time>2012-12-16T10:05:22Z</time>
      </trkpt>
      <trkpt lat="48.77186" lon="2.17372">
        <ele>135.5</ele>
        <time>2012-12-16T10:05:27Z</time>
      </trkpt>
      <trkpt lat="48.77182" lon="2.17367">
        <ele>132.1</ele>
        <time>2012-12-16T10:05:32Z</time>
      </trkpt>
      <trkpt lat="48.77181" lon="2.17364">
        <ele>131.3</ele>
        <time>2012-12-16T10:05:37Z</time>
      </trkpt>
      <trkpt lat="48.77182" lon="2.17358">
        <ele>130.3</ele>
        <time>2012-12-16T10:05:42Z</time>
      </trkpt>
      <trkpt lat="48.77182" lon="2.17352">
        <ele>130</ele>
        <time>2012-12-16T10:05:47Z</time>
      </trkpt>
      <trkpt lat="48.77182" lon="2.17352">
        <ele>130</ele>
        <time>2012-12-16T10:05:52Z</time>
      </trkpt>
      <trkpt lat="48.77182" lon="2.17352">
        <ele>130</ele>
        <time>2012-12-16T10:05:57Z</time>
      </trkpt>
      <trkpt lat="48.77182" lon="2.17352">
        <ele>130</ele>
        <time>2012-12-16T10:06:01Z</time>
      </trkpt>
      <trkpt lat="48.77182" lon="2.17352">
        <ele>130</ele>
        <time>2012-12-16T10:06:06Z</time>
      </trkpt>
      <trkpt lat="48.77182" lon="2.17352">
        <ele>129.5</ele>
        <time>2012-12-16T10:06:11Z</time>
      </trkpt>
      <trkpt lat="48.77182" lon="2.17352">
        <ele>129.5</ele>
        <time>2012-12-16T10:06:12Z</time>
      </trkpt>
      <trkpt lat="48.77182" lon="2.17352">
        <ele>129.5</ele>
        <time>2012-12-16T10:06:19Z</time>
      </trkpt>
      <trkpt lat="48.77181" lon="2.1735">
        <ele>128.6</ele>
        <time>2012-12-16T10:06:24Z</time>
      </trkpt>
      <trkpt lat="48.77175" lon="2.17346">
        <ele>129.1</ele>
        <time>2012-12-16T10:06:29Z</time>
      </trkpt>
      <trkpt lat="48.77173" lon="2.17346">
        <ele>128.1</ele>
        <time>2012-12-16T10:06:34Z</time>
      </trkpt>
      <trkpt lat="48.7717" lon="2.17345">
        <ele>127.8</ele>
        <time>2012-12-16T10:06:39Z</time>
      </trkpt>
      <trkpt lat="48.77166" lon="2.17339">
        <ele>128</ele>
        <time>2012-12-16T10:06:44Z</time>
      </trkpt>
      <trkpt lat="48.77162" lon="2.17334">
        <ele>128.3</ele>
        <time>2012-12-16T10:06:49Z</time>
      </trkpt>
      <trkpt lat="48.77159" lon="2.17327">
        <ele>128.3</ele>
        <time>2012-12-16T10:06:54Z</time>
      </trkpt>
      <trkpt lat="48.77159" lon="2.17326">
        <ele>127.9</ele>
        <time>2012-12-16T10:06:59Z</time>
      </trkpt>
      <trkpt lat="48.77158" lon="2.17325">
        <ele>128.6</ele>
        <time>2012-12-16T10:07:03Z</time>
      </trkpt>
      <trkpt lat="48.77157" lon="2.17321">
        <ele>127.6</ele>
        <time>2012-12-16T10:07:08Z</time>
      </trkpt>
      <trkpt lat="48.77153" lon="2.17316">
        <ele>128</ele>
        <time>2012-12-16T10:07:13Z</time>
      </trkpt>
      <trkpt lat="48.77152" lon="2.17314">
        <ele>128.3</ele>
        <time>2012-12-16T10:07:14Z</time>
      </trkpt>
      <trkpt lat="48.77145" lon="2.17302">
        <ele>127.8</ele>
        <time>2012-12-16T10:07:22Z</time>
      </trkpt>
      <trkpt lat="48.77143" lon="2.17297">
        <ele>126.6</ele>
        <time>2012-12-16T10:07:27Z</time>
      </trkpt>
      <trkpt lat="48.77142" lon="2.17297">
        <ele>126.4</ele>
        <time>2012-12-16T10:07:32Z</time>
      </trkpt>
      <trkpt lat="48.77138" lon="2.17297">
        <ele>126.8</ele>
        <time>2012-12-16T10:07:37Z</time>
      </trkpt>
      <trkpt lat="48.77134" lon="2.17293">
        <ele>125.3</ele>
        <time>2012-12-16T10:07:42Z</time>
      </trkpt>
      <trkpt lat="48.77129" lon="2.17285">
        <ele>125.4</ele>
        <time>2012-12-16T10:07:47Z</time>
      </trkpt>
      <trkpt lat="48.77124" lon="2.17276">
        <ele>126.6</ele>
        <time>2012-12-16T10:07:52Z</time>
      </trkpt>
      <trkpt lat="48.7712" lon="2.17269">
        <ele>126.5</ele>
        <time>2012-12-16T10:07:57Z</time>
      </trkpt>
      <trkpt lat="48.7712" lon="2.17266">
        <ele>126.1</ele>
        <time>2012-12-16T10:08:01Z</time>
      </trkpt>
      <trkpt lat="48.77116" lon="2.17257">
        <ele>126.4</ele>
        <time>2012-12-16T10:08:06Z</time>
      </trkpt>
      <trkpt lat="48.77113" lon="2.1725">
        <ele>126.5</ele>
        <time>2012-12-16T10:08:11Z</time>
      </trkpt>
      <trkpt lat="48.7711" lon="2.17244">
        <ele>127.1</ele>
        <time>2012-12-16T10:08:15Z</time>
      </trkpt>
      <trkpt lat="48.7711" lon="2.17243">
        <ele>126.9</ele>
        <time>2012-12-16T10:08:16Z</time>
      </trkpt>
      <trkpt lat="48.77105" lon="2.17234">
        <ele>125.4</ele>
        <time>2012-12-16T10:08:24Z</time>
      </trkpt>
      <trkpt lat="48.77102" lon="2.17227">
        <ele>125</ele>
        <time>2012-12-16T10:08:29Z</time>
      </trkpt>
      <trkpt lat="48.77097" lon="2.17219">
        <ele>125.5</ele>
        <time>2012-12-16T10:08:34Z</time>
      </trkpt>
      <trkpt lat="48.77093" lon="2.17216">
        <ele>125.3</ele>
        <time>2012-12-16T10:08:39Z</time>
      </trkpt>
      <trkpt lat="48.7709" lon="2.1721">
        <ele>125.5</ele>
        <time>2012-12-16T10:08:44Z</time>
      </trkpt>
      <trkpt lat="48.77088" lon="2.17205">
        <ele>126</ele>
        <time>2012-12-16T10:08:49Z</time>
      </trkpt>
      <trkpt lat="48.77083" lon="2.17197">
        <ele>125.5</ele>
        <time>2012-12-16T10:08:54Z</time>
      </trkpt>
      <trkpt lat="48.77081" lon="2.17192">
        <ele>126.6</ele>
        <time>2012-12-16T10:08:59Z</time>
      </trkpt>
      <trkpt lat="48.77076" lon="2.17186">
        <ele>127.5</ele>
        <time>2012-12-16T10:09:03Z</time>
      </trkpt>
      <trkpt lat="48.77073" lon="2.17181">
        <ele>127.5</ele>
        <time>2012-12-16T10:09:08Z</time>
      </trkpt>
      <trkpt lat="48.77069" lon="2.17172">
        <ele>128</ele>
        <time>2012-12-16T10:09:13Z</time>
      </trkpt>
      <trkpt lat="48.77066" lon="2.17167">
        <ele>129.1</ele>
        <time>2012-12-16T10:09:17Z</time>
      </trkpt>
      <trkpt lat="48.77064" lon="2.17165">
        <ele>129.1</ele>
        <time>2012-12-16T10:09:18Z</time>
      </trkpt>
      <trkpt lat="48.77056" lon="2.17155">
        <ele>130.6</ele>
        <time>2012-12-16T10:09:27Z</time>
      </trkpt>
      <trkpt lat="48.77052" lon="2.17149">
        <ele>132.5</ele>
        <time>2012-12-16T10:09:32Z</time>
      </trkpt>
      <trkpt lat="48.77048" lon="2.17144">
        <ele>133</ele>
        <time>2012-12-16T10:09:37Z</time>
      </trkpt>
      <trkpt lat="48.77044" lon="2.1714">
        <ele>133.6</ele>
        <time>2012-12-16T10:09:42Z</time>
      </trkpt>
      <trkpt lat="48.77039" lon="2.17133">
        <ele>133.3</ele>
        <time>2012-12-16T10:09:47Z</time>
      </trkpt>
      <trkpt lat="48.77033" lon="2.17126">
        <ele>134.8</ele>
        <time>2012-12-16T10:09:52Z</time>
      </trkpt>
      <trkpt lat="48.77028" lon="2.17118">
        <ele>135.6</ele>
        <time>2012-12-16T10:09:57Z</time>
      </trkpt>
      <trkpt lat="48.77026" lon="2.17115">
        <ele>136.6</ele>
        <time>2012-12-16T10:10:01Z</time>
      </trkpt>
      <trkpt lat="48.77022" lon="2.17108">
        <ele>137.3</ele>
        <time>2012-12-16T10:10:06Z</time>
      </trkpt>
      <trkpt lat="48.77018" lon="2.17102">
        <ele>138.3</ele>
        <time>2012-12-16T10:10:11Z</time>
      </trkpt>
      <trkpt lat="48.77012" lon="2.17095">
        <ele>139.3</ele>
        <time>2012-12-16T10:10:15Z</time>
      </trkpt>
      <trkpt lat="48.77006" lon="2.17088">
        <ele>140.5</ele>
        <time>2012-12-16T10:10:19Z</time>
      </trkpt>
      <trkpt lat="48.77005" lon="2.17087">
        <ele>140.6</ele>
        <time>2012-12-16T10:10:20Z</time>
      </trkpt>
      <trkpt lat="48.76992" lon="2.17078">
        <ele>138.6</ele>
        <time>2012-12-16T10:10:29Z</time>
      </trkpt>
      <trkpt lat="48.76984" lon="2.17077">
        <ele>136.8</ele>
        <time>2012-12-16T10:10:34Z</time>
      </trkpt>
      <trkpt lat="48.76982" lon="2.17076">
        <ele>135.6</ele>
        <time>2012-12-16T10:10:39Z</time>
      </trkpt>
      <trkpt lat="48.76977" lon="2.17072">
        <ele>136.3</ele>
        <time>2012-12-16T10:10:44Z</time>
      </trkpt>
      <trkpt lat="48.76968" lon="2.17071">
        <ele>133.1</ele>
        <time>2012-12-16T10:10:49Z</time>
      </trkpt>
      <trkpt lat="48.76959" lon="2.1707">
        <ele>130.6</ele>
        <time>2012-12-16T10:10:54Z</time>
      </trkpt>
      <trkpt lat="48.76951" lon="2.17068">
        <ele>128.3</ele>
        <time>2012-12-16T10:10:59Z</time>
      </trkpt>
      <trkpt lat="48.76944" lon="2.17065">
        <ele>127.4</ele>
        <time>2012-12-16T10:11:03Z</time>
      </trkpt>
      <trkpt lat="48.76934" lon="2.17063">
        <ele>124.9</ele>
        <time>2012-12-16T10:11:08Z</time>
      </trkpt>
      <trkpt lat="48.76927" lon="2.1706">
        <ele>123</ele>
        <time>2012-12-16T10:11:13Z</time>
      </trkpt>
      <trkpt lat="48.76923" lon="2.17058">
        <ele>121.3</ele>
        <time>2012-12-16T10:11:17Z</time>
      </trkpt>
      <trkpt lat="48.76917" lon="2.17054">
        <ele>119.9</ele>
        <time>2012-12-16T10:11:22Z</time>
      </trkpt>
      <trkpt lat="48.76916" lon="2.17053">
        <ele>119.5</ele>
        <time>2012-12-16T10:11:23Z</time>
      </trkpt>
      <trkpt lat="48.76905" lon="2.17046">
        <ele>118</ele>
        <time>2012-12-16T10:11:32Z</time>
      </trkpt>
      <trkpt lat="48.76897" lon="2.17041">
        <ele>117.5</ele>
        <time>2012-12-16T10:11:37Z</time>
      </trkpt>
      <trkpt lat="48.76892" lon="2.17036">
        <ele>116.4</ele>
        <time>2012-12-16T10:11:42Z</time>
      </trkpt>
      <trkpt lat="48.76885" lon="2.17031">
        <ele>116.1</ele>
        <time>2012-12-16T10:11:47Z</time>
      </trkpt>
      <trkpt lat="48.7688" lon="2.17026">
        <ele>114</ele>
        <time>2012-12-16T10:11:52Z</time>
      </trkpt>
      <trkpt lat="48.76873" lon="2.17021">
        <ele>112.3</ele>
        <time>2012-12-16T10:11:57Z</time>
      </trkpt>
      <trkpt lat="48.76866" lon="2.17018">
        <ele>111.1</ele>
        <time>2012-12-16T10:12:01Z</time>
      </trkpt>
      <trkpt lat="48.7686" lon="2.17013">
        <ele>110.1</ele>
        <time>2012-12-16T10:12:06Z</time>
      </trkpt>
      <trkpt lat="48.76856" lon="2.17003">
        <ele>108.5</ele>
        <time>2012-12-16T10:12:11Z</time>
      </trkpt>
      <trkpt lat="48.76852" lon="2.16997">
        <ele>106.6</ele>
        <time>2012-12-16T10:12:15Z</time>
      </trkpt>
      <trkpt lat="48.76849" lon="2.16991">
        <ele>105.1</ele>
        <time>2012-12-16T10:12:19Z</time>
      </trkpt>
      <trkpt lat="48.76845" lon="2.16982">
        <ele>104.5</ele>
        <time>2012-12-16T10:12:24Z</time>
      </trkpt>
      <trkpt lat="48.76845" lon="2.16981">
        <ele>104.5</ele>
        <time>2012-12-16T10:12:25Z</time>
      </trkpt>
      <trkpt lat="48.76839" lon="2.16966">
        <ele>103.9</ele>
        <time>2012-12-16T10:12:34Z</time>
      </trkpt>
      <trkpt lat="48.76837" lon="2.16956">
        <ele>104.4</ele>
        <time>2012-12-16T10:12:39Z</time>
      </trkpt>
      <trkpt lat="48.76833" lon="2.16948">
        <ele>103.3</ele>
        <time>2012-12-16T10:12:44Z</time>
      </trkpt>
      <trkpt lat="48.76828" lon="2.16939">
        <ele>103</ele>
        <time>2012-12-16T10:12:49Z</time>
      </trkpt>
      <trkpt lat="48.76831" lon="2.16931">
        <ele>102</ele>
        <time>2012-12-16T10:12:54Z</time>
      </trkpt>
      <trkpt lat="48.76834" lon="2.16924">
        <ele>103.3</ele>
        <time>2012-12-16T10:12:59Z</time>
      </trkpt>
      <trkpt lat="48.76835" lon="2.16923">
        <ele>104</ele>
        <time>2012-12-16T10:13:03Z</time>
      </trkpt>
      <trkpt lat="48.76838" lon="2.1692">
        <ele>105.5</ele>
        <time>2012-12-16T10:13:08Z</time>
      </trkpt>
      <trkpt lat="48.76839" lon="2.16916">
        <ele>105.5</ele>
        <time>2012-12-16T10:13:13Z</time>
      </trkpt>
      <trkpt lat="48.76842" lon="2.16913">
        <ele>106.6</ele>
        <time>2012-12-16T10:13:17Z</time>
      </trkpt>
      <trkpt lat="48.76844" lon="2.16908">
        <ele>105.5</ele>
        <time>2012-12-16T10:13:22Z</time>
      </trkpt>
      <trkpt lat="48.76846" lon="2.16903">
        <ele>105</ele>
        <time>2012-12-16T10:13:27Z</time>
      </trkpt>
      <trkpt lat="48.76847" lon="2.16902">
        <ele>104.8</ele>
        <time>2012-12-16T10:13:28Z</time>
      </trkpt>
      <trkpt lat="48.76857" lon="2.16893">
        <ele>105.4</ele>
        <time>2012-12-16T10:13:37Z</time>
      </trkpt>
      <trkpt lat="48.76857" lon="2.16892">
        <ele>104.5</ele>
        <time>2012-12-16T10:13:42Z</time>
      </trkpt>
      <trkpt lat="48.76859" lon="2.1689">
        <ele>103.8</ele>
        <time>2012-12-16T10:13:47Z</time>
      </trkpt>
      <trkpt lat="48.76863" lon="2.16888">
        <ele>103.5</ele>
        <time>2012-12-16T10:13:52Z</time>
      </trkpt>
      <trkpt lat="48.76869" lon="2.16885">
        <ele>104.1</ele>
        <time>2012-12-16T10:13:57Z</time>
      </trkpt>
      <trkpt lat="48.76875" lon="2.16881">
        <ele>105.1</ele>
        <time>2012-12-16T10:14:01Z</time>
      </trkpt>
      <trkpt lat="48.76878" lon="2.16877">
        <ele>105.8</ele>
        <time>2012-12-16T10:14:06Z</time>
      </trkpt>
      <trkpt lat="48.76883" lon="2.16872">
        <ele>105.4</ele>
        <time>2012-12-16T10:14:11Z</time>
      </trkpt>
      <trkpt lat="48.76887" lon="2.1687">
        <ele>105.5</ele>
        <time>2012-12-16T10:14:15Z</time>
      </trkpt>
      <trkpt lat="48.7689" lon="2.16867">
        <ele>105</ele>
        <time>2012-12-16T10:14:19Z</time>
      </trkpt>
      <trkpt lat="48.76895" lon="2.16864">
        <ele>103.6</ele>
        <time>2012-12-16T10:14:24Z</time>
      </trkpt>
      <trkpt lat="48.76896" lon="2.16863">
        <ele>103</ele>
        <time>2012-12-16T10:14:29Z</time>
      </trkpt>
      <trkpt lat="48.76896" lon="2.16863">
        <ele>103</ele>
        <time>2012-12-16T10:14:30Z</time>
      </trkpt>
      <trkpt lat="48.76903" lon="2.16859">
        <ele>104.6</ele>
        <time>2012-12-16T10:14:39Z</time>
      </trkpt>
      <trkpt lat="48.76909" lon="2.16856">
        <ele>105.4</ele>
        <time>2012-12-16T10:14:44Z</time>
      </trkpt>
      <trkpt lat="48.76914" lon="2.16856">
        <ele>105.5</ele>
        <time>2012-12-16T10:14:49Z</time>
      </trkpt>
      <trkpt lat="48.76919" lon="2.16857">
        <ele>103.3</ele>
        <time>2012-12-16T10:14:54Z</time>
      </trkpt>
      <trkpt lat="48.76921" lon="2.16858">
        <ele>101.8</ele>
        <time>2012-12-16T10:14:59Z</time>
      </trkpt>
      <trkpt lat="48.76923" lon="2.16858">
        <ele>101</ele>
        <time>2012-12-16T10:15:03Z</time>
      </trkpt>
      <trkpt lat="48.76927" lon="2.16858">
        <ele>100</ele>
        <time>2012-12-16T10:15:08Z</time>
      </trkpt>
      <trkpt lat="48.76927" lon="2.16861">
        <ele>97</ele>
        <time>2012-12-16T10:15:13Z</time>
      </trkpt>
      <trkpt lat="48.76924" lon="2.16868">
        <ele>93.5</ele>
        <time>2012-12-16T10:15:17Z</time>
      </trkpt>
      <trkpt lat="48.76925" lon="2.16868">
        <ele>94</ele>
        <time>2012-12-16T10:15:22Z</time>
      </trkpt>
      <trkpt lat="48.76925" lon="2.16868">
        <ele>94</ele>
        <time>2012-12-16T10:15:27Z</time>
      </trkpt>
      <trkpt lat="48.76925" lon="2.16868">
        <ele>94</ele>
        <time>2012-12-16T10:15:32Z</time>
      </trkpt>
      <trkpt lat="48.76925" lon="2.16868">
        <ele>94</ele>
        <time>2012-12-16T10:15:33Z</time>
      </trkpt>
      <trkpt lat="48.76927" lon="2.16868">
        <ele>94.1</ele>
        <time>2012-12-16T10:15:42Z</time>
      </trkpt>
      <trkpt lat="48.76927" lon="2.16868">
        <ele>94.1</ele>
        <time>2012-12-16T10:15:47Z</time>
      </trkpt>
      <trkpt lat="48.76927" lon="2.16868">
        <ele>94.1</ele>
        <time>2012-12-16T10:15:52Z</time>
      </trkpt>
      <trkpt lat="48.76927" lon="2.16868">
        <ele>94.1</ele>
        <time>2012-12-16T10:15:57Z</time>
      </trkpt>
      <trkpt lat="48.76928" lon="2.16867">
        <ele>94.1</ele>
        <time>2012-12-16T10:16:01Z</time>
      </trkpt>
      <trkpt lat="48.76928" lon="2.16867">
        <ele>94.1</ele>
        <time>2012-12-16T10:16:06Z</time>
      </trkpt>
      <trkpt lat="48.76928" lon="2.16867">
        <ele>94.3</ele>
        <time>2012-12-16T10:16:11Z</time>
      </trkpt>
      <trkpt lat="48.76928" lon="2.16867">
        <ele>94.3</ele>
        <time>2012-12-16T10:16:15Z</time>
      </trkpt>
      <trkpt lat="48.76928" lon="2.16867">
        <ele>94.3</ele>
        <time>2012-12-16T10:16:19Z</time>
      </trkpt>
      <trkpt lat="48.76928" lon="2.16867">
        <ele>94.3</ele>
        <time>2012-12-16T10:16:24Z</time>
      </trkpt>
      <trkpt lat="48.76928" lon="2.16867">
        <ele>94.3</ele>
        <time>2012-12-16T10:16:29Z</time>
      </trkpt>
      <trkpt lat="48.76928" lon="2.16867">
        <ele>94.3</ele>
        <time>2012-12-16T10:16:34Z</time>
      </trkpt>
      <trkpt lat="48.76928" lon="2.16867">
        <ele>94.3</ele>
        <time>2012-12-16T10:16:35Z</time>
      </trkpt>
      <trkpt lat="48.7693" lon="2.16866">
        <ele>95.8</ele>
        <time>2012-12-16T10:16:44Z</time>
      </trkpt>
      <trkpt lat="48.76933" lon="2.16863">
        <ele>98.6</ele>
        <time>2012-12-16T10:16:49Z</time>
      </trkpt>
      <trkpt lat="48.76936" lon="2.1686">
        <ele>102.5</ele>
        <time>2012-12-16T10:16:54Z</time>
      </trkpt>
      <trkpt lat="48.76939" lon="2.16858">
        <ele>108.4</ele>
        <time>2012-12-16T10:16:59Z</time>
      </trkpt>
      <trkpt lat="48.76939" lon="2.16857">
        <ele>108.8</ele>
        <time>2012-12-16T10:17:03Z</time>
      </trkpt>
      <trkpt lat="48.7694" lon="2.16855">
        <ele>111</ele>
        <time>2012-12-16T10:17:08Z</time>
      </trkpt>
      <trkpt lat="48.76941" lon="2.1685">
        <ele>114.5</ele>
        <time>2012-12-16T10:17:13Z</time>
      </trkpt>
      <trkpt lat="48.76942" lon="2.16843">
        <ele>116</ele>
        <time>2012-12-16T10:17:17Z</time>
      </trkpt>
      <trkpt lat="48.7694" lon="2.16841">
        <ele>116.5</ele>
        <time>2012-12-16T10:17:22Z</time>
      </trkpt>
      <trkpt lat="48.76938" lon="2.16841">
        <ele>116.6</ele>
        <time>2012-12-16T10:17:27Z</time>
      </trkpt>
      <trkpt lat="48.76938" lon="2.16843">
        <ele>118.1</ele>
        <time>2012-12-16T10:17:32Z</time>
      </trkpt>
      <trkpt lat="48.76938" lon="2.16849">
        <ele>120</ele>
        <time>2012-12-16T10:17:37Z</time>
      </trkpt>
      <trkpt lat="48.76938" lon="2.1685">
        <ele>121</ele>
        <time>2012-12-16T10:17:38Z</time>
      </trkpt>
      <trkpt lat="48.76939" lon="2.16851">
        <ele>122</ele>
        <time>2012-12-16T10:17:47Z</time>
      </trkpt>
      <trkpt lat="48.76939" lon="2.16848">
        <ele>123</ele>
        <time>2012-12-16T10:17:52Z</time>
      </trkpt>
      <trkpt lat="48.76938" lon="2.16847">
        <ele>123.8</ele>
        <time>2012-12-16T10:17:57Z</time>
      </trkpt>
      <trkpt lat="48.76935" lon="2.16848">
        <ele>124.5</ele>
        <time>2012-12-16T10:18:02Z</time>
      </trkpt>
      <trkpt lat="48.76933" lon="2.16849">
        <ele>125</ele>
        <time>2012-12-16T10:18:07Z</time>
      </trkpt>
      <trkpt lat="48.7693" lon="2.16853">
        <ele>125.6</ele>
        <time>2012-12-16T10:18:12Z</time>
      </trkpt>
      <trkpt lat="48.76926" lon="2.16855">
        <ele>127</ele>
        <time>2012-12-16T10:18:17Z</time>
      </trkpt>
      <trkpt lat="48.76922" lon="2.16858">
        <ele>128.6</ele>
        <time>2012-12-16T10:18:22Z</time>
      </trkpt>
      <trkpt lat="48.76917" lon="2.1686">
        <ele>130</ele>
        <time>2012-12-16T10:18:27Z</time>
      </trkpt>
      <trkpt lat="48.76913" lon="2.16863">
        <ele>131.5</ele>
        <time>2012-12-16T10:18:32Z</time>
      </trkpt>
      <trkpt lat="48.76908" lon="2.16865">
        <ele>132.3</ele>
        <time>2012-12-16T10:18:37Z</time>
      </trkpt>
      <trkpt lat="48.76902" lon="2.16867">
        <ele>133</ele>
        <time>2012-12-16T10:18:42Z</time>
      </trkpt>
      <trkpt lat="48.76901" lon="2.16868">
        <ele>132.8</ele>
        <time>2012-12-16T10:18:43Z</time>
      </trkpt>
      <trkpt lat="48.76893" lon="2.16872">
        <ele>133.5</ele>
        <time>2012-12-16T10:18:52Z</time>
      </trkpt>
      <trkpt lat="48.76888" lon="2.16874">
        <ele>134.3</ele>
        <time>2012-12-16T10:18:57Z</time>
      </trkpt>
      <trkpt lat="48.76883" lon="2.16877">
        <ele>134.6</ele>
        <time>2012-12-16T10:19:02Z</time>
      </trkpt>
      <trkpt lat="48.76877" lon="2.16882">
        <ele>135.8</ele>
        <time>2012-12-16T10:19:07Z</time>
      </trkpt>
      <trkpt lat="48.76871" lon="2.16887">
        <ele>136.6</ele>
        <time>2012-12-16T10:19:12Z</time>
      </trkpt>
      <trkpt lat="48.76867" lon="2.16886">
        <ele>137.1</ele>
        <time>2012-12-16T10:19:17Z</time>
      </trkpt>
      <trkpt lat="48.76865" lon="2.16876">
        <ele>137.1</ele>
        <time>2012-12-16T10:19:22Z</time>
      </trkpt>
      <trkpt lat="48.76864" lon="2.16868">
        <ele>137.6</ele>
        <time>2012-12-16T10:19:27Z</time>
      </trkpt>
      <trkpt lat="48.76863" lon="2.16858">
        <ele>138.1</ele>
        <time>2012-12-16T10:19:32Z</time>
      </trkpt>
      <trkpt lat="48.76863" lon="2.16849">
        <ele>138.3</ele>
        <time>2012-12-16T10:19:37Z</time>
      </trkpt>
      <trkpt lat="48.76862" lon="2.16841">
        <ele>137.8</ele>
        <time>2012-12-16T10:19:42Z</time>
      </trkpt>
      <trkpt lat="48.76862" lon="2.1683">
        <ele>138.3</ele>
        <time>2012-12-16T10:19:47Z</time>
      </trkpt>
      <trkpt lat="48.76862" lon="2.16828">
        <ele>138.5</ele>
        <time>2012-12-16T10:19:48Z</time>
      </trkpt>
      <trkpt lat="48.76865" lon="2.16811">
        <ele>139.5</ele>
        <time>2012-12-16T10:19:57Z</time>
      </trkpt>
      <trkpt lat="48.76867" lon="2.16802">
        <ele>139.8</ele>
        <time>2012-12-16T10:20:02Z</time>
      </trkpt>
      <trkpt lat="48.76869" lon="2.16795">
        <ele>139</ele>
        <time>2012-12-16T10:20:07Z</time>
      </trkpt>
      <trkpt lat="48.7687" lon="2.16787">
        <ele>139.6</ele>
        <time>2012-12-16T10:20:12Z</time>
      </trkpt>
      <trkpt lat="48.76872" lon="2.1678">
        <ele>139.6</ele>
        <time>2012-12-16T10:20:17Z</time>
      </trkpt>
      <trkpt lat="48.76875" lon="2.16771">
        <ele>140.3</ele>
        <time>2012-12-16T10:20:22Z</time>
      </trkpt>
      <trkpt lat="48.76879" lon="2.16761">
        <ele>142.1</ele>
        <time>2012-12-16T10:20:27Z</time>
      </trkpt>
      <trkpt lat="48.76881" lon="2.16754">
        <ele>142.8</ele>
        <time>2012-12-16T10:20:32Z</time>
      </trkpt>
      <trkpt lat="48.7688" lon="2.16751">
        <ele>143.6</ele>
        <time>2012-12-16T10:20:37Z</time>
      </trkpt>
      <trkpt lat="48.76881" lon="2.16747">
        <ele>144.1</ele>
        <time>2012-12-16T10:20:42Z</time>
      </trkpt>
      <trkpt lat="48.7688" lon="2.16741">
        <ele>145.1</ele>
        <time>2012-12-16T10:20:47Z</time>
      </trkpt>
      <trkpt lat="48.76882" lon="2.16736">
        <ele>145</ele>
        <time>2012-12-16T10:20:52Z</time>
      </trkpt>
      <trkpt lat="48.76882" lon="2.16733">
        <ele>145</ele>
        <time>2012-12-16T10:20:53Z</time>
      </trkpt>
      <trkpt lat="48.76881" lon="2.16716">
        <ele>144.1</ele>
        <time>2012-12-16T10:21:02Z</time>
      </trkpt>
      <trkpt lat="48.76882" lon="2.16705">
        <ele>144.1</ele>
        <time>2012-12-16T10:21:07Z</time>
      </trkpt>
      <trkpt lat="48.76883" lon="2.16695">
        <ele>143.6</ele>
        <time>2012-12-16T10:21:12Z</time>
      </trkpt>
      <trkpt lat="48.76885" lon="2.16685">
        <ele>144.1</ele>
        <time>2012-12-16T10:21:17Z</time>
      </trkpt>
      <trkpt lat="48.76888" lon="2.16677">
        <ele>142.8</ele>
        <time>2012-12-16T10:21:22Z</time>
      </trkpt>
      <trkpt lat="48.76888" lon="2.16668">
        <ele>143.6</ele>
        <time>2012-12-16T10:21:27Z</time>
      </trkpt>
      <trkpt lat="48.76889" lon="2.16659">
        <ele>143.1</ele>
        <time>2012-12-16T10:21:32Z</time>
      </trkpt>
      <trkpt lat="48.76889" lon="2.16651">
        <ele>144.1</ele>
        <time>2012-12-16T10:21:37Z</time>
      </trkpt>
      <trkpt lat="48.76889" lon="2.16643">
        <ele>144.8</ele>
        <time>2012-12-16T10:21:42Z</time>
      </trkpt>
      <trkpt lat="48.76886" lon="2.16635">
        <ele>145</ele>
        <time>2012-12-16T10:21:47Z</time>
      </trkpt>
      <trkpt lat="48.76883" lon="2.16626">
        <ele>145.1</ele>
        <time>2012-12-16T10:21:52Z</time>
      </trkpt>
      <trkpt lat="48.76881" lon="2.16619">
        <ele>145.3</ele>
        <time>2012-12-16T10:21:57Z</time>
      </trkpt>
      <trkpt lat="48.76881" lon="2.16618">
        <ele>145</ele>
        <time>2012-12-16T10:21:58Z</time>
      </trkpt>
      <trkpt lat="48.76877" lon="2.16604">
        <ele>145.3</ele>
        <time>2012-12-16T10:22:07Z</time>
      </trkpt>
      <trkpt lat="48.76875" lon="2.16594">
        <ele>147.6</ele>
        <time>2012-12-16T10:22:12Z</time>
      </trkpt>
      <trkpt lat="48.76875" lon="2.16586">
        <ele>147.8</ele>
        <time>2012-12-16T10:22:17Z</time>
      </trkpt>
      <trkpt lat="48.76873" lon="2.16579">
        <ele>148.3</ele>
        <time>2012-12-16T10:22:22Z</time>
      </trkpt>
      <trkpt lat="48.7687" lon="2.16569">
        <ele>149.5</ele>
        <time>2012-12-16T10:22:27Z</time>
      </trkpt>
      <trkpt lat="48.76867" lon="2.1656">
        <ele>150.1</ele>
        <time>2012-12-16T10:22:32Z</time>
      </trkpt>
      <trkpt lat="48.76866" lon="2.16553">
        <ele>149.3</ele>
        <time>2012-12-16T10:22:37Z</time>
      </trkpt>
      <trkpt lat="48.76865" lon="2.16546">
        <ele>149.8</ele>
        <time>2012-12-16T10:22:42Z</time>
      </trkpt>
      <trkpt lat="48.76863" lon="2.16539">
        <ele>150.3</ele>
        <time>2012-12-16T10:22:47Z</time>
      </trkpt>
      <trkpt lat="48.76861" lon="2.16534">
        <ele>150.6</ele>
        <time>2012-12-16T10:22:52Z</time>
      </trkpt>
      <trkpt lat="48.7686" lon="2.16527">
        <ele>150</ele>
        <time>2012-12-16T10:22:57Z</time>
      </trkpt>
      <trkpt lat="48.76857" lon="2.16521">
        <ele>149.8</ele>
        <time>2012-12-16T10:23:02Z</time>
      </trkpt>
      <trkpt lat="48.76857" lon="2.16519">
        <ele>149.8</ele>
        <time>2012-12-16T10:23:03Z</time>
      </trkpt>
      <trkpt lat="48.76855" lon="2.16504">
        <ele>150.5</ele>
        <time>2012-12-16T10:23:12Z</time>
      </trkpt>
      <trkpt lat="48.76854" lon="2.16496">
        <ele>150.3</ele>
        <time>2012-12-16T10:23:17Z</time>
      </trkpt>
      <trkpt lat="48.76851" lon="2.1649">
        <ele>150.3</ele>
        <time>2012-12-16T10:23:22Z</time>
      </trkpt>
      <trkpt lat="48.76847" lon="2.16482">
        <ele>151.8</ele>
        <time>2012-12-16T10:23:27Z</time>
      </trkpt>
      <trkpt lat="48.76842" lon="2.16474">
        <ele>151.8</ele>
        <time>2012-12-16T10:23:32Z</time>
      </trkpt>
      <trkpt lat="48.76841" lon="2.1647">
        <ele>151.8</ele>
        <time>2012-12-16T10:23:37Z</time>
      </trkpt>
      <trkpt lat="48.76841" lon="2.16464">
        <ele>152.1</ele>
        <time>2012-12-16T10:23:42Z</time>
      </trkpt>
      <trkpt lat="48.7684" lon="2.16459">
        <ele>152.3</ele>
        <time>2012-12-16T10:23:47Z</time>
      </trkpt>
      <trkpt lat="48.7684" lon="2.16459">
        <ele>152.3</ele>
        <time>2012-12-16T10:23:52Z</time>
      </trkpt>
      <trkpt lat="48.7684" lon="2.16459">
        <ele>152.3</ele>
        <time>2012-12-16T10:23:57Z</time>
      </trkpt>
      <trkpt lat="48.7684" lon="2.16459">
        <ele>152.3</ele>
        <time>2012-12-16T10:24:02Z</time>
      </trkpt>
      <trkpt lat="48.7684" lon="2.16459">
        <ele>152.3</ele>
        <time>2012-12-16T10:24:07Z</time>
      </trkpt>
      <trkpt lat="48.76839" lon="2.16458">
        <ele>152.6</ele>
        <time>2012-12-16T10:24:08Z</time>
      </trkpt>
      <trkpt lat="48.76838" lon="2.16445">
        <ele>151.8</ele>
        <time>2012-12-16T10:24:17Z</time>
      </trkpt>
      <trkpt lat="48.76837" lon="2.16436">
        <ele>150.5</ele>
        <time>2012-12-16T10:24:22Z</time>
      </trkpt>
      <trkpt lat="48.76836" lon="2.16427">
        <ele>150.1</ele>
        <time>2012-12-16T10:24:27Z</time>
      </trkpt>
      <trkpt lat="48.76835" lon="2.16419">
        <ele>149</ele>
        <time>2012-12-16T10:24:32Z</time>
      </trkpt>
      <trkpt lat="48.76833" lon="2.16411">
        <ele>148.8</ele>
        <time>2012-12-16T10:24:37Z</time>
      </trkpt>
      <trkpt lat="48.76832" lon="2.16401">
        <ele>148.1</ele>
        <time>2012-12-16T10:24:42Z</time>
      </trkpt>
      <trkpt lat="48.76832" lon="2.16389">
        <ele>149.6</ele>
        <time>2012-12-16T10:24:47Z</time>
      </trkpt>
      <trkpt lat="48.76834" lon="2.1638">
        <ele>150.5</ele>
        <time>2012-12-16T10:24:52Z</time>
      </trkpt>
      <trkpt lat="48.76836" lon="2.16372">
        <ele>150.1</ele>
        <time>2012-12-16T10:24:57Z</time>
      </trkpt>
      <trkpt lat="48.7684" lon="2.16364">
        <ele>149.6</ele>
        <time>2012-12-16T10:25:02Z</time>
      </trkpt>
      <trkpt lat="48.76844" lon="2.16356">
        <ele>150</ele>
        <time>2012-12-16T10:25:07Z</time>
      </trkpt>
      <trkpt lat="48.76845" lon="2.1635">
        <ele>150</ele>
        <time>2012-12-16T10:25:12Z</time>
      </trkpt>
      <trkpt lat="48.76845" lon="2.16348">
        <ele>149.6</ele>
        <time>2012-12-16T10:25:13Z</time>
      </trkpt>
      <trkpt lat="48.76849" lon="2.16333">
        <ele>149.3</ele>
        <time>2012-12-16T10:25:22Z</time>
      </trkpt>
      <trkpt lat="48.76853" lon="2.16327">
        <ele>147.8</ele>
        <time>2012-12-16T10:25:27Z</time>
      </trkpt>
      <trkpt lat="48.76855" lon="2.1632">
        <ele>147</ele>
        <time>2012-12-16T10:25:32Z</time>
      </trkpt>
      <trkpt lat="48.76854" lon="2.16314">
        <ele>147</ele>
        <time>2012-12-16T10:25:37Z</time>
      </trkpt>
      <trkpt lat="48.76856" lon="2.16307">
        <ele>146.8</ele>
        <time>2012-12-16T10:25:42Z</time>
      </trkpt>
      <trkpt lat="48.76858" lon="2.16301">
        <ele>146.1</ele>
        <time>2012-12-16T10:25:47Z</time>
      </trkpt>
      <trkpt lat="48.76859" lon="2.16296">
        <ele>144.8</ele>
        <time>2012-12-16T10:25:52Z</time>
      </trkpt>
      <trkpt lat="48.7686" lon="2.16287">
        <ele>144</ele>
        <time>2012-12-16T10:25:57Z</time>
      </trkpt>
      <trkpt lat="48.76858" lon="2.16277">
        <ele>143.8</ele>
        <time>2012-12-16T10:26:02Z</time>
      </trkpt>
      <trkpt lat="48.76857" lon="2.16269">
        <ele>143</ele>
        <time>2012-12-16T10:26:07Z</time>
      </trkpt>
      <trkpt lat="48.76856" lon="2.16263">
        <ele>143</ele>
        <time>2012-12-16T10:26:12Z</time>
      </trkpt>
      <trkpt lat="48.76854" lon="2.16252">
        <ele>143.5</ele>
        <time>2012-12-16T10:26:17Z</time>
      </trkpt>
      <trkpt lat="48.76853" lon="2.1625">
        <ele>143.6</ele>
        <time>2012-12-16T10:26:18Z</time>
      </trkpt>
      <trkpt lat="48.76852" lon="2.16234">
        <ele>143</ele>
        <time>2012-12-16T10:26:27Z</time>
      </trkpt>
      <trkpt lat="48.7685" lon="2.16224">
        <ele>142.8</ele>
        <time>2012-12-16T10:26:32Z</time>
      </trkpt>
      <trkpt lat="48.76848" lon="2.16216">
        <ele>143.6</ele>
        <time>2012-12-16T10:26:37Z</time>
      </trkpt>
      <trkpt lat="48.76846" lon="2.16206">
        <ele>143.8</ele>
        <time>2012-12-16T10:26:42Z</time>
      </trkpt>
      <trkpt lat="48.76844" lon="2.16199">
        <ele>144</ele>
        <time>2012-12-16T10:26:47Z</time>
      </trkpt>
      <trkpt lat="48.76843" lon="2.16191">
        <ele>144.3</ele>
        <time>2012-12-16T10:26:52Z</time>
      </trkpt>
      <trkpt lat="48.7684" lon="2.16184">
        <ele>143.6</ele>
        <time>2012-12-16T10:26:57Z</time>
      </trkpt>
      <trkpt lat="48.76837" lon="2.16178">
        <ele>143.6</ele>
        <time>2012-12-16T10:27:02Z</time>
      </trkpt>
      <trkpt lat="48.76833" lon="2.16169">
        <ele>144.5</ele>
        <time>2012-12-16T10:27:07Z</time>
      </trkpt>
      <trkpt lat="48.76829" lon="2.16157">
        <ele>146</ele>
        <time>2012-12-16T10:27:12Z</time>
      </trkpt>
      <trkpt lat="48.76827" lon="2.1615">
        <ele>145.6</ele>
        <time>2012-12-16T10:27:17Z</time>
      </trkpt>
      <trkpt lat="48.76823" lon="2.16141">
        <ele>146.6</ele>
        <time>2012-12-16T10:27:22Z</time>
      </trkpt>
      <trkpt lat="48.76822" lon="2.16139">
        <ele>146.6</ele>
        <time>2012-12-16T10:27:23Z</time>
      </trkpt>
      <trkpt lat="48.7682" lon="2.16126">
        <ele>147.1</ele>
        <time>2012-12-16T10:27:32Z</time>
      </trkpt>
      <trkpt lat="48.76821" lon="2.1612">
        <ele>146.1</ele>
        <time>2012-12-16T10:27:37Z</time>
      </trkpt>
      <trkpt lat="48.7682" lon="2.1611">
        <ele>145.8</ele>
        <time>2012-12-16T10:27:42Z</time>
      </trkpt>
      <trkpt lat="48.76819" lon="2.16099">
        <ele>146.6</ele>
        <time>2012-12-16T10:27:47Z</time>
      </trkpt>
      <trkpt lat="48.7682" lon="2.16089">
        <ele>147.1</ele>
        <time>2012-12-16T10:27:52Z</time>
      </trkpt>
      <trkpt lat="48.76823" lon="2.16082">
        <ele>146.8</ele>
        <time>2012-12-16T10:27:57Z</time>
      </trkpt>
      <trkpt lat="48.76826" lon="2.16075">
        <ele>146.1</ele>
        <time>2012-12-16T10:28:02Z</time>
      </trkpt>
      <trkpt lat="48.7683" lon="2.16068">
        <ele>147.1</ele>
        <time>2012-12-16T10:28:07Z</time>
      </trkpt>
      <trkpt lat="48.76831" lon="2.16059">
        <ele>147.8</ele>
        <time>2012-12-16T10:28:12Z</time>
      </trkpt>
      <trkpt lat="48.76832" lon="2.16048">
        <ele>148.1</ele>
        <time>2012-12-16T10:28:17Z</time>
      </trkpt>
      <trkpt lat="48.76833" lon="2.16037">
        <ele>149.1</ele>
        <time>2012-12-16T10:28:22Z</time>
      </trkpt>
      <trkpt lat="48.76832" lon="2.1603">
        <ele>148.5</ele>
        <time>2012-12-16T10:28:27Z</time>
      </trkpt>
      <trkpt lat="48.76831" lon="2.16028">
        <ele>148.3</ele>
        <time>2012-12-16T10:28:28Z</time>
      </trkpt>
      <trkpt lat="48.7684" lon="2.16011">
        <ele>149.1</ele>
        <time>2012-12-16T10:28:37Z</time>
      </trkpt>
      <trkpt lat="48.76845" lon="2.16006">
        <ele>148.8</ele>
        <time>2012-12-16T10:28:42Z</time>
      </trkpt>
      <trkpt lat="48.76846" lon="2.16006">
        <ele>150.3</ele>
        <time>2012-12-16T10:28:47Z</time>
      </trkpt>
      <trkpt lat="48.76851" lon="2.16006">
        <ele>150.6</ele>
        <time>2012-12-16T10:28:52Z</time>
      </trkpt>
      <trkpt lat="48.76856" lon="2.16006">
        <ele>149.8</ele>
        <time>2012-12-16T10:28:57Z</time>
      </trkpt>
      <trkpt lat="48.76865" lon="2.16005">
        <ele>149.8</ele>
        <time>2012-12-16T10:29:02Z</time>
      </trkpt>
      <trkpt lat="48.76873" lon="2.16005">
        <ele>149.5</ele>
        <time>2012-12-16T10:29:07Z</time>
      </trkpt>
      <trkpt lat="48.76876" lon="2.16007">
        <ele>149.6</ele>
        <time>2012-12-16T10:29:12Z</time>
      </trkpt>
      <trkpt lat="48.7688" lon="2.16009">
        <ele>148.8</ele>
        <time>2012-12-16T10:29:17Z</time>
      </trkpt>
      <trkpt lat="48.76889" lon="2.16008">
        <ele>149.8</ele>
        <time>2012-12-16T10:29:22Z</time>
      </trkpt>
      <trkpt lat="48.76895" lon="2.16008">
        <ele>149.1</ele>
        <time>2012-12-16T10:29:27Z</time>
      </trkpt>
      <trkpt lat="48.76905" lon="2.16007">
        <ele>149.3</ele>
        <time>2012-12-16T10:29:32Z</time>
      </trkpt>
      <trkpt lat="48.76907" lon="2.16007">
        <ele>149.6</ele>
        <time>2012-12-16T10:29:33Z</time>
      </trkpt>
      <trkpt lat="48.76915" lon="2.16009">
        <ele>149.1</ele>
        <time>2012-12-16T10:29:42Z</time>
      </trkpt>
      <trkpt lat="48.76922" lon="2.1601">
        <ele>150.1</ele>
        <time>2012-12-16T10:29:47Z</time>
      </trkpt>
      <trkpt lat="48.76931" lon="2.16012">
        <ele>148.6</ele>
        <time>2012-12-16T10:29:52Z</time>
      </trkpt>
      <trkpt lat="48.76938" lon="2.16014">
        <ele>147.3</ele>
        <time>2012-12-16T10:29:57Z</time>
      </trkpt>
      <trkpt lat="48.76944" lon="2.16013">
        <ele>147.1</ele>
        <time>2012-12-16T10:30:02Z</time>
      </trkpt>
      <trkpt lat="48.76949" lon="2.16013">
        <ele>148.1</ele>
        <time>2012-12-16T10:30:07Z</time>
      </trkpt>
      <trkpt lat="48.76954" lon="2.16013">
        <ele>147.5</ele>
        <time>2012-12-16T10:30:12Z</time>
      </trkpt>
      <trkpt lat="48.76963" lon="2.16013">
        <ele>147.6</ele>
        <time>2012-12-16T10:30:17Z</time>
      </trkpt>
      <trkpt lat="48.76966" lon="2.16013">
        <ele>147.5</ele>
        <time>2012-12-16T10:30:22Z</time>
      </trkpt>
      <trkpt lat="48.76973" lon="2.16013">
        <ele>147.3</ele>
        <time>2012-12-16T10:30:27Z</time>
      </trkpt>
      <trkpt lat="48.76981" lon="2.16014">
        <ele>147.6</ele>
        <time>2012-12-16T10:30:32Z</time>
      </trkpt>
      <trkpt lat="48.76989" lon="2.16014">
        <ele>146.8</ele>
        <time>2012-12-16T10:30:37Z</time>
      </trkpt>
      <trkpt lat="48.76991" lon="2.16014">
        <ele>147</ele>
        <time>2012-12-16T10:30:38Z</time>
      </trkpt>
      <trkpt lat="48.77007" lon="2.16016">
        <ele>148.1</ele>
        <time>2012-12-16T10:30:47Z</time>
      </trkpt>
      <trkpt lat="48.77015" lon="2.16016">
        <ele>149.3</ele>
        <time>2012-12-16T10:30:52Z</time>
      </trkpt>
      <trkpt lat="48.77021" lon="2.16019">
        <ele>151</ele>
        <time>2012-12-16T10:30:57Z</time>
      </trkpt>
      <trkpt lat="48.77029" lon="2.16018">
        <ele>153</ele>
        <time>2012-12-16T10:31:02Z</time>
      </trkpt>
      <trkpt lat="48.77035" lon="2.1602">
        <ele>153.6</ele>
        <time>2012-12-16T10:31:07Z</time>
      </trkpt>
      <trkpt lat="48.7704" lon="2.16022">
        <ele>154.3</ele>
        <time>2012-12-16T10:31:12Z</time>
      </trkpt>
      <trkpt lat="48.77048" lon="2.16021">
        <ele>154.3</ele>
        <time>2012-12-16T10:31:17Z</time>
      </trkpt>
      <trkpt lat="48.77051" lon="2.16021">
        <ele>154.5</ele>
        <time>2012-12-16T10:31:22Z</time>
      </trkpt>
      <trkpt lat="48.77055" lon="2.16023">
        <ele>155.1</ele>
        <time>2012-12-16T10:31:27Z</time>
      </trkpt>
      <trkpt lat="48.77063" lon="2.16022">
        <ele>154.5</ele>
        <time>2012-12-16T10:31:32Z</time>
      </trkpt>
      <trkpt lat="48.7707" lon="2.16025">
        <ele>153.5</ele>
        <time>2012-12-16T10:31:37Z</time>
      </trkpt>
      <trkpt lat="48.77076" lon="2.16026">
        <ele>154</ele>
        <time>2012-12-16T10:31:42Z</time>
      </trkpt>
      <trkpt lat="48.77078" lon="2.16027">
        <ele>154.6</ele>
        <time>2012-12-16T10:31:43Z</time>
      </trkpt>
      <trkpt lat="48.77079" lon="2.16026">
        <ele>153.8</ele>
        <time>2012-12-16T10:31:52Z</time>
      </trkpt>
      <trkpt lat="48.77083" lon="2.16024">
        <ele>153.3</ele>
        <time>2012-12-16T10:31:57Z</time>
      </trkpt>
      <trkpt lat="48.77085" lon="2.16016">
        <ele>153.3</ele>
        <time>2012-12-16T10:32:02Z</time>
      </trkpt>
      <trkpt lat="48.77087" lon="2.16009">
        <ele>153.8</ele>
        <time>2012-12-16T10:32:07Z</time>
      </trkpt>
      <trkpt lat="48.77087" lon="2.16">
        <ele>154.5</ele>
        <time>2012-12-16T10:32:12Z</time>
      </trkpt>
      <trkpt lat="48.77087" lon="2.15993">
        <ele>156.3</ele>
        <time>2012-12-16T10:32:17Z</time>
      </trkpt>
      <trkpt lat="48.77087" lon="2.15987">
        <ele>157.3</ele>
        <time>2012-12-16T10:32:22Z</time>
      </trkpt>
      <trkpt lat="48.77088" lon="2.15982">
        <ele>156.3</ele>
        <time>2012-12-16T10:32:27Z</time>
      </trkpt>
      <trkpt lat="48.77088" lon="2.15974">
        <ele>156.6</ele>
        <time>2012-12-16T10:32:32Z</time>
      </trkpt>
      <trkpt lat="48.77087" lon="2.15967">
        <ele>154.6</ele>
        <time>2012-12-16T10:32:37Z</time>
      </trkpt>
      <trkpt lat="48.77088" lon="2.1596">
        <ele>154.1</ele>
        <time>2012-12-16T10:32:42Z</time>
      </trkpt>
      <trkpt lat="48.7709" lon="2.15953">
        <ele>153.1</ele>
        <time>2012-12-16T10:32:47Z</time>
      </trkpt>
      <trkpt lat="48.7709" lon="2.15951">
        <ele>153.3</ele>
        <time>2012-12-16T10:32:48Z</time>
      </trkpt>
      <trkpt lat="48.7709" lon="2.15938">
        <ele>154.3</ele>
        <time>2012-12-16T10:32:57Z</time>
      </trkpt>
      <trkpt lat="48.7709" lon="2.1593">
        <ele>154</ele>
        <time>2012-12-16T10:33:02Z</time>
      </trkpt>
      <trkpt lat="48.77091" lon="2.15926">
        <ele>153.5</ele>
        <time>2012-12-16T10:33:07Z</time>
      </trkpt>
      <trkpt lat="48.77094" lon="2.15924">
        <ele>152</ele>
        <time>2012-12-16T10:33:12Z</time>
      </trkpt>
      <trkpt lat="48.77095" lon="2.15925">
        <ele>151.6</ele>
        <time>2012-12-16T10:33:17Z</time>
      </trkpt>
      <trkpt lat="48.77095" lon="2.15925">
        <ele>151.6</ele>
        <time>2012-12-16T10:33:22Z</time>
      </trkpt>
      <trkpt lat="48.77094" lon="2.15924">
        <ele>151.1</ele>
        <time>2012-12-16T10:33:27Z</time>
      </trkpt>
      <trkpt lat="48.77096" lon="2.15913">
        <ele>151.3</ele>
        <time>2012-12-16T10:33:32Z</time>
      </trkpt>
      <trkpt lat="48.77097" lon="2.15902">
        <ele>151.3</ele>
        <time>2012-12-16T10:33:37Z</time>
      </trkpt>
      <trkpt lat="48.77098" lon="2.15893">
        <ele>151.8</ele>
        <time>2012-12-16T10:33:42Z</time>
      </trkpt>
      <trkpt lat="48.77098" lon="2.1588">
        <ele>151.6</ele>
        <time>2012-12-16T10:33:47Z</time>
      </trkpt>
      <trkpt lat="48.77098" lon="2.15868">
        <ele>151.8</ele>
        <time>2012-12-16T10:33:52Z</time>
      </trkpt>
      <trkpt lat="48.77099" lon="2.15866">
        <ele>151.8</ele>
        <time>2012-12-16T10:33:53Z</time>
      </trkpt>
      <trkpt lat="48.77098" lon="2.15845">
        <ele>152.5</ele>
        <time>2012-12-16T10:34:02Z</time>
      </trkpt>
      <trkpt lat="48.77097" lon="2.1583">
        <ele>153.6</ele>
        <time>2012-12-16T10:34:07Z</time>
      </trkpt>
      <trkpt lat="48.77098" lon="2.15817">
        <ele>154.3</ele>
        <time>2012-12-16T10:34:12Z</time>
      </trkpt>
      <trkpt lat="48.77098" lon="2.15804">
        <ele>154.3</ele>
        <time>2012-12-16T10:34:17Z</time>
      </trkpt>
      <trkpt lat="48.771" lon="2.15793">
        <ele>154.8</ele>
        <time>2012-12-16T10:34:22Z</time>
      </trkpt>
      <trkpt lat="48.77099" lon="2.15778">
        <ele>156.5</ele>
        <time>2012-12-16T10:34:27Z</time>
      </trkpt>
      <trkpt lat="48.771" lon="2.15769">
        <ele>156.3</ele>
        <time>2012-12-16T10:34:32Z</time>
      </trkpt>
      <trkpt lat="48.771" lon="2.15755">
        <ele>157</ele>
        <time>2012-12-16T10:34:37Z</time>
      </trkpt>
      <trkpt lat="48.77097" lon="2.1574">
        <ele>157.3</ele>
        <time>2012-12-16T10:34:42Z</time>
      </trkpt>
      <trkpt lat="48.77096" lon="2.15727">
        <ele>158.1</ele>
        <time>2012-12-16T10:34:47Z</time>
      </trkpt>
      <trkpt lat="48.77096" lon="2.15711">
        <ele>159.8</ele>
        <time>2012-12-16T10:34:52Z</time>
      </trkpt>
      <trkpt lat="48.77097" lon="2.15701">
        <ele>160.8</ele>
        <time>2012-12-16T10:34:57Z</time>
      </trkpt>
      <trkpt lat="48.77098" lon="2.15699">
        <ele>160.8</ele>
        <time>2012-12-16T10:34:58Z</time>
      </trkpt>
      <trkpt lat="48.77098" lon="2.15673">
        <ele>163.5</ele>
        <time>2012-12-16T10:35:07Z</time>
      </trkpt>
      <trkpt lat="48.77099" lon="2.15661">
        <ele>163.1</ele>
        <time>2012-12-16T10:35:12Z</time>
      </trkpt>
      <trkpt lat="48.771" lon="2.15645">
        <ele>165.1</ele>
        <time>2012-12-16T10:35:17Z</time>
      </trkpt>
      <trkpt lat="48.77101" lon="2.15633">
        <ele>165.3</ele>
        <time>2012-12-16T10:35:22Z</time>
      </trkpt>
      <trkpt lat="48.77098" lon="2.15618">
        <ele>166</ele>
        <time>2012-12-16T10:35:27Z</time>
      </trkpt>
      <trkpt lat="48.77097" lon="2.15601">
        <ele>168.1</ele>
        <time>2012-12-16T10:35:32Z</time>
      </trkpt>
      <trkpt lat="48.77096" lon="2.15588">
        <ele>169.1</ele>
        <time>2012-12-16T10:35:37Z</time>
      </trkpt>
      <trkpt lat="48.77095" lon="2.15576">
        <ele>169.8</ele>
        <time>2012-12-16T10:35:42Z</time>
      </trkpt>
      <trkpt lat="48.77096" lon="2.15564">
        <ele>170.5</ele>
        <time>2012-12-16T10:35:47Z</time>
      </trkpt>
      <trkpt lat="48.77098" lon="2.15551">
        <ele>170.6</ele>
        <time>2012-12-16T10:35:52Z</time>
      </trkpt>
      <trkpt lat="48.77099" lon="2.15539">
        <ele>170.1</ele>
        <time>2012-12-16T10:35:57Z</time>
      </trkpt>
      <trkpt lat="48.77099" lon="2.15528">
        <ele>169.8</ele>
        <time>2012-12-16T10:36:02Z</time>
      </trkpt>
      <trkpt lat="48.77099" lon="2.15525">
        <ele>170.1</ele>
        <time>2012-12-16T10:36:03Z</time>
      </trkpt>
      <trkpt lat="48.77104" lon="2.15509">
        <ele>169.8</ele>
        <time>2012-12-16T10:36:12Z</time>
      </trkpt>
      <trkpt lat="48.77104" lon="2.15498">
        <ele>169</ele>
        <time>2012-12-16T10:36:17Z</time>
      </trkpt>
      <trkpt lat="48.77106" lon="2.15486">
        <ele>168.3</ele>
        <time>2012-12-16T10:36:22Z</time>
      </trkpt>
      <trkpt lat="48.77107" lon="2.15477">
        <ele>168.6</ele>
        <time>2012-12-16T10:36:27Z</time>
      </trkpt>
      <trkpt lat="48.77108" lon="2.15465">
        <ele>167.6</ele>
        <time>2012-12-16T10:36:32Z</time>
      </trkpt>
      <trkpt lat="48.77109" lon="2.15452">
        <ele>167.3</ele>
        <time>2012-12-16T10:36:37Z</time>
      </trkpt>
      <trkpt lat="48.77112" lon="2.1544">
        <ele>166.8</ele>
        <time>2012-12-16T10:36:42Z</time>
      </trkpt>
      <trkpt lat="48.77113" lon="2.15428">
        <ele>168.5</ele>
        <time>2012-12-16T10:36:47Z</time>
      </trkpt>
      <trkpt lat="48.77116" lon="2.15417">
        <ele>167.1</ele>
        <time>2012-12-16T10:36:52Z</time>
      </trkpt>
      <trkpt lat="48.77115" lon="2.15405">
        <ele>167.3</ele>
        <time>2012-12-16T10:36:57Z</time>
      </trkpt>
      <trkpt lat="48.77116" lon="2.15393">
        <ele>166.8</ele>
        <time>2012-12-16T10:37:02Z</time>
      </trkpt>
      <trkpt lat="48.77114" lon="2.15378">
        <ele>165.3</ele>
        <time>2012-12-16T10:37:07Z</time>
      </trkpt>
      <trkpt lat="48.77114" lon="2.15375">
        <ele>164.8</ele>
        <time>2012-12-16T10:37:08Z</time>
      </trkpt>
      <trkpt lat="48.77115" lon="2.15356">
        <ele>166.5</ele>
        <time>2012-12-16T10:37:17Z</time>
      </trkpt>
      <trkpt lat="48.77118" lon="2.1534">
        <ele>168.1</ele>
        <time>2012-12-16T10:37:22Z</time>
      </trkpt>
      <trkpt lat="48.77118" lon="2.15324">
        <ele>168.6</ele>
        <time>2012-12-16T10:37:27Z</time>
      </trkpt>
      <trkpt lat="48.77116" lon="2.15309">
        <ele>169.3</ele>
        <time>2012-12-16T10:37:32Z</time>
      </trkpt>
      <trkpt lat="48.77114" lon="2.15295">
        <ele>169.1</ele>
        <time>2012-12-16T10:37:37Z</time>
      </trkpt>
      <trkpt lat="48.77114" lon="2.15281">
        <ele>168.3</ele>
        <time>2012-12-16T10:37:42Z</time>
      </trkpt>
      <trkpt lat="48.77114" lon="2.15269">
        <ele>167.8</ele>
        <time>2012-12-16T10:37:47Z</time>
      </trkpt>
      <trkpt lat="48.77113" lon="2.15257">
        <ele>168.6</ele>
        <time>2012-12-16T10:37:52Z</time>
      </trkpt>
      <trkpt lat="48.77115" lon="2.1525">
        <ele>167.3</ele>
        <time>2012-12-16T10:37:57Z</time>
      </trkpt>
      <trkpt lat="48.77116" lon="2.15236">
        <ele>166.6</ele>
        <time>2012-12-16T10:38:02Z</time>
      </trkpt>
      <trkpt lat="48.77117" lon="2.15225">
        <ele>166.3</ele>
        <time>2012-12-16T10:38:07Z</time>
      </trkpt>
      <trkpt lat="48.77117" lon="2.15212">
        <ele>165.8</ele>
        <time>2012-12-16T10:38:12Z</time>
      </trkpt>
      <trkpt lat="48.77117" lon="2.15209">
        <ele>165.6</ele>
        <time>2012-12-16T10:38:13Z</time>
      </trkpt>
      <trkpt lat="48.77117" lon="2.15189">
        <ele>165.1</ele>
        <time>2012-12-16T10:38:22Z</time>
      </trkpt>
      <trkpt lat="48.77117" lon="2.15175">
        <ele>165.6</ele>
        <time>2012-12-16T10:38:27Z</time>
      </trkpt>
      <trkpt lat="48.77119" lon="2.15162">
        <ele>165.5</ele>
        <time>2012-12-16T10:38:32Z</time>
      </trkpt>
      <trkpt lat="48.77119" lon="2.15151">
        <ele>164.8</ele>
        <time>2012-12-16T10:38:37Z</time>
      </trkpt>
      <trkpt lat="48.77119" lon="2.15139">
        <ele>165.6</ele>
        <time>2012-12-16T10:38:42Z</time>
      </trkpt>
      <trkpt lat="48.7712" lon="2.15129">
        <ele>165.1</ele>
        <time>2012-12-16T10:38:47Z</time>
      </trkpt>
      <trkpt lat="48.7712" lon="2.15116">
        <ele>164.8</ele>
        <time>2012-12-16T10:38:52Z</time>
      </trkpt>
      <trkpt lat="48.77121" lon="2.15105">
        <ele>164.6</ele>
        <time>2012-12-16T10:38:57Z</time>
      </trkpt>
      <trkpt lat="48.77121" lon="2.15094">
        <ele>163.6</ele>
        <time>2012-12-16T10:39:02Z</time>
      </trkpt>
      <trkpt lat="48.77121" lon="2.15081">
        <ele>163.5</ele>
        <time>2012-12-16T10:39:07Z</time>
      </trkpt>
      <trkpt lat="48.7712" lon="2.15073">
        <ele>164.5</ele>
        <time>2012-12-16T10:39:12Z</time>
      </trkpt>
      <trkpt lat="48.77116" lon="2.15068">
        <ele>162</ele>
        <time>2012-12-16T10:39:17Z</time>
      </trkpt>
      <trkpt lat="48.77116" lon="2.15068">
        <ele>162</ele>
        <time>2012-12-16T10:39:18Z</time>
      </trkpt>
      <trkpt lat="48.77107" lon="2.15063">
        <ele>159.3</ele>
        <time>2012-12-16T10:39:27Z</time>
      </trkpt>
      <trkpt lat="48.771" lon="2.15063">
        <ele>156.6</ele>
        <time>2012-12-16T10:39:32Z</time>
      </trkpt>
      <trkpt lat="48.77097" lon="2.15061">
        <ele>156</ele>
        <time>2012-12-16T10:39:37Z</time>
      </trkpt>
      <trkpt lat="48.77094" lon="2.15062">
        <ele>154.6</ele>
        <time>2012-12-16T10:39:42Z</time>
      </trkpt>
      <trkpt lat="48.77089" lon="2.15062">
        <ele>155.8</ele>
        <time>2012-12-16T10:39:47Z</time>
      </trkpt>
      <trkpt lat="48.77082" lon="2.15059">
        <ele>155.6</ele>
        <time>2012-12-16T10:39:52Z</time>
      </trkpt>
      <trkpt lat="48.77076" lon="2.15058">
        <ele>155.8</ele>
        <time>2012-12-16T10:39:57Z</time>
      </trkpt>
      <trkpt lat="48.7707" lon="2.15056">
        <ele>155.6</ele>
        <time>2012-12-16T10:40:02Z</time>
      </trkpt>
      <trkpt lat="48.77066" lon="2.1505">
        <ele>154.3</ele>
        <time>2012-12-16T10:40:07Z</time>
      </trkpt>
      <trkpt lat="48.7706" lon="2.15045">
        <ele>153.6</ele>
        <time>2012-12-16T10:40:12Z</time>
      </trkpt>
      <trkpt lat="48.77053" lon="2.15044">
        <ele>153.8</ele>
        <time>2012-12-16T10:40:17Z</time>
      </trkpt>
      <trkpt lat="48.77046" lon="2.15043">
        <ele>153.1</ele>
        <time>2012-12-16T10:40:22Z</time>
      </trkpt>
      <trkpt lat="48.77046" lon="2.15043">
        <ele>153.1</ele>
        <time>2012-12-16T10:40:23Z</time>
      </trkpt>
      <trkpt lat="48.77038" lon="2.15043">
        <ele>152.1</ele>
        <time>2012-12-16T10:40:32Z</time>
      </trkpt>
      <trkpt lat="48.77032" lon="2.15038">
        <ele>151.6</ele>
        <time>2012-12-16T10:40:37Z</time>
      </trkpt>
      <trkpt lat="48.77026" lon="2.15038">
        <ele>151.5</ele>
        <time>2012-12-16T10:40:42Z</time>
      </trkpt>
      <trkpt lat="48.77021" lon="2.15038">
        <ele>150.5</ele>
        <time>2012-12-16T10:40:47Z</time>
      </trkpt>
      <trkpt lat="48.77015" lon="2.15036">
        <ele>148.3</ele>
        <time>2012-12-16T10:40:52Z</time>
      </trkpt>
      <trkpt lat="48.77011" lon="2.15033">
        <ele>146.3</ele>
        <time>2012-12-16T10:40:57Z</time>
      </trkpt>
      <trkpt lat="48.77008" lon="2.15031">
        <ele>145.6</ele>
        <time>2012-12-16T10:41:02Z</time>
      </trkpt>
      <trkpt lat="48.77003" lon="2.15028">
        <ele>144.6</ele>
        <time>2012-12-16T10:41:07Z</time>
      </trkpt>
      <trkpt lat="48.77004" lon="2.15019">
        <ele>144.1</ele>
        <time>2012-12-16T10:41:12Z</time>
      </trkpt>
      <trkpt lat="48.77006" lon="2.15015">
        <ele>143</ele>
        <time>2012-12-16T10:41:17Z</time>
      </trkpt>
      <trkpt lat="48.77008" lon="2.1501">
        <ele>143.1</ele>
        <time>2012-12-16T10:41:22Z</time>
      </trkpt>
      <trkpt lat="48.77009" lon="2.15002">
        <ele>143.6</ele>
        <time>2012-12-16T10:41:27Z</time>
      </trkpt>
      <trkpt lat="48.7701" lon="2.15001">
        <ele>143.5</ele>
        <time>2012-12-16T10:41:28Z</time>
      </trkpt>
      <trkpt lat="48.77014" lon="2.14985">
        <ele>142.6</ele>
        <time>2012-12-16T10:41:37Z</time>
      </trkpt>
      <trkpt lat="48.77016" lon="2.14976">
        <ele>143.3</ele>
        <time>2012-12-16T10:41:42Z</time>
      </trkpt>
      <trkpt lat="48.77019" lon="2.14968">
        <ele>142.5</ele>
        <time>2012-12-16T10:41:47Z</time>
      </trkpt>
      <trkpt lat="48.77021" lon="2.14963">
        <ele>142.8</ele>
        <time>2012-12-16T10:41:52Z</time>
      </trkpt>
      <trkpt lat="48.77024" lon="2.14954">
        <ele>141.5</ele>
        <time>2012-12-16T10:41:57Z</time>
      </trkpt>
      <trkpt lat="48.77026" lon="2.1495">
        <ele>140.6</ele>
        <time>2012-12-16T10:42:02Z</time>
      </trkpt>
      <trkpt lat="48.7703" lon="2.14944">
        <ele>140.6</ele>
        <time>2012-12-16T10:42:07Z</time>
      </trkpt>
      <trkpt lat="48.77032" lon="2.14936">
        <ele>138</ele>
        <time>2012-12-16T10:42:12Z</time>
      </trkpt>
      <trkpt lat="48.77035" lon="2.14928">
        <ele>137.6</ele>
        <time>2012-12-16T10:42:17Z</time>
      </trkpt>
      <trkpt lat="48.77039" lon="2.14923">
        <ele>137.8</ele>
        <time>2012-12-16T10:42:22Z</time>
      </trkpt>
      <trkpt lat="48.77041" lon="2.14915">
        <ele>137.6</ele>
        <time>2012-12-16T10:42:27Z</time>
      </trkpt>
      <trkpt lat="48.77045" lon="2.14909">
        <ele>138.3</ele>
        <time>2012-12-16T10:42:32Z</time>
      </trkpt>
      <trkpt lat="48.77045" lon="2.14907">
        <ele>138.3</ele>
        <time>2012-12-16T10:42:33Z</time>
      </trkpt>
      <trkpt lat="48.7705" lon="2.14892">
        <ele>137.3</ele>
        <time>2012-12-16T10:42:42Z</time>
      </trkpt>
      <trkpt lat="48.77053" lon="2.14885">
        <ele>135.8</ele>
        <time>2012-12-16T10:42:47Z</time>
      </trkpt>
      <trkpt lat="48.77055" lon="2.14877">
        <ele>135.1</ele>
        <time>2012-12-16T10:42:52Z</time>
      </trkpt>
      <trkpt lat="48.77055" lon="2.14876">
        <ele>135</ele>
        <time>2012-12-16T10:42:57Z</time>
      </trkpt>
      <trkpt lat="48.7706" lon="2.14867">
        <ele>133.3</ele>
        <time>2012-12-16T10:43:02Z</time>
      </trkpt>
      <trkpt lat="48.77066" lon="2.14859">
        <ele>131.8</ele>
        <time>2012-12-16T10:43:07Z</time>
      </trkpt>
      <trkpt lat="48.7707" lon="2.14853">
        <ele>130.8</ele>
        <time>2012-12-16T10:43:12Z</time>
      </trkpt>
      <trkpt lat="48.77072" lon="2.14847">
        <ele>130</ele>
        <time>2012-12-16T10:43:17Z</time>
      </trkpt>
      <trkpt lat="48.77075" lon="2.14838">
        <ele>128.3</ele>
        <time>2012-12-16T10:43:22Z</time>
      </trkpt>
      <trkpt lat="48.77077" lon="2.14829">
        <ele>126.5</ele>
        <time>2012-12-16T10:43:27Z</time>
      </trkpt>
      <trkpt lat="48.77081" lon="2.14821">
        <ele>126</ele>
        <time>2012-12-16T10:43:32Z</time>
      </trkpt>
      <trkpt lat="48.77083" lon="2.14814">
        <ele>124.5</ele>
        <time>2012-12-16T10:43:37Z</time>
      </trkpt>
      <trkpt lat="48.77084" lon="2.14813">
        <ele>124.4</ele>
        <time>2012-12-16T10:43:38Z</time>
      </trkpt>
      <trkpt lat="48.77091" lon="2.14803">
        <ele>121.4</ele>
        <time>2012-12-16T10:43:47Z</time>
      </trkpt>
      <trkpt lat="48.77093" lon="2.148">
        <ele>121</ele>
        <time>2012-12-16T10:43:52Z</time>
      </trkpt>
      <trkpt lat="48.77093" lon="2.14798">
        <ele>120</ele>
        <time>2012-12-16T10:43:57Z</time>
      </trkpt>
      <trkpt lat="48.77093" lon="2.14798">
        <ele>120</ele>
        <time>2012-12-16T10:44:02Z</time>
      </trkpt>
      <trkpt lat="48.77093" lon="2.14798">
        <ele>120</ele>
        <time>2012-12-16T10:44:07Z</time>
      </trkpt>
      <trkpt lat="48.77093" lon="2.14798">
        <ele>120</ele>
        <time>2012-12-16T10:44:12Z</time>
      </trkpt>
      <trkpt lat="48.77093" lon="2.14798">
        <ele>120</ele>
        <time>2012-12-16T10:44:17Z</time>
      </trkpt>
      <trkpt lat="48.77093" lon="2.14798">
        <ele>120</ele>
        <time>2012-12-16T10:44:22Z</time>
      </trkpt>
      <trkpt lat="48.77093" lon="2.14798">
        <ele>120</ele>
        <time>2012-12-16T10:44:27Z</time>
      </trkpt>
      <trkpt lat="48.77093" lon="2.14798">
        <ele>120</ele>
        <time>2012-12-16T10:44:32Z</time>
      </trkpt>
      <trkpt lat="48.77093" lon="2.14798">
        <ele>120</ele>
        <time>2012-12-16T10:44:37Z</time>
      </trkpt>
      <trkpt lat="48.77093" lon="2.14798">
        <ele>119.6</ele>
        <time>2012-12-16T10:44:42Z</time>
      </trkpt>
      <trkpt lat="48.77093" lon="2.14798">
        <ele>119.6</ele>
        <time>2012-12-16T10:44:43Z</time>
      </trkpt>
      <trkpt lat="48.77094" lon="2.14797">
        <ele>119.4</ele>
        <time>2012-12-16T10:44:52Z</time>
      </trkpt>
      <trkpt lat="48.77094" lon="2.14797">
        <ele>119.4</ele>
        <time>2012-12-16T10:44:57Z</time>
      </trkpt>
      <trkpt lat="48.77094" lon="2.14797">
        <ele>118.9</ele>
        <time>2012-12-16T10:45:02Z</time>
      </trkpt>
      <trkpt lat="48.77094" lon="2.14797">
        <ele>118.9</ele>
        <time>2012-12-16T10:45:07Z</time>
      </trkpt>
      <trkpt lat="48.77094" lon="2.14797">
        <ele>118.9</ele>
        <time>2012-12-16T10:45:12Z</time>
      </trkpt>
      <trkpt lat="48.77094" lon="2.14797">
        <ele>118.9</ele>
        <time>2012-12-16T10:45:17Z</time>
      </trkpt>
      <trkpt lat="48.77094" lon="2.14797">
        <ele>118.9</ele>
        <time>2012-12-16T10:45:22Z</time>
      </trkpt>
      <trkpt lat="48.77094" lon="2.14797">
        <ele>118.9</ele>
        <time>2012-12-16T10:45:25Z</time>
      </trkpt>
      <trkpt lat="48.77094" lon="2.14797">
        <ele>118.9</ele>
        <time>2012-12-16T10:45:27Z</time>
      </trkpt>
    </trkseg>
  </trk>
</gpx>